[[{"header":{"parameterUnit":"m.s-1","parameterCategory":1,"la1":31.0,"la2":29.5877,"lo1":-88.7671,"lo2":-86.6584,"dy":0.0162,"dx":0.0185,"nx":115,"ny":88,"refTime":"2026-03-07T00:00:00:Z","depth":0,"parameterNumber":2,"parameterNumberName":"U-component_of_WINDS"},"data":[0.0,0.0,0.0,0.0,0.0,0.0,0.0,0.0,0.0,0.0,0.0,0.0,0.0,0.0,0.0,0.0,0.0,0.0,0.0,0.0,0.0,0.0,0.0,0.0,0.0,0.0,0.0,0.0,0.0,0.0,0.0,0.0,0.0,0.0,0.0,0.0,0.0,0.0,0.0,0.0,0.0,0.0,0.0,0.0,0.0,0.0,0.0,0.0,0.0,0.0,0.0,0.0,0.0,0.0,0.0,0.0,0.0,0.0,0.0,0.0,0.0,0.0,0.0,0.0,0.0,0.0,0.0,0.0,0.0,0.0,0.0,0.0,0.0,0.0,0.0,0.0,0.0,0.0,0.0,0.0,0.0,0.0,0.0,0.0,0.0,0.0,0.0,0.0,0.0,0.0,0.0,0.0,0.0,0.0,0.0,0.0,0.0,0.0,0.0,0.0,0.0,0.0,0.0,0.0,0.0,0.0,0.0,0.0,0.0,0.0,0.0,0.0,0.0,0.0,0.0,0.0,0.0,0.0,0.0,0.0,0.0,0.0,0.0,0.0,0.0,0.0,0.0,0.0,0.0,0.0,0.0,0.0,0.0,0.0,0.0,0.0,0.0,0.0,0.0,0.0,0.0,0.0,0.0,0.0,0.0,0.0,0.0,0.0,0.0,0.0,0.0,0.0,0.0,0.0,0.0,0.0,0.0,0.0,0.0,0.0,0.0,0.0,0.0,0.0,0.0,0.0,0.0,0.0,0.0,0.0,0.0,0.0,0.0,0.0,0.0,0.0,0.0,0.0,0.0,0.0,0.0,0.0,0.0,0.0,0.0,0.0,0.0,0.0,0.0,0.0,0.0,0.0,0.0,0.0,0.0,0.0,0.0,0.0,0.0,0.0,0.0,0.0,0.0,0.0,0.0,0.0,0.0,0.0,0.0,0.0,0.0,0.0,0.0,0.0,0.0,0.0,0.0,0.0,0.0,0.0,0.0,0.0,0.0,0.0,0.0,0.0,0.0,0.0,0.0,0.0,0.0,0.0,0.0,0.0,0.0,0.0,0.0,0.0,0.0,0.0,0.0,0.0,0.0,0.0,0.0,0.0,0.0,0.0,0.0,0.0,0.0,0.0,0.0,0.0,0.0,0.0,0.0,0.0,0.0,0.0,0.0,0.0,0.0,0.0,0.0,0.0,0.0,0.0,0.0,0.0,0.0,0.0,0.0,0.0,0.0,0.0,0.0,0.0,0.0,0.0,0.0,0.0,0.0,0.0,0.0,0.0,0.0,0.0,0.0,0.0,0.0,0.0,0.0,0.0,0.0,0.0,0.0,0.0,0.0,0.0,0.0,0.0,0.0,0.0,0.0,0.0,0.0,0.0,0.0,0.0,0.0,0.0,0.0,0.0,0.0,0.0,0.0,0.0,0.0,0.0,0.0,0.0,0.0,0.0,0.0,0.0,0.0,0.0,0.0,0.0,0.0,0.0,0.0,0.0,0.0,0.0,0.0,0.0,0.0,0.0,0.0,0.0,0.0,0.0,0.0,0.0,0.0,0.0,0.0,0.0,0.0,0.0,0.0,0.0,0.0,0.0,0.0,0.0,0.0,0.0,0.0,0.0,0.0,0.0,0.0,0.0,0.0,0.0,0.0,0.0,0.0,0.0,0.0,0.0,0.0,0.0,0.0,0.0,0.0,0.0,0.0,0.0,0.0,0.0,0.0,0.0,0.0,0.0,0.0,0.0,0.0,0.0,0.0,0.0,0.0,0.0,0.0,0.0,0.0,0.0,0.0,0.0,0.0,0.0,0.0,0.0,0.0,0.0,0.0,0.0,0.0,0.0,0.0,0.0,0.0,0.0,0.0,0.0,0.0,0.0,0.0,0.0,0.0,0.0,0.0,0.0,0.0,0.0,0.0,0.0,0.0,0.0,0.0,0.0,0.0,0.0,0.0,0.0,0.0,0.0,0.0,0.0,0.0,0.0,0.0,0.0,0.0,0.0,0.0,0.0,0.0,0.0,0.0,0.0,0.0,0.0,0.0,0.0,0.0,0.0,0.0,0.0,0.0,0.0,0.0,0.0,0.0,0.0,0.0,0.0,0.0,0.0,0.0,0.0,0.0,0.0,0.0,0.0,0.0,0.0,0.0,0.0,0.0,0.0,0.0,0.0,0.0,0.0,0.0,0.0,0.0,0.0,0.0,0.0,0.0,0.0,0.0,0.0,0.0,0.0,0.0,0.0,0.0,0.0,0.0,0.0,0.0,0.0,0.0,0.0,0.0,0.0,0.0,0.0,0.0,0.0,0.0,0.0,0.0,0.0,0.0,0.0,0.0,0.0,0.0,0.0,0.0,0.0,0.0,0.0,0.0,0.0,0.0,0.0,0.0,0.0,0.0,0.0,0.0,0.0,0.0,0.0,0.0,0.0,0.0,0.0,0.0,0.0,0.0,0.0,0.0,0.0,0.0,0.0,0.0,0.0,0.0,0.0,0.0,0.0,0.0,0.0,0.0,0.0,0.0,0.0,0.0,0.0,0.0,0.0,0.0,0.0,0.0,0.0,0.0,0.0,0.0,0.0,0.0,0.0,0.0,0.0,0.0,0.0,0.0,0.0,0.0,0.0,0.0,0.0,0.0,0.0,0.0,0.0,0.0,0.0,0.0,0.0,0.0,0.0,0.0,0.0,0.0,0.0,0.0,0.0,0.0,0.0,0.0,0.0,0.0,0.0,0.0,0.0,0.0,0.0,0.0,0.0,0.0,0.0,0.0,0.0,0.0,0.0,0.0,0.0,0.0,0.0,0.0,0.0,0.0,0.0,0.0,0.0,0.0,0.0,0.0,0.0,0.0,0.0,0.0,0.0,0.0,0.0,0.0,0.0,0.0,0.0,0.0,0.0,0.0,0.0,0.0,0.0,0.0,0.0,0.0,0.0,0.0,0.0,0.0,0.0,0.0,0.0,0.0,0.0,0.0,0.0,0.0,0.0,0.0,0.0,0.0,0.0,0.0,0.0,0.0,0.0,0.0,0.0,0.0,0.0,0.0,0.0,0.0,0.0,0.0,0.0,0.0,0.0,0.0,0.0,0.0,0.0,0.0,0.0,0.0,0.0,0.0,0.0,0.0,0.0,0.0,0.0,0.0,0.0,0.0,0.0,0.0,0.0,0.0,0.0,0.0,0.0,0.0,0.0,0.0,0.0,0.0,0.0,0.0,0.0,0.0,0.0,0.0,0.0,0.0,0.0,0.0,0.0,0.0,0.0,0.0,0.0,0.0,0.0,0.0,0.0,0.0,0.0,0.0,0.0,0.0,0.0,0.0,0.0,0.0,0.0,0.0,0.0,0.0,0.0,0.0,0.0,0.0,0.0,0.0,0.0,0.0,0.0,0.0,0.0,0.0,0.0,0.0,0.0,0.0,0.0,0.0,0.0,0.0,0.0,0.0,0.0,0.0,0.0,0.0,0.0,0.0,0.0,0.0,0.0,0.0,0.0,0.0,0.0,0.0,0.0,0.0,0.0,0.0,0.0,0.0,0.0,0.0,0.0,0.0,0.0,0.0,0.0,0.0,0.0,0.0,0.0,0.0,0.0,0.0,0.0,0.0,0.0,0.0,0.0,0.0,0.0,0.0,0.0,0.0,0.0,0.0,0.0,0.0,0.0,0.0,0.0,0.0,0.0,0.0,0.0,0.0,0.0,0.0,0.0,0.0,0.0,0.0,0.0,0.0,0.0,0.0,0.0,0.0,0.0,0.0,0.0,0.0,0.0,0.0,0.0,0.0,0.0,0.0,0.0,0.0,0.0,0.0,0.0,0.0,0.0,0.0,0.0,0.0,0.0,0.0,0.0,0.0,0.0,0.0,0.0,0.0,0.0,0.0,0.0,0.0,0.0,0.0,0.0,0.0,0.0,0.0,0.0,0.0,0.0,0.0,0.0,0.0,0.0,0.0,0.0,0.0,0.0,0.0,0.0,0.0,0.0,0.0,0.0,0.0,0.0,0.0,0.0,0.0,0.0,0.0,0.0,0.0,0.0,0.0,0.0,0.0,0.0,0.0,0.0,0.0,0.0,0.0,0.0,0.0,0.0,0.0,0.0,0.0,0.0,0.0,0.0,0.0,0.0,0.0,0.0,0.0,0.0,0.0,0.0,0.0,0.0,0.0,0.0,0.0,0.0,0.0,0.0,0.0,0.0,0.0,0.0,0.0,0.0,0.0,0.0,0.0,0.0,0.0,0.0,0.0,0.0,0.0,0.0,0.0,0.0,0.0,0.0,0.0,0.0,0.0,0.0,0.0,0.0,-4.6346,0.0,0.0,0.0,0.0,0.0,0.0,0.0,0.0,0.0,0.0,0.0,0.0,0.0,0.0,0.0,0.0,0.0,0.0,0.0,0.0,0.0,0.0,0.0,0.0,0.0,0.0,0.0,0.0,0.0,0.0,0.0,0.0,0.0,0.0,0.0,0.0,0.0,0.0,0.0,0.0,0.0,0.0,0.0,0.0,0.0,0.0,0.0,0.0,0.0,0.0,0.0,0.0,0.0,0.0,0.0,0.0,0.0,0.0,0.0,0.0,0.0,0.0,0.0,0.0,0.0,0.0,0.0,0.0,0.0,0.0,0.0,0.0,0.0,0.0,0.0,0.0,0.0,0.0,0.0,0.0,0.0,0.0,0.0,0.0,0.0,0.0,0.0,0.0,0.0,0.0,0.0,0.0,0.0,0.0,0.0,0.0,0.0,0.0,0.0,0.0,0.0,0.0,0.0,0.0,0.0,0.0,0.0,0.0,0.0,0.0,-5.1044,-5.068,-4.9881,-4.8874,-4.7642,0.0,0.0,0.0,0.0,0.0,0.0,0.0,0.0,0.0,0.0,0.0,0.0,0.0,0.0,0.0,0.0,0.0,0.0,0.0,0.0,0.0,0.0,0.0,0.0,0.0,0.0,0.0,0.0,0.0,0.0,0.0,0.0,0.0,0.0,0.0,0.0,0.0,0.0,0.0,0.0,0.0,0.0,0.0,0.0,0.0,0.0,0.0,0.0,0.0,0.0,0.0,0.0,0.0,0.0,0.0,0.0,0.0,0.0,0.0,0.0,0.0,0.0,0.0,0.0,0.0,0.0,0.0,0.0,0.0,0.0,0.0,0.0,0.0,0.0,0.0,0.0,0.0,0.0,0.0,0.0,0.0,0.0,0.0,0.0,0.0,0.0,0.0,0.0,0.0,0.0,0.0,0.0,0.0,0.0,0.0,0.0,0.0,0.0,0.0,0.0,0.0,0.0,0.0,0.0,0.0,0.0,0.0,0.0,0.0,0.0,0.0,0.0,-5.0396,-4.9312,-4.7895,0.0,0.0,0.0,0.0,0.0,0.0,0.0,0.0,0.0,0.0,0.0,0.0,0.0,0.0,0.0,0.0,0.0,0.0,0.0,0.0,0.0,0.0,0.0,0.0,0.0,0.0,0.0,0.0,0.0,0.0,0.0,0.0,0.0,0.0,0.0,0.0,0.0,0.0,0.0,0.0,0.0,0.0,0.0,0.0,0.0,0.0,0.0,0.0,0.0,0.0,0.0,0.0,0.0,0.0,0.0,0.0,0.0,0.0,0.0,0.0,0.0,0.0,0.0,0.0,0.0,0.0,0.0,0.0,0.0,0.0,0.0,0.0,0.0,0.0,0.0,0.0,0.0,0.0,0.0,0.0,0.0,0.0,0.0,0.0,0.0,0.0,0.0,0.0,0.0,0.0,0.0,0.0,0.0,0.0,0.0,0.0,0.0,0.0,0.0,0.0,0.0,0.0,0.0,0.0,0.0,0.0,0.0,0.0,0.0,0.0,-5.0293,-5.1053,-5.0315,0.0,-4.5399,0.0,0.0,0.0,0.0,0.0,0.0,0.0,0.0,0.0,0.0,0.0,0.0,0.0,0.0,0.0,0.0,0.0,0.0,0.0,0.0,0.0,0.0,0.0,0.0,0.0,0.0,0.0,0.0,0.0,0.0,0.0,0.0,0.0,0.0,0.0,0.0,0.0,0.0,0.0,0.0,0.0,0.0,0.0,0.0,0.0,0.0,0.0,0.0,0.0,0.0,0.0,0.0,0.0,0.0,0.0,0.0,0.0,0.0,0.0,0.0,0.0,0.0,0.0,0.0,0.0,0.0,0.0,0.0,0.0,0.0,0.0,0.0,0.0,0.0,0.0,0.0,0.0,0.0,0.0,0.0,0.0,0.0,0.0,0.0,0.0,0.0,0.0,0.0,0.0,0.0,0.0,0.0,0.0,0.0,0.0,0.0,0.0,0.0,0.0,0.0,0.0,0.0,0.0,0.0,0.0,0.0,0.0,0.0,0.0,0.0,-5.0148,-5.1017,-4.979,-4.8024,0.0,0.0,0.0,0.0,0.0,0.0,0.0,0.0,0.0,0.0,0.0,0.0,0.0,0.0,0.0,0.0,0.0,0.0,0.0,0.0,0.0,0.0,0.0,0.0,0.0,0.0,0.0,0.0,0.0,0.0,0.0,0.0,0.0,0.0,0.0,0.0,0.0,0.0,0.0,0.0,0.0,0.0,0.0,0.0,0.0,0.0,0.0,0.0,0.0,0.0,0.0,0.0,0.0,0.0,0.0,0.0,0.0,0.0,0.0,0.0,0.0,0.0,0.0,0.0,0.0,0.0,0.0,0.0,0.0,0.0,0.0,0.0,0.0,0.0,0.0,0.0,0.0,0.0,0.0,0.0,0.0,0.0,0.0,0.0,0.0,0.0,0.0,0.0,0.0,0.0,0.0,0.0,0.0,0.0,0.0,0.0,0.0,0.0,0.0,0.0,0.0,0.0,0.0,0.0,0.0,0.0,0.0,0.0,0.0,0.0,-4.901,-4.9768,-5.0509,-4.9311,-4.7672,-4.5769,0.0,0.0,0.0,0.0,0.0,0.0,0.0,0.0,0.0,0.0,0.0,0.0,0.0,0.0,0.0,0.0,0.0,0.0,0.0,0.0,0.0,0.0,0.0,0.0,0.0,0.0,0.0,0.0,0.0,0.0,0.0,0.0,0.0,0.0,0.0,0.0,0.0,0.0,0.0,0.0,0.0,0.0,0.0,0.0,0.0,0.0,0.0,0.0,0.0,0.0,0.0,0.0,0.0,0.0,0.0,0.0,0.0,0.0,0.0,0.0,0.0,0.0,0.0,0.0,0.0,0.0,0.0,0.0,0.0,0.0,0.0,0.0,0.0,0.0,0.0,0.0,0.0,0.0,0.0,0.0,0.0,0.0,0.0,0.0,0.0,0.0,0.0,0.0,0.0,0.0,0.0,0.0,0.0,0.0,0.0,0.0,0.0,0.0,0.0,0.0,0.0,0.0,0.0,0.0,0.0,0.0,0.0,0.0,-4.8314,-4.843,-4.8878,-4.9708,-4.8929,-4.732,0.0,0.0,0.0,0.0,0.0,0.0,0.0,0.0,0.0,0.0,0.0,0.0,0.0,0.0,0.0,0.0,0.0,0.0,0.0,0.0,0.0,0.0,0.0,0.0,0.0,0.0,0.0,0.0,0.0,0.0,0.0,0.0,0.0,0.0,0.0,0.0,0.0,0.0,0.0,0.0,0.0,0.0,0.0,0.0,0.0,0.0,0.0,0.0,0.0,0.0,0.0,0.0,0.0,0.0,0.0,0.0,0.0,0.0,0.0,0.0,0.0,0.0,0.0,0.0,0.0,0.0,0.0,0.0,0.0,0.0,0.0,0.0,0.0,0.0,0.0,0.0,0.0,0.0,0.0,0.0,0.0,0.0,0.0,0.0,0.0,0.0,0.0,0.0,0.0,0.0,0.0,0.0,0.0,0.0,0.0,0.0,0.0,0.0,0.0,0.0,0.0,0.0,0.0,0.0,0.0,0.0,0.0,0.0,0.0,-4.753,-4.8094,-4.8554,-4.88,-4.7499,-4.6087,0.0,0.0,0.0,0.0,0.0,0.0,0.0,0.0,0.0,0.0,0.0,0.0,0.0,0.0,0.0,0.0,0.0,0.0,0.0,0.0,0.0,0.0,0.0,0.0,0.0,0.0,0.0,0.0,0.0,0.0,0.0,0.0,0.0,0.0,0.0,0.0,0.0,0.0,0.0,0.0,0.0,0.0,0.0,0.0,0.0,0.0,0.0,0.0,0.0,0.0,0.0,0.0,0.0,0.0,0.0,0.0,0.0,0.0,0.0,0.0,0.0,0.0,0.0,0.0,0.0,0.0,0.0,0.0,0.0,0.0,0.0,0.0,0.0,0.0,0.0,0.0,0.0,0.0,0.0,0.0,0.0,0.0,0.0,0.0,0.0,0.0,0.0,0.0,0.0,0.0,0.0,0.0,0.0,0.0,0.0,0.0,0.0,0.0,0.0,0.0,0.0,0.0,0.0,0.0,0.0,0.0,0.0,0.0,0.0,-4.7082,0.0,-4.8275,-4.7947,-4.6581,-4.5156,0.0,0.0,0.0,0.0,0.0,0.0,0.0,0.0,0.0,0.0,0.0,0.0,0.0,0.0,0.0,0.0,0.0,0.0,0.0,0.0,0.0,0.0,0.0,0.0,0.0,0.0,0.0,0.0,0.0,0.0,0.0,0.0,0.0,0.0,0.0,0.0,0.0,0.0,0.0,0.0,0.0,0.0,0.0,0.0,0.0,0.0,0.0,0.0,0.0,0.0,0.0,0.0,0.0,0.0,0.0,0.0,0.0,0.0,0.0,0.0,0.0,0.0,0.0,0.0,0.0,0.0,0.0,0.0,0.0,0.0,0.0,0.0,0.0,0.0,0.0,0.0,0.0,0.0,0.0,0.0,0.0,0.0,0.0,0.0,0.0,0.0,0.0,0.0,0.0,0.0,0.0,0.0,0.0,0.0,0.0,0.0,0.0,0.0,0.0,0.0,0.0,0.0,0.0,0.0,0.0,0.0,0.0,0.0,-4.609,-4.7063,-4.7905,-4.7966,-4.7134,-4.6225,-4.4607,0.0,0.0,0.0,0.0,0.0,0.0,0.0,0.0,0.0,0.0,0.0,0.0,0.0,0.0,0.0,0.0,0.0,0.0,0.0,0.0,0.0,0.0,0.0,0.0,0.0,0.0,0.0,0.0,0.0,0.0,0.0,0.0,0.0,0.0,0.0,0.0,0.0,0.0,0.0,0.0,0.0,0.0,0.0,0.0,0.0,0.0,0.0,0.0,0.0,0.0,0.0,0.0,0.0,0.0,0.0,0.0,0.0,0.0,0.0,0.0,0.0,0.0,0.0,0.0,0.0,0.0,0.0,0.0,0.0,0.0,0.0,0.0,0.0,0.0,0.0,0.0,0.0,0.0,0.0,0.0,0.0,0.0,0.0,0.0,0.0,0.0,0.0,0.0,0.0,0.0,0.0,0.0,0.0,0.0,0.0,0.0,0.0,0.0,0.0,0.0,0.0,0.0,0.0,0.0,0.0,0.0,0.0,0.0,0.0,-4.609,-4.7044,-4.7387,-4.7071,-4.5728,-4.433,0.0,0.0,0.0,0.0,0.0,0.0,0.0,0.0,0.0,0.0,0.0,0.0,0.0,0.0,0.0,0.0,0.0,0.0,0.0,0.0,0.0,0.0,0.0,0.0,0.0,0.0,0.0,0.0,0.0,0.0,0.0,0.0,0.0,0.0,0.0,0.0,0.0,0.0,0.0,0.0,0.0,0.0,0.0,0.0,0.0,0.0,0.0,0.0,0.0,0.0,0.0,0.0,0.0,0.0,0.0,0.0,0.0,0.0,0.0,0.0,0.0,0.0,0.0,0.0,0.0,0.0,0.0,0.0,0.0,0.0,0.0,0.0,0.0,0.0,0.0,0.0,0.0,0.0,0.0,0.0,0.0,0.0,0.0,0.0,0.0,0.0,0.0,0.0,0.0,0.0,0.0,0.0,0.0,0.0,0.0,0.0,0.0,0.0,0.0,0.0,0.0,0.0,0.0,0.0,0.0,0.0,0.0,0.0,0.0,-4.6502,-4.6896,-4.7214,-4.7531,-4.5931,-4.4503,-4.3305,0.0,0.0,0.0,0.0,0.0,0.0,0.0,0.0,0.0,0.0,0.0,0.0,0.0,0.0,0.0,0.0,0.0,0.0,0.0,0.0,0.0,0.0,0.0,0.0,0.0,0.0,0.0,0.0,0.0,0.0,0.0,0.0,0.0,0.0,0.0,0.0,0.0,0.0,0.0,0.0,0.0,0.0,0.0,0.0,0.0,0.0,0.0,0.0,0.0,0.0,0.0,0.0,0.0,0.0,0.0,0.0,0.0,0.0,0.0,0.0,0.0,0.0,0.0,0.0,0.0,0.0,0.0,0.0,0.0,0.0,0.0,0.0,0.0,0.0,0.0,0.0,0.0,0.0,0.0,0.0,0.0,0.0,0.0,0.0,0.0,0.0,0.0,0.0,0.0,0.0,0.0,0.0,0.0,0.0,0.0,0.0,0.0,0.0,0.0,0.0,0.0,0.0,0.0,0.0,0.0,0.0,0.0,0.0,-4.8116,-4.7535,-4.761,-4.84,-4.6835,-4.5131,0.0,0.0,0.0,0.0,0.0,0.0,0.0,0.0,0.0,0.0,0.0,0.0,0.0,0.0,0.0,0.0,0.0,0.0,0.0,0.0,0.0,0.0,0.0,0.0,0.0,0.0,0.0,0.0,0.0,0.0,0.0,0.0,0.0,0.0,0.0,0.0,0.0,0.0,0.0,0.0,0.0,0.0,0.0,0.0,0.0,0.0,0.0,0.0,0.0,0.0,0.0,0.0,0.0,0.0,0.0,0.0,0.0,0.0,0.0,0.0,0.0,0.0,0.0,0.0,0.0,0.0,0.0,0.0,0.0,0.0,0.0,0.0,0.0,0.0,0.0,0.0,0.0,0.0,0.0,0.0,0.0,0.0,0.0,0.0,0.0,0.0,0.0,0.0,0.0,0.0,0.0,0.0,0.0,0.0,0.0,0.0,0.0,0.0,0.0,0.0,0.0,0.0,0.0,0.0,0.0,0.0,0.0,0.0,0.0,-4.863,-4.9261,-4.9691,-5.0015,-4.8489,-4.6534,0.0,0.0,0.0,0.0,0.0,0.0,0.0,0.0,0.0,0.0,0.0,0.0,0.0,0.0,0.0,0.0,0.0,0.0,0.0,0.0,0.0,0.0,0.0,0.0,0.0,0.0,0.0,0.0,0.0,0.0,0.0,0.0,0.0,0.0,0.0,0.0,0.0,0.0,0.0,0.0,0.0,0.0,0.0,0.0,0.0,0.0,0.0,0.0,0.0,0.0,0.0,0.0,0.0,0.0,0.0,0.0,0.0,0.0,0.0,0.0,0.0,0.0,0.0,0.0,0.0,0.0,0.0,0.0,0.0,0.0,0.0,0.0,0.0,0.0,0.0,0.0,0.0,0.0,0.0,0.0,0.0,0.0,0.0,0.0,0.0,0.0,0.0,0.0,0.0,0.0,0.0,0.0,0.0,0.0,0.0,0.0,0.0,0.0,0.0,0.0,0.0,0.0,0.0,0.0,0.0,0.0,0.0,0.0,-4.6572,-4.9846,-5.0754,-5.1443,-5.1984,-4.9904,-4.776,0.0,0.0,0.0,0.0,0.0,0.0,0.0,0.0,0.0,0.0,0.0,0.0,0.0,0.0,0.0,0.0,0.0,0.0,0.0,0.0,0.0,0.0,0.0,0.0,0.0,0.0,0.0,0.0,0.0,0.0,0.0,0.0,0.0,0.0,0.0,0.0,0.0,0.0,0.0,0.0,0.0,0.0,0.0,0.0,0.0,0.0,0.0,0.0,0.0,0.0,0.0,0.0,0.0,0.0,0.0,0.0,0.0,0.0,0.0,0.0,0.0,0.0,0.0,0.0,0.0,0.0,0.0,0.0,0.0,0.0,0.0,0.0,0.0,0.0,0.0,0.0,0.0,0.0,0.0,0.0,0.0,0.0,0.0,0.0,0.0,0.0,0.0,0.0,0.0,0.0,0.0,0.0,0.0,0.0,0.0,0.0,0.0,0.0,0.0,0.0,0.0,0.0,0.0,0.0,0.0,0.0,0.0,0.0,-4.7871,-5.1071,-5.1964,-5.2826,-5.3598,-5.1055,-4.8817,0.0,0.0,0.0,0.0,0.0,0.0,0.0,0.0,0.0,0.0,0.0,0.0,0.0,0.0,0.0,0.0,0.0,0.0,0.0,0.0,0.0,0.0,0.0,0.0,0.0,0.0,0.0,0.0,0.0,0.0,0.0,0.0,0.0,0.0,0.0,0.0,0.0,0.0,0.0,0.0,0.0,0.0,0.0,0.0,0.0,0.0,0.0,0.0,0.0,0.0,0.0,0.0,0.0,0.0,0.0,0.0,0.0,0.0,0.0,0.0,0.0,0.0,0.0,0.0,0.0,0.0,0.0,0.0,0.0,0.0,0.0,0.0,0.0,0.0,0.0,0.0,0.0,0.0,0.0,0.0,0.0,0.0,0.0,0.0,0.0,0.0,0.0,0.0,0.0,0.0,0.0,0.0,0.0,0.0,0.0,0.0,0.0,0.0,0.0,0.0,0.0,0.0,0.0,0.0,0.0,0.0,0.0,0.0,-4.8169,-5.0685,-5.2219,-5.3132,-5.3387,-5.1832,-4.9924,0.0,0.0,0.0,0.0,0.0,0.0,0.0,0.0,0.0,0.0,0.0,0.0,0.0,0.0,0.0,0.0,0.0,0.0,0.0,0.0,0.0,0.0,0.0,0.0,0.0,0.0,0.0,0.0,0.0,0.0,0.0,0.0,0.0,0.0,0.0,0.0,0.0,0.0,0.0,0.0,0.0,0.0,0.0,0.0,0.0,0.0,0.0,0.0,-3.5425,0.0,0.0,0.0,0.0,0.0,0.0,0.0,0.0,0.0,0.0,0.0,0.0,0.0,0.0,0.0,0.0,0.0,0.0,0.0,0.0,0.0,0.0,0.0,0.0,0.0,0.0,0.0,0.0,0.0,0.0,0.0,0.0,0.0,0.0,0.0,0.0,0.0,0.0,0.0,0.0,0.0,0.0,0.0,0.0,0.0,0.0,0.0,0.0,0.0,0.0,0.0,0.0,0.0,0.0,0.0,0.0,0.0,0.0,0.0,-4.864,-5.0996,-5.2304,-5.3013,-5.3061,-5.1715,-4.9736,0.0,0.0,0.0,0.0,0.0,0.0,0.0,0.0,0.0,0.0,0.0,0.0,0.0,0.0,0.0,0.0,0.0,0.0,0.0,0.0,0.0,0.0,0.0,0.0,0.0,0.0,0.0,0.0,0.0,0.0,0.0,0.0,0.0,0.0,0.0,0.0,0.0,0.0,0.0,0.0,0.0,0.0,0.0,0.0,0.0,0.0,0.0,0.0,0.0,0.0,0.0,0.0,0.0,0.0,0.0,0.0,0.0,0.0,0.0,0.0,0.0,0.0,0.0,0.0,0.0,0.0,0.0,0.0,0.0,0.0,0.0,0.0,0.0,0.0,0.0,0.0,0.0,0.0,0.0,0.0,0.0,0.0,0.0,0.0,0.0,0.0,0.0,0.0,0.0,0.0,0.0,0.0,0.0,0.0,0.0,0.0,0.0,0.0,0.0,0.0,0.0,0.0,0.0,0.0,0.0,0.0,0.0,-4.6676,-4.9015,-5.1275,-5.2118,-5.2491,-5.2431,-5.0929,-4.8766,-4.5994,0.0,0.0,0.0,0.0,0.0,0.0,0.0,0.0,0.0,0.0,0.0,0.0,0.0,0.0,0.0,0.0,0.0,0.0,0.0,0.0,0.0,0.0,0.0,0.0,0.0,0.0,0.0,0.0,0.0,0.0,0.0,0.0,0.0,0.0,0.0,0.0,0.0,0.0,-3.2967,-3.5776,0.0,0.0,0.0,0.0,0.0,0.0,0.0,0.0,-3.5419,0.0,0.0,0.0,0.0,0.0,0.0,0.0,0.0,0.0,0.0,0.0,0.0,0.0,0.0,0.0,0.0,0.0,0.0,0.0,0.0,0.0,0.0,0.0,0.0,0.0,0.0,0.0,0.0,0.0,0.0,0.0,0.0,0.0,0.0,0.0,0.0,0.0,0.0,0.0,0.0,0.0,0.0,0.0,0.0,0.0,0.0,0.0,0.0,0.0,0.0,0.0,0.0,0.0,0.0,0.0,0.0,-4.4124,-4.6565,-4.8638,-5.03,-5.1174,-5.1285,-5.056,-4.9064,-4.7071,-4.4659,0.0,0.0,0.0,0.0,0.0,0.0,0.0,0.0,0.0,0.0,0.0,0.0,0.0,0.0,0.0,0.0,0.0,0.0,0.0,0.0,0.0,0.0,0.0,0.0,0.0,0.0,0.0,0.0,0.0,0.0,0.0,0.0,0.0,0.0,0.0,0.0,0.0,0.0,0.0,-3.7068,-3.8277,0.0,0.0,0.0,0.0,0.0,0.0,0.0,0.0,-3.5514,0.0,0.0,0.0,0.0,0.0,0.0,0.0,0.0,0.0,0.0,0.0,0.0,0.0,0.0,0.0,0.0,0.0,0.0,0.0,0.0,0.0,0.0,0.0,0.0,0.0,0.0,0.0,0.0,0.0,0.0,0.0,0.0,0.0,0.0,0.0,0.0,0.0,0.0,0.0,0.0,0.0,0.0,0.0,0.0,0.0,0.0,0.0,0.0,0.0,0.0,0.0,0.0,0.0,0.0,0.0,-4.4033,-4.6487,-4.8516,-5.0098,-5.0971,-5.0785,-4.9503,-4.7939,-4.5962,0.0,0.0,0.0,0.0,0.0,0.0,0.0,0.0,0.0,0.0,0.0,0.0,0.0,0.0,0.0,0.0,0.0,0.0,0.0,0.0,0.0,0.0,0.0,0.0,0.0,0.0,0.0,0.0,0.0,0.0,0.0,0.0,0.0,0.0,0.0,0.0,0.0,0.0,0.0,0.0,-3.715,-3.78,-3.8237,0.0,0.0,0.0,0.0,0.0,0.0,-3.6257,-3.5442,0.0,0.0,0.0,0.0,0.0,0.0,0.0,0.0,0.0,0.0,0.0,0.0,0.0,0.0,0.0,0.0,0.0,0.0,0.0,0.0,0.0,0.0,0.0,0.0,0.0,0.0,0.0,0.0,0.0,0.0,0.0,0.0,0.0,0.0,0.0,0.0,0.0,0.0,0.0,0.0,0.0,0.0,0.0,0.0,0.0,0.0,0.0,0.0,0.0,0.0,0.0,0.0,0.0,0.0,0.0,-4.3667,-4.6079,-4.8062,-4.9563,-5.0397,-5.0119,-4.8651,-4.7072,-4.5066,0.0,0.0,0.0,0.0,0.0,0.0,0.0,0.0,0.0,0.0,0.0,0.0,0.0,0.0,0.0,0.0,0.0,0.0,0.0,0.0,0.0,0.0,0.0,0.0,0.0,0.0,0.0,0.0,0.0,0.0,0.0,0.0,0.0,0.0,0.0,0.0,0.0,0.0,0.0,0.0,0.0,-3.7424,-3.8265,-3.8259,0.0,0.0,0.0,0.0,-3.7185,-3.6576,0.0,0.0,0.0,0.0,0.0,0.0,0.0,0.0,0.0,0.0,0.0,0.0,0.0,0.0,0.0,0.0,0.0,0.0,0.0,0.0,0.0,0.0,0.0,0.0,0.0,0.0,0.0,0.0,0.0,0.0,0.0,0.0,0.0,0.0,0.0,0.0,0.0,0.0,0.0,0.0,0.0,0.0,0.0,0.0,0.0,0.0,0.0,0.0,0.0,0.0,0.0,0.0,0.0,0.0,0.0,0.0,-4.256,-4.4906,-4.6617,-4.7592,-4.8421,-4.8476,-4.7748,-4.6118,-4.4149,0.0,0.0,0.0,0.0,0.0,0.0,0.0,0.0,0.0,0.0,0.0,0.0,0.0,0.0,0.0,0.0,0.0,0.0,0.0,0.0,0.0,0.0,0.0,0.0,0.0,0.0,0.0,0.0,0.0,0.0,0.0,0.0,0.0,0.0,0.0,0.0,0.0,0.0,0.0,0.0,0.0,-3.8069,-3.8887,-3.8399,-3.7896,0.0,0.0,-3.7811,-3.7864,-3.7218,0.0,0.0,0.0,0.0,0.0,0.0,0.0,0.0,0.0,0.0,0.0,0.0,0.0,0.0,0.0,0.0,0.0,0.0,0.0,0.0,0.0,0.0,0.0,0.0,0.0,0.0,0.0,0.0,0.0,0.0,0.0,0.0,0.0,0.0,0.0,0.0,0.0,0.0,0.0,0.0,0.0,0.0,0.0,0.0,0.0,0.0,0.0,0.0,0.0,0.0,0.0,0.0,0.0,0.0,0.0,-3.9116,-4.1451,-4.3322,-4.4894,-4.6175,-4.6559,-4.6451,-4.5862,-4.4226,-4.2527,0.0,0.0,0.0,0.0,0.0,0.0,0.0,0.0,0.0,0.0,0.0,0.0,0.0,0.0,0.0,0.0,0.0,0.0,0.0,0.0,0.0,0.0,0.0,0.0,0.0,0.0,0.0,0.0,0.0,0.0,0.0,0.0,0.0,0.0,0.0,0.0,0.0,0.0,0.0,0.0,0.0,0.0,-3.875,-3.8625,0.0,0.0,0.0,-3.8442,-3.846,0.0,0.0,0.0,0.0,0.0,0.0,0.0,0.0,0.0,0.0,0.0,0.0,0.0,0.0,0.0,0.0,0.0,0.0,0.0,0.0,0.0,0.0,0.0,0.0,0.0,0.0,0.0,0.0,0.0,0.0,0.0,0.0,0.0,0.0,0.0,0.0,0.0,0.0,0.0,0.0,0.0,0.0,0.0,0.0,0.0,0.0,0.0,0.0,0.0,0.0,0.0,0.0,0.0,0.0,0.0,0.0,0.0,-4.0236,-4.1904,-4.3422,-4.4818,-4.5091,-4.4918,-4.429,-4.2759,0.0,0.0,0.0,0.0,0.0,0.0,0.0,0.0,0.0,0.0,0.0,0.0,0.0,0.0,0.0,0.0,0.0,0.0,0.0,0.0,0.0,0.0,0.0,0.0,0.0,0.0,0.0,-2.7503,0.0,0.0,0.0,0.0,0.0,0.0,0.0,0.0,0.0,0.0,0.0,0.0,0.0,0.0,-3.6973,-3.8738,-3.8827,-3.8741,0.0,0.0,-3.8758,-3.8747,-3.7473,-3.6241,0.0,0.0,0.0,0.0,0.0,0.0,0.0,0.0,0.0,0.0,0.0,0.0,0.0,0.0,0.0,0.0,0.0,0.0,0.0,0.0,0.0,0.0,0.0,0.0,0.0,0.0,0.0,0.0,0.0,0.0,0.0,0.0,0.0,0.0,0.0,0.0,0.0,0.0,0.0,0.0,0.0,0.0,0.0,0.0,0.0,0.0,0.0,0.0,0.0,0.0,0.0,0.0,0.0,0.0,-3.7309,-3.8847,-4.0956,-4.2498,-4.344,-4.426,-4.4372,-4.3748,-4.2314,-4.051,0.0,0.0,0.0,0.0,0.0,0.0,0.0,0.0,0.0,0.0,0.0,0.0,0.0,0.0,0.0,0.0,0.0,0.0,0.0,0.0,0.0,0.0,0.0,0.0,0.0,0.0,0.0,0.0,0.0,0.0,0.0,0.0,0.0,0.0,0.0,0.0,0.0,0.0,0.0,0.0,0.0,-3.6921,-3.913,-3.8873,-3.8654,0.0,-3.8873,-3.8446,-3.8491,-3.7231,-3.5993,-3.5324,0.0,0.0,0.0,0.0,0.0,0.0,0.0,0.0,0.0,0.0,0.0,0.0,0.0,0.0,0.0,0.0,0.0,0.0,0.0,0.0,0.0,0.0,0.0,0.0,0.0,0.0,0.0,0.0,0.0,0.0,0.0,0.0,0.0,0.0,0.0,0.0,0.0,0.0,0.0,0.0,0.0,0.0,0.0,0.0,0.0,0.0,0.0,0.0,0.0,0.0,0.0,0.0,0.0,-3.5651,-3.7574,-3.9341,-4.0809,-4.2084,-4.2445,-4.2347,-4.1783,-4.0758,-3.9162,0.0,0.0,0.0,0.0,0.0,0.0,0.0,0.0,0.0,0.0,0.0,0.0,0.0,0.0,0.0,0.0,0.0,0.0,0.0,0.0,0.0,0.0,0.0,0.0,0.0,0.0,0.0,0.0,-2.9591,-2.9312,-2.8195,0.0,0.0,0.0,0.0,0.0,0.0,0.0,0.0,0.0,0.0,-3.6433,-3.8672,-3.8313,0.0,0.0,-3.8348,-3.7984,-3.8,-3.6858,-3.5893,-3.5783,-3.4102,0.0,0.0,0.0,0.0,0.0,0.0,0.0,0.0,0.0,0.0,0.0,0.0,0.0,0.0,0.0,0.0,0.0,0.0,0.0,0.0,0.0,0.0,0.0,0.0,0.0,0.0,0.0,0.0,0.0,0.0,0.0,0.0,0.0,0.0,0.0,0.0,0.0,0.0,0.0,0.0,0.0,0.0,0.0,0.0,0.0,0.0,0.0,0.0,0.0,0.0,0.0,0.0,-3.444,-3.6389,-3.8088,-3.9595,-4.0844,-4.0941,-4.0769,-4.0389,-3.9448,-3.7978,0.0,0.0,0.0,0.0,0.0,0.0,0.0,0.0,0.0,0.0,0.0,0.0,0.0,0.0,0.0,0.0,0.0,0.0,0.0,0.0,0.0,0.0,0.0,0.0,0.0,0.0,0.0,0.0,-2.9605,-2.9074,-2.779,0.0,0.0,0.0,0.0,0.0,0.0,0.0,0.0,0.0,0.0,-3.5954,-3.8191,-3.7992,-3.7792,-3.8243,-3.8028,-3.7771,-3.7612,-3.6643,-3.6009,-3.623,0.0,0.0,0.0,0.0,0.0,0.0,0.0,0.0,0.0,0.0,0.0,0.0,0.0,0.0,0.0,0.0,0.0,0.0,0.0,0.0,0.0,0.0,0.0,0.0,0.0,0.0,0.0,-3.3669,0.0,0.0,-3.2735,0.0,0.0,0.0,0.0,0.0,0.0,0.0,0.0,0.0,0.0,0.0,0.0,0.0,0.0,0.0,0.0,0.0,0.0,0.0,0.0,0.0,0.0,-3.3914,-3.5324,-3.7487,-3.8962,-3.9721,-3.9847,-3.9915,-3.9851,-3.8556,-3.7167,-3.5692,0.0,0.0,0.0,0.0,0.0,0.0,0.0,0.0,0.0,0.0,0.0,0.0,0.0,0.0,0.0,0.0,0.0,0.0,0.0,0.0,0.0,0.0,0.0,0.0,0.0,0.0,-2.8655,-2.8429,-2.8349,0.0,0.0,0.0,0.0,0.0,0.0,0.0,0.0,0.0,0.0,-3.4341,-3.5609,-3.7797,-3.8076,-3.802,-3.8093,-3.8058,-3.7875,-3.7365,-3.6663,-3.6292,0.0,0.0,0.0,0.0,0.0,0.0,0.0,0.0,0.0,0.0,0.0,0.0,0.0,0.0,0.0,0.0,0.0,0.0,0.0,0.0,0.0,0.0,0.0,0.0,0.0,0.0,0.0,-3.5267,-3.4761,0.0,0.0,0.0,0.0,0.0,0.0,0.0,0.0,0.0,0.0,0.0,-3.5069,-3.5671,0.0,0.0,0.0,0.0,0.0,0.0,0.0,0.0,0.0,0.0,0.0,0.0,-3.366,-3.5101,-3.6766,-3.7997,-3.8809,-3.8889,-3.8693,-3.8316,-3.7841,-3.6412,-3.3904,0.0,0.0,0.0,0.0,0.0,0.0,0.0,0.0,0.0,0.0,0.0,0.0,0.0,0.0,0.0,0.0,0.0,0.0,0.0,0.0,0.0,0.0,0.0,0.0,0.0,-2.9262,0.0,0.0,0.0,0.0,0.0,0.0,0.0,0.0,0.0,0.0,0.0,-3.2546,-3.4038,-3.4747,-3.5767,-3.7537,-3.7283,-3.7102,0.0,0.0,0.0,0.0,0.0,0.0,0.0,0.0,0.0,0.0,0.0,0.0,0.0,0.0,-3.2701,-3.0844,-3.0808,-3.0833,-3.0066,0.0,0.0,0.0,0.0,0.0,0.0,0.0,0.0,0.0,0.0,0.0,0.0,0.0,0.0,-3.6273,0.0,-3.5138,0.0,0.0,0.0,0.0,0.0,0.0,0.0,0.0,-3.5813,-3.6245,-3.6262,-3.6931,-3.6729,0.0,-3.5469,-3.4478,0.0,0.0,0.0,0.0,0.0,0.0,0.0,0.0,-3.3325,-3.4559,-3.6219,-3.7365,-3.79,-3.794,-3.7756,-3.7381,-3.6848,-3.5645,-3.3667,-3.2416,-3.085,0.0,0.0,0.0,0.0,0.0,0.0,0.0,0.0,0.0,0.0,0.0,0.0,0.0,0.0,0.0,0.0,0.0,0.0,0.0,0.0,0.0,0.0,0.0,-2.8764,0.0,0.0,0.0,0.0,0.0,0.0,0.0,0.0,0.0,-3.0763,-3.1777,-3.3066,-3.4544,-3.5052,-3.5731,-3.6976,0.0,0.0,0.0,0.0,0.0,0.0,0.0,-3.6081,-3.6257,-3.568,-3.5154,-3.4942,-3.5101,-3.5206,-3.5223,0.0,0.0,-3.2886,-3.2831,-3.2873,-3.2107,-3.2252,-3.2654,-3.3225,-3.339,-3.3611,0.0,0.0,0.0,0.0,0.0,0.0,0.0,0.0,-3.699,-3.6922,0.0,-3.6301,0.0,0.0,0.0,0.0,0.0,-3.4587,0.0,0.0,-3.6538,-3.7211,-3.727,-3.7461,-3.7535,-3.7468,-3.6716,-3.6028,-3.5283,-3.2846,0.0,0.0,0.0,0.0,0.0,0.0,-3.2983,-3.3751,-3.5902,-3.7063,-3.7046,-3.7063,-3.7046,-3.7035,-3.5685,-3.4955,-3.478,-3.2778,-3.1547,-3.1447,-2.9329,0.0,0.0,0.0,0.0,0.0,0.0,0.0,0.0,0.0,0.0,0.0,0.0,0.0,0.0,0.0,0.0,0.0,0.0,0.0,0.0,-2.7682,0.0,0.0,0.0,0.0,0.0,0.0,0.0,0.0,0.0,0.0,-3.1925,-3.2654,-3.3658,-3.501,0.0,0.0,0.0,0.0,-3.7163,-3.64,-3.6939,-3.7223,-3.6603,-3.6464,-3.6509,-3.6678,0.0,0.0,-3.4684,-3.5117,-3.5516,-3.5531,-3.6031,-3.6018,-3.4041,-3.4358,-3.4676,-3.3932,-3.4355,-3.5045,-3.5202,-3.5088,-3.5261,-4.1263,0.0,0.0,0.0,0.0,-3.8797,-3.8922,-3.9245,-3.8905,-3.8576,-3.8152,-3.7431,0.0,0.0,0.0,0.0,0.0,0.0,-3.6059,-3.6431,-3.6971,-3.7551,-3.8193,-3.8467,-3.8308,-3.7779,-3.7538,-3.7059,-3.634,-3.4582,-3.2914,-3.138,0.0,0.0,0.0,0.0,-3.341,-3.37,-3.5213,-3.6078,-3.6162,-3.6185,-3.6229,-3.6322,-3.582,-3.53,-3.4789,-3.3935,-3.2773,-3.128,-2.9945,0.0,0.0,0.0,0.0,0.0,0.0,0.0,0.0,0.0,0.0,0.0,0.0,0.0,0.0,0.0,0.0,0.0,0.0,0.0,-2.8116,-2.8607,-2.8972,0.0,0.0,0.0,0.0,0.0,0.0,0.0,0.0,0.0,-3.3102,-3.3877,-3.4531,0.0,0.0,-3.5844,-3.6049,-3.6272,-3.6345,-3.6118,-3.6272,0.0,-3.6161,-3.6165,-3.5959,-3.5507,-3.4866,-3.436,-3.425,-3.4406,-3.4525,-3.4525,-3.4696,-3.4646,-3.4224,-3.4765,-3.5089,-3.4529,-3.4531,-3.4763,-3.4853,-3.4925,-3.4995,-4.2782,-4.0815,-4.0174,-4.0102,-4.0383,-4.0251,-4.0228,-4.0325,-3.9961,-3.9534,-3.9015,-3.8209,-3.7553,-3.6937,-3.5746,0.0,0.0,0.0,-3.6917,-3.7562,-3.7662,-3.803,-3.8605,-3.8585,-3.8355,-3.7905,-3.7916,-3.753,-3.6787,-3.5752,-3.4266,-3.2435,0.0,0.0,-3.1498,-3.303,-3.3837,-3.3888,-3.4919,-3.5526,-3.5594,-3.5594,-3.5616,-3.5644,-3.5571,-3.5262,-3.4712,-3.4236,-3.3267,-3.1633,-3.0419,-2.9208,0.0,0.0,0.0,0.0,0.0,0.0,0.0,0.0,0.0,0.0,0.0,-2.4078,-2.5077,0.0,0.0,0.0,-2.7328,-2.7842,-2.8528,-2.8971,0.0,0.0,0.0,0.0,0.0,0.0,0.0,-3.0818,-3.2366,-3.3468,-3.3639,-3.4538,-3.5202,-3.5326,-3.5724,-3.6014,-3.6014,0.0,-3.5895,-3.5621,-3.557,-3.5467,-3.5177,-3.5125,-3.4972,-3.4544,-3.4141,-3.3894,-3.3974,-3.3974,-3.3974,-3.3974,-3.3974,-3.3974,-3.3974,-3.4478,-3.4827,-3.4434,-3.437,-3.4408,-3.4463,-3.4504,-3.4561,-4.4158,-4.2839,-4.2291,-4.1942,-4.1797,-4.1663,-4.1395,-4.1096,-4.0489,-4.0109,-3.9851,-3.884,-3.7965,-3.7229,-3.6222,0.0,-3.6656,-3.714,-3.7727,-3.8371,-3.8401,-3.8446,-3.8566,-3.8109,-3.7863,-3.7783,-3.7828,-3.7492,-3.6793,-3.6307,-3.5453,-3.4145,-3.328,-3.289,-3.2972,-3.3751,-3.4152,-3.4175,-3.49,-3.5245,-3.5245,-3.5245,-3.5175,-3.5065,-3.5058,-3.489,-3.4568,-3.3902,-3.3109,-3.2151,-3.0666,-2.928,-2.8078,0.0,0.0,0.0,0.0,0.0,0.0,0.0,0.0,0.0,0.0,0.0,0.0,0.0,0.0,0.0,-2.7415,0.0,-2.8883,-2.8984,0.0,0.0,0.0,-2.9304,-3.0068,-3.0835,-3.1353,-3.1426,0.0,0.0,-3.3735,-3.4764,-3.5667,-3.591,-3.5954,-3.5975,-3.5975,-3.5885,-3.5651,-3.4981,-3.481,-3.4537,-3.3987,-3.3782,-3.3717,-3.3683,-3.3635,-3.3516,-3.3536,-3.3536,-3.3604,-3.3536,-3.3621,-3.357,-3.3604,-3.3573,-3.3682,-3.3795,-3.397,-3.4059,-3.3973,-3.3984,-3.3973,-4.4952,-4.3701,-4.3554,-4.3148,-4.256,-4.2525,-4.2399,-4.2186,-4.2047,-4.1692,-4.1117,-4.0322,-3.9305,-3.8177,-3.7916,-3.779,-3.7817,-3.7906,-3.7995,-3.805,-3.8196,-3.8066,-3.77,-3.7748,-3.7482,-3.7029,-3.7087,-3.7053,-3.6833,-3.583,-3.5312,-3.5138,-3.3963,-3.3016,-3.2459,-3.3288,-3.376,-3.3737,-3.4582,-3.4947,-3.4851,-3.4739,-3.4667,-3.4659,-3.4546,-3.4162,-3.3518,-3.3121,-3.2289,-3.0985,-2.9888,-2.8981,-2.834,-2.6322,0.0,0.0,0.0,0.0,0.0,0.0,0.0,0.0,0.0,-2.4713,-2.4977,0.0,-2.588,0.0,-2.8163,-2.9087,-2.9267,-2.9882,0.0,0.0,-3.0179,-3.0462,-3.1364,-3.1512,-3.1804,-3.253,-3.3522,-3.4136,-3.4057,-3.4813,-3.5406,-3.5458,-3.56,-3.5689,-3.5694,-3.5186,-3.4796,-3.4597,-3.41,-3.371,-3.3456,-3.2998,-3.2683,-3.2777,-3.2304,-3.1915,-3.2027,-3.2047,-3.2047,-3.2047,-3.2044,-3.2047,-3.2078,-3.2027,-3.2064,-3.219,-3.3031,-3.3682,-3.31,-3.2965,-3.2831,-4.5242,-4.4003,-4.4003,-4.3739,-4.3337,-4.3337,-4.3109,-4.279,-4.279,-4.2255,-4.126,-4.0281,-3.9237,-3.8244,-3.8244,-3.8345,-3.8534,-3.8549,-3.8667,-3.8793,-3.8333,-3.7961,-3.7648,-3.7163,-3.6751,-3.6414,-3.6476,-3.6492,-3.6415,-3.5268,-3.4807,-3.4964,-3.3658,-3.2746,-3.2335,-3.3201,-3.3649,-3.3665,-3.4113,-3.4325,-3.425,-3.4176,-3.4126,-3.4034,-3.3693,-3.323,-3.267,-3.2201,-3.1402,-3.0252,-2.9643,-2.8936,-2.8132,-2.6828,-2.5911,0.0,0.0,0.0,0.0,0.0,0.0,0.0,0.0,0.0,0.0,0.0,-2.6755,-2.7494,-2.8396,-2.9207,-2.9837,-3.0332,-3.0718,-3.1023,-3.099,-3.1181,-3.1736,-3.2036,-3.2321,-3.2568,-3.3548,-3.4164,-3.3997,-3.4569,-3.5041,-3.5105,-3.5228,-3.5327,-3.5391,-3.4824,-3.4273,-3.3946,-3.3288,-3.2701,-3.2493,-3.207,-3.1836,-3.1862,-3.154,-3.1291,-3.1363,-3.1363,-3.1383,-3.1383,-3.1363,-3.1383,-3.1363,-3.1383,-3.1383,-3.1485,-3.2029,-3.2423,-3.2122,-3.2039,-3.1866,-4.5071,-4.391,-4.3895,-4.391,-4.391,-4.3895,-4.36,-4.3122,-4.3107,-4.2363,-4.1043,-3.9722,-3.8762,-3.8152,-3.8152,-3.8451,-3.9061,-3.9061,-3.9379,-3.9849,-3.8652,-3.7982,-3.7846,-3.6669,-3.6001,-3.5957,-3.5941,-3.5973,-3.5928,-3.4775,-3.4163,-3.4118,-3.2962,-3.2342,-3.237,-3.3102,-3.3513,-3.3591,-3.3591,-3.3591,-3.3591,-3.3591,-3.3555,-3.3393,-3.2784,-3.2244,-3.1893,-3.1218,-3.0438,-2.9675,-2.949,-2.8938,-2.7852,-2.7597,-2.7046,0.0,-2.6457,0.0,0.0,0.0,0.0,0.0,0.0,0.0,0.0,-2.7221,-2.766,-2.8475,-2.8678,-2.9236,-3.0449,-3.0584,-3.0799,-3.139,-3.1445,-3.1526,-3.1758,-3.245,-3.2749,-3.2319,-3.3535,-3.4202,-3.3766,-3.424,-3.4667,-3.4739,-3.4763,-3.4859,-3.5005,-3.447,-3.379,-3.3223,-3.2475,-3.1793,-3.1401,-3.1219,-3.1205,-3.1188,-3.1224,-3.119,-3.121,-3.121,-3.119,-3.119,-3.121,-3.121,-3.119,-3.119,-3.119,-3.121,-3.1295,-3.1331,-3.1342,-3.1361,-3.1254,-4.4168,-4.3423,-4.3423,-4.3409,-4.3463,-4.3423,-4.3585,-4.379,-4.3805,-4.3047,-4.1711,-4.0405,-3.9632,-3.939,-3.934,-3.9344,-3.9337,-3.9316,-3.9412,-3.9451,-3.8692,-3.8032,-3.7492,-3.6742,-3.6112,-3.5617,-3.5718,-3.5752,-3.5737,-3.4592,-3.4045,-3.3999,-3.272,-3.2094,-3.2066,0.0,0.0,0.0,-3.2964,-3.2949,-3.2964,-3.3027,-3.3032,-3.2989,-3.23,0.0,-3.0923,-3.0229,-2.9496,-2.874,-2.8645,0.0,0.0,0.0,0.0,0.0,0.0,0.0,0.0,0.0,0.0,0.0,-2.7628,-2.7518,-2.6936,-2.78,-2.8693,-2.9405,-3.0082,-3.0611,-3.0863,-3.0961,-3.1042,-3.1169,-3.1184,-3.1406,-3.2026,-3.2289,-3.2546,-3.3176,-3.3601,-3.3866,-3.3847,-3.4086,-3.4226,-3.4267,-3.425,-3.4275,-3.4308,-3.369,-3.3145,-3.2906,-3.1918,-3.1133,-3.0969,-3.0995,-3.1032,-3.1055,-3.1131,-3.119,-3.1171,-3.119,-3.119,-3.119,-3.119,-3.119,-3.119,-3.119,-3.119,-3.119,-3.119,-3.119,-3.1193,-3.123,-3.121,-4.3902,0.0,-4.3305,-4.3305,0.0,-4.3305,-4.3283,-4.3217,-4.3217,-4.2477,-4.1143,-4.0148,-3.9625,-3.9553,-3.9553,-3.9481,-3.9388,-3.9388,-3.923,-3.8886,-3.8212,-3.7554,-3.6941,-3.6297,-3.5818,-3.5519,-3.5572,-3.5424,-3.508,-3.4195,-3.3578,-3.3231,-3.2236,-3.1769,-3.1769,-3.1741,-3.1981,-3.2398,-3.2398,-3.241,-3.2382,-3.2428,-3.2471,-3.2523,-3.155,0.0,0.0,0.0,0.0,0.0,0.0,0.0,0.0,0.0,0.0,-2.7888,-2.7541,-2.7365,-2.7435,-2.7404,-2.7696,-2.8367,-2.9012,-2.9138,-2.8597,-2.9177,-2.9695,-3.002,-3.0442,-3.0835,-3.1171,-3.1239,-3.1374,-3.1685,-3.1748,-3.1945,-3.231,-3.2388,-3.2609,-3.3082,-3.3282,-3.3361,-3.3477,-3.3555,-3.3633,-3.371,-3.371,-3.3694,-3.3649,-3.3291,-3.2804,-3.2144,-3.1255,-3.0671,-3.0773,-3.0814,-3.0875,-3.0952,-3.1012,-3.1052,-3.1052,-3.1052,-3.1072,-3.1092,-3.1095,-3.1112,-3.1171,-3.119,-3.119,-3.119,-3.119,-3.119,-3.119,-3.119,-3.119,-4.3783,-4.3305,-4.3305,-4.3305,-4.329,-4.3155,-4.2716,-4.2051,0.0,0.0,0.0,-3.9709,-3.9388,-3.9388,-3.9388,-3.9388,-3.9388,-3.9388,-3.905,-3.8362,-3.7719,-3.7075,-3.6462,-3.5818,-3.5489,-3.5489,-3.5385,-3.5026,-3.4488,-3.3694,-3.3051,-3.2467,-3.1824,-3.1496,-3.1496,-3.1496,-3.1655,-3.1912,-3.1925,-3.1968,-3.1968,-3.1981,-3.2038,-3.2163,-3.0987,-3.0352,-3.0308,-2.9152,-2.8446,-2.8339,-2.8348,-2.8372,-2.8372,-2.8372,-2.8411,-2.8411,-2.8519,-2.8581,-2.8581,-2.8664,-2.8993,-2.9643,-3.017,-3.0519,-3.0571,-3.0571,-3.0617,-3.074,-3.074,-3.0971,-3.1505,-3.1567,-3.1782,-3.2351,-3.2398,-3.2437,-3.2551,-3.2551,-3.2617,-3.2773,-3.2843,-3.2897,-3.2989,-3.3069,-3.3096,-3.3203,-3.3256,-3.3229,-3.3198,-3.2926,-3.2303,-3.1336,-3.0642,-3.0288,-3.0468,-3.0547,-3.0609,-3.0671,-3.0753,-3.0794,-3.0794,-3.0831,-3.0892,-3.0952,-3.0955,-3.1032,-3.1128,-3.1131,-3.1151,-3.1134,-3.1131,-3.1151,-3.1154,-3.1171,-3.1171,-4.3379,-4.3305,-4.3305,-4.3305,-4.326,-4.2731,-4.1841,-4.0696,-4.0681,-4.0576,-4.0352,-3.9694,-3.9388,-3.9388,-3.9388,-3.9388,-3.9388,-3.9388,-3.905,-3.8362,-3.7719,-3.709,-3.6462,-3.5818,-3.5489,-3.5459,-3.4921,-3.4608,-3.4384,-3.3245,-3.2572,-3.2437,-3.1839,-3.1496,-3.1496,-3.1496,-3.1539,-3.1568,-3.1756,-3.1813,-3.1813,-3.194,-3.2025,-3.1994,-3.128,-3.0612,-3.0076,-2.9331,-2.8647,-2.81,-2.8177,-2.821,-2.8235,-2.8378,-2.8411,-2.8442,-2.8925,-2.9273,-2.9264,-2.9695,-3.0193,-3.0727,-3.0867,-3.1021,-3.1217,-3.1285,-3.149,-3.2028,-3.2059,-3.2151,-3.2244,-3.2228,-3.2259,-3.2367,-3.2398,-3.2425,-3.2453,-3.2425,-3.2453,-3.2496,-3.2578,-3.2648,-3.2703,-3.2812,-3.2924,-3.2951,-3.2935,-3.2951,-3.2844,-3.2279,-3.1582,-3.0879,-3.0257,-2.9924,-2.9962,-3.0044,-3.0108,-3.0124,-3.0284,-3.0372,-3.0393,-3.0551,-3.0671,-3.0733,-3.081,-3.0892,-3.0932,-3.0952,-3.0932,-3.0932,-3.0915,-3.0952,-3.1012,-3.1032,-3.1055,-4.3305,-4.3245,-4.2955,-4.2806,-4.2731,-4.1728,-4.095,-4.0367,-4.0008,-3.9873,-3.9828,-3.9544,-3.9388,-3.9388,-3.9388,-3.9388,-3.9409,-3.9035,-3.8497,-3.7823,-3.7195,-3.6582,-3.5968,-3.5639,-3.5489,-3.5459,-3.4833,-3.4324,-3.3904,-3.2976,-3.2332,-3.1959,-3.1645,-3.1496,-3.1496,-3.1496,-3.1496,-3.1496,-3.1597,-3.1641,-3.1641,-3.1712,-3.1769,-3.1898,-3.1205,-3.0761,-3.0555,-2.9902,-2.9401,-2.9113,-2.9134,-2.9185,-2.9185,-2.9236,-2.9276,-2.9276,-2.9551,-2.9719,-2.9719,-3.0293,-3.0757,-3.098,-3.1344,-3.1582,-3.172,-3.1787,-3.1992,-3.2367,-3.2398,-3.2398,-3.2398,-3.2398,-3.2398,-3.2398,-3.2398,-3.2398,-3.2398,-3.2398,-3.2398,-3.2398,-3.2453,-3.248,-3.2496,-3.2594,-3.2621,-3.2648,-3.2633,-3.2621,-3.2617,-3.2034,-3.1423,-3.0885,-3.002,-2.9466,-2.9499,-2.956,-2.9649,-2.9744,-2.9837,-2.9946,-3.0011,-3.0156,-3.0236,-3.0316,-3.038,-3.0443,-3.0485,-3.0506,-3.0526,-3.0593,-3.0651,-3.0712,-3.0814,-3.0912,-3.1012,-4.312,-4.306,-4.2417,-4.2081,-4.1871,-4.0846,-4.0322,-4.0127,-3.9634,-3.9388,-3.9388,-3.9388,-3.9388,-3.9388,-3.9388,-3.9298,-3.9125,-3.8631,-3.7958,-3.7195,-3.6701,-3.6148,-3.5549,-3.5489,-3.5489,-3.54,-3.4651,-3.3993,-3.3455,-3.2691,-3.2004,-3.154,-3.1496,-3.1496,-3.1496,-3.1496,-3.1496,-3.1496,-3.1496,-3.1496,-3.1496,-3.1496,-3.1568,-3.1697,-3.1172,-3.0882,-3.087,-3.0371,-3.0038,-2.9902,-2.9928,-2.9955,-2.9955,-2.9982,-2.9993,-3.0008,-3.0145,-3.0296,-3.041,-3.0879,-3.1167,-3.1112,-3.1581,-3.1912,-3.1968,-3.2038,-3.2163,-3.2287,-3.2342,-3.2342,-3.2342,-3.2398,-3.2398,-3.2398,-3.2398,-3.2398,-3.2398,-3.2398,-3.2398,-3.2398,-3.2398,-3.2398,-3.2398,-3.2398,-3.2425,-3.2425,-3.2398,-3.2398,-3.2348,-3.1817,-3.1218,-3.0766,-2.9844,-2.9179,-2.9208,-2.9167,-2.9259,-2.9387,-2.9432,-2.9461,-2.9572,-2.9617,-2.9722,-2.9842,-2.9886,-2.9935,-3.0,-3.006,-3.0087,-3.014,-3.0241,-3.0384,-3.0547,-3.0749,-3.0912,-4.2485,-4.2396,-4.1796,-4.1115,-4.0606,-4.0442,-4.0053,-3.9523,-3.9439,-3.9388,-3.9388,-3.9388,-3.9388,-3.9388,-3.9373,-3.9065,-3.8527,-3.8422,-3.7719,-3.6671,-3.6522,-3.6133,-3.5534,-3.5489,-3.5489,-3.534,-3.4233,-3.3604,-3.3425,-3.2228,-3.157,-3.1511,-3.1496,-3.1496,-3.1496,-3.1496,-3.1496,-3.1496,-3.1496,-3.1496,-3.1496,-3.1496,-3.1496,-3.1539,-3.148,-3.1135,-3.0638,-3.0475,-3.0218,-2.9708,-2.9801,-2.984,-2.9867,-2.9944,-3.0023,-3.0054,-3.057,-3.1107,-3.157,-3.1707,-3.1635,-3.1478,-3.1523,-3.1671,-3.1814,-3.1843,-3.1913,-3.2085,-3.2181,-3.2219,-3.2219,-3.2315,-3.237,-3.237,-3.237,-3.2398,-3.2398,-3.2398,-3.2398,-3.2398,-3.2398,-3.2398,-3.2398,-3.2398,-3.2398,-3.2398,-3.2398,-3.2398,-3.2305,-3.1443,-3.0685,-3.0485,-2.9977,-2.9465,-2.9037,-2.8865,-2.8897,-2.8897,-2.8936,-2.9013,-2.909,-2.9205,-2.9357,-2.9396,-2.9464,-2.9515,-2.956,-2.9611,-2.9655,-2.9683,-2.9793,-2.9946,-3.0194,-3.0464,-3.0733,-4.1811,-4.1767,-4.107,-4.0412,-3.9858,-3.9813,-3.9679,-3.9403,-3.9388,-3.9388,-3.9388,-3.9388,-3.9388,-3.9358,-3.9005,-3.8646,-3.8382,-3.7614,-3.7,-3.6495,-3.6088,-3.5759,-3.5519,-3.5489,-3.5489,-3.5385,-3.4128,-3.3499,-3.3275,-3.2138,-3.1496,-3.1496,-3.1496,-3.1496,-3.1496,-3.1496,-3.1496,-3.1496,-3.1496,-3.1496,-3.1496,-3.1496,-3.1496,-3.1496,-3.1496,-3.1391,-3.1122,-3.1077,-3.0972,-3.0761,-3.076,-3.0803,-3.0803,-3.0844,-3.09,-3.093,-3.1155,-3.1398,-3.1611,-3.1626,-3.1597,-3.1496,-3.1869,-3.2152,-3.2212,-3.2571,-3.2826,-3.281,-3.241,-3.2066,-3.2109,-3.2122,-3.2163,-3.2163,-3.2163,-3.2191,-3.2274,-3.2287,-3.2302,-3.2398,-3.2398,-3.2398,-3.2398,-3.2398,-3.2398,-3.2398,-3.2398,-3.2398,-3.2336,-3.1582,-3.0905,-3.0443,-2.9934,-2.933,-2.8735,-2.858,-2.8604,-2.866,-2.8692,-2.8724,-2.8834,-2.892,-2.9014,-2.8998,-2.9068,-2.9091,-2.9068,-2.9114,-2.9144,-2.922,-2.947,-2.9677,-2.9935,-3.013,-3.0338,-4.1115,-4.101,-4.0412,-3.9858,-3.9403,-3.9388,-3.9388,-3.9388,-3.9388,-3.9388,-3.9388,-3.9388,-3.9269,-3.908,-3.8601,-3.8227,-3.7778,-3.6944,-3.6372,-3.6193,-3.5714,-3.5489,-3.5489,-3.5489,-3.5489,-3.528,-3.4143,-3.332,-3.2901,-3.2034,-3.1496,-3.1496,-3.1496,-3.1496,-3.1496,-3.1496,-3.1496,-3.1496,-3.1496,-3.1496,-3.1496,-3.1496,-3.1496,-3.1496,-3.1496,-3.1496,-3.1496,-3.1496,-3.1496,-3.1496,-3.1496,-3.1496,-3.1496,-3.1496,-3.1496,-3.1496,-3.1496,-3.1496,-3.1496,-3.166,-3.178,-3.1824,-3.2378,-3.2781,-3.2826,-3.323,-3.3484,-3.3425,-3.284,-3.2412,-3.2213,-3.2241,-3.2209,-3.2042,-3.2012,-3.2053,-3.2107,-3.2163,-3.2247,-3.2315,-3.237,-3.2398,-3.2398,-3.2398,-3.2398,-3.2398,-3.2398,-3.2398,-3.2259,-3.1674,-3.0905,-3.0432,-2.972,-2.8996,-2.8504,-2.8436,-2.8484,-2.8493,-2.8549,-2.8589,-2.8676,-2.8676,-2.87,-2.8708,-2.8684,-2.87,-2.8732,-2.8732,-2.8803,-2.8912,-2.9129,-2.9403,-2.9538,-2.9716,-2.9892,-4.0442,-4.0352,-3.9738,-3.9469,-3.9388,-3.9388,-3.9388,-3.9388,-3.9388,-3.9388,-3.9388,-3.9343,-3.905,-3.8437,-3.8317,-3.7719,-3.6716,-3.6507,-3.6118,-3.5624,-3.5534,-3.5489,-3.5489,-3.5489,-3.5489,-3.54,-3.4218,-3.2961,-3.1795,-3.1555,-3.1496,-3.1496,-3.1496,-3.1496,-3.1496,-3.1496,-3.1496,-3.1496,-3.1496,-3.1496,-3.1496,-3.1496,-3.1496,-3.1496,-3.1496,-3.1496,-3.1496,-3.1496,-3.1496,-3.1496,-3.1496,-3.1496,-3.1496,-3.1496,-3.1496,-3.1496,-3.1496,-3.1496,-3.157,-3.2049,-3.2392,-3.2527,-3.3066,-3.3455,-3.3469,-3.3604,-3.3694,-3.3559,-3.356,-3.3291,-3.2839,-3.276,-3.2605,-3.2105,-3.1983,-3.1996,-3.1981,-3.2094,-3.2191,-3.2219,-3.233,-3.237,-3.2398,-3.2398,-3.2398,-3.2398,-3.2398,-3.2398,-3.2228,-3.1309,-3.0586,-3.0186,-2.9402,-2.8442,-2.8411,-2.8411,-2.8411,-2.8444,-2.8444,-2.8436,-2.8436,-2.8436,-2.842,-2.8444,-2.8468,-2.8468,-2.8444,-2.8517,-2.8636,-2.8763,-2.8826,-2.9036,-2.9198,-2.938,-2.9538,-3.9768,-3.9753,-3.9478,-3.9388,-3.9388,-3.9388,-3.9388,-3.9388,-3.9388,-3.9388,-3.9334,-3.896,-3.8392,-3.7749,-3.7345,-3.6959,-3.6447,-3.6058,-3.5729,-3.5504,-3.5489,-3.5489,-3.5489,-3.5489,-3.5489,-3.5355,-3.4562,-3.3455,-3.2228,-3.172,-3.1496,-3.1496,-3.1496,-3.1496,-3.1496,-3.1496,-3.1496,-3.1496,-3.1496,-3.1496,-3.1496,-3.1496,-3.1496,-3.1496,-3.1496,-3.1496,-3.1496,-3.1496,-3.1496,-3.1496,-3.1496,-3.1496,-3.1496,-3.1496,-3.1496,-3.1496,-3.1496,-3.1496,-3.157,-3.2123,-3.2497,-3.2572,-3.3529,-3.4144,-3.4203,-3.4517,-3.4786,-3.4771,-3.4771,-3.4503,-3.3861,-3.3186,-3.26,-3.233,-3.1968,-3.1771,-3.1826,-3.1912,-3.1968,-3.2066,-3.2191,-3.2259,-3.2302,-3.2342,-3.2398,-3.2398,-3.2398,-3.2398,-3.2198,-3.1259,-3.0402,-3.0186,-2.9319,-2.8411,-2.8411,-2.8411,-2.8411,-2.8411,-2.8411,-2.8436,-2.8411,-2.8411,-2.842,-2.842,-2.8411,-2.8411,-2.842,-2.8444,-2.8541,-2.8636,-2.87,-2.8771,-2.8858,-2.9075,-2.922,-3.9388,-3.9388,-3.9388,-3.9388,-3.9388,-3.9388,-3.9388,-3.9388,-3.9388,-3.9388,-3.9254,-3.8691,-3.8018,-3.7375,-3.6795,-3.6357,-3.6148,-3.5699,-3.5489,-3.5489,-3.5489,-3.5489,-3.5489,-3.5489,-3.5489,-3.54,-3.4816,-3.3799,-3.2572,-3.2049,-3.1735,-3.1525,-3.1496,-3.1496,-3.1496,-3.1496,-3.1496,-3.1496,-3.1496,-3.1496,-3.1496,-3.1496,-3.1496,-3.1496,-3.1496,-3.1496,-3.1496,-3.1496,-3.1496,-3.1496,-3.1496,-3.1496,-3.1496,-3.1496,-3.1496,-3.1496,-3.1496,-3.1496,-3.1615,-3.2332,-3.2841,-3.2901,-3.4023,-3.4816,-3.4846,-3.5235,-3.5459,-3.5489,-3.5489,-3.5265,-3.4756,-3.3814,-3.308,-3.2811,-3.2213,-3.1898,-3.1984,-3.1891,-3.19,-3.1996,-3.2066,-3.2122,-3.215,-3.2234,-3.2247,-3.2259,-3.2274,-3.2274,-3.2121,-3.1198,-3.0334,-3.0227,-2.9208,-2.855,-2.8411,-2.8411,-2.8411,-2.8411,-2.8411,-2.8411,-2.8411,-2.8411,-2.8411,-2.8411,-2.8411,-2.8411,-2.8411,-2.8411,-2.846,-2.8541,-2.8565,-2.8597,-2.8692,-2.8811,-2.8959,-3.9388,-3.9388,-3.9388,-3.9388,-3.9388,-3.9388,-3.9388,-3.9388,-3.9388,-3.9388,-3.9298,-3.8691,-3.8018,-3.7375,-3.6776,-3.6148,-3.5654,-3.5534,-3.5489,-3.5489,-3.5489,-3.5489,-3.5489,-3.5489,-3.5489,-3.5459,-3.4833,-3.3844,-3.2736,-3.2542,-3.2198,-3.1645,-3.16,-3.1585,-3.1496,-3.1496,-3.1496,-3.1496,-3.1496,-3.1496,-3.1496,-3.1496,-3.1496,-3.1496,-3.1496,-3.1496,-3.1496,-3.1496,-3.1496,-3.1496,-3.1496,-3.1496,-3.1496,-3.1496,-3.1496,-3.1496,-3.1496,-3.1496,-3.163,-3.2706,-3.3395,-3.3559,-3.4696,-3.5385,-3.5385,-3.5459,-3.5489,-3.5489,-3.5489,-3.5444,-3.534,-3.4801,-3.4174,-3.3559,-3.2916,-3.2542,-3.2377,-3.2074,-3.1841,-3.194,-3.1996,-3.1996,-3.1981,-3.201,-3.2066,-3.2053,-3.2053,-3.2053,-3.199,-3.1097,-3.0372,-3.0,-2.9301,-2.8639,-2.8495,-2.8411,-2.8411,-2.8411,-2.8411,-2.8411,-2.8411,-2.8411,-2.8411,-2.8411,-2.8411,-2.8411,-2.8411,-2.8411,-2.8411,-2.846,-2.8444,-2.8468,-2.8565,-2.8668,-2.8763,-3.9388,-3.9388,-3.9388,-3.9388,-3.9388,-3.9388,-3.9388,-3.9388,-3.9388,-3.9388,-3.9254,-3.8691,-3.8033,-3.7389,-3.6761,-3.6133,-3.5534,-3.5489,-3.5504,-3.5519,-3.5504,-3.5489,-3.5489,-3.5489,-3.5489,-3.5385,-3.4801,-3.4324,-3.3844,-3.3395,-3.2871,-3.2332,-3.2213,-3.1929,-3.154,-3.1496,-3.1496,-3.1496,-3.1496,-3.1496,-3.1496,-3.1496,-3.1496,-3.1496,-3.1496,-3.1496,-3.1496,-3.1496,-3.1496,-3.1496,-3.1496,-3.1496,-3.1496,-3.1496,-3.1496,-3.1496,-3.1496,-3.1496,-3.166,-3.2721,-3.3499,-3.3739,-3.4741,-3.54,-3.5489,-3.5489,-3.5489,-3.5489,-3.5489,-3.5489,-3.5459,-3.534,-3.4861,-3.4233,-3.3589,-3.2991,-3.2512,-3.1958,-3.1657,-3.1683,-3.1784,-3.1841,-3.187,-3.1927,-3.1968,-3.1968,-3.1968,-3.1983,-3.1845,-3.125,-3.0532,-3.0103,-2.9353,-2.875,-2.859,-2.8455,-2.8372,-2.8411,-2.8411,-2.8411,-2.8411,-2.8411,-2.8411,-2.8411,-2.8411,-2.8411,-2.8411,-2.8411,-2.8411,-2.8411,-2.8436,-2.8444,-2.8468,-2.8541,-2.8621,-3.9388,-3.9388,-3.9388,-3.9388,-3.9388,-3.9388,-3.9388,-3.9388,-3.9388,-3.9388,-3.9254,-3.8691,-3.8167,-3.7704,-3.7105,-3.6626,-3.6207,-3.5983,-3.5878,-3.5818,-3.5579,-3.5504,-3.5489,-3.5489,-3.5489,-3.5429,-3.507,-3.4743,-3.4488,-3.4084,-3.3529,-3.2976,-3.2886,-3.2527,-3.1929,-3.1854,-3.1795,-3.1555,-3.1496,-3.1496,-3.1496,-3.1496,-3.1496,-3.1496,-3.1496,-3.1496,-3.1496,-3.1496,-3.1496,-3.1496,-3.1496,-3.1496,-3.1496,-3.1496,-3.1496,-3.1496,-3.1525,-3.16,-3.1914,-3.2886,-3.3634,-3.3978,-3.4876,-3.5474,-3.5489,-3.5489,-3.5489,-3.5489,-3.5489,-3.5489,-3.5489,-3.5489,-3.528,-3.4921,-3.4247,-3.3484,-3.2677,-3.1899,-3.1555,-3.1524,-3.1626,-3.167,-3.1727,-3.1756,-3.1811,-3.1811,-3.1826,-3.1826,-3.169,-3.125,-3.0719,-3.0182,-2.9529,-2.9027,-2.8685,-2.8504,-2.8378,-2.8372,-2.8411,-2.8411,-2.8411,-2.8411,-2.8411,-2.8411,-2.8411,-2.8411,-2.8411,-2.8411,-2.8411,-2.8411,-2.8411,-2.8436,-2.8444,-2.8444,-2.8517,-3.9388,-3.9388,-3.9388,-3.9388,-3.9388,-3.9388,-3.9388,-3.9388,-3.9388,-3.9388,-3.9239,-3.8811,-3.8437,-3.8242,-3.7704,-3.7389,-3.7285,-3.6791,-3.6522,-3.6357,-3.5953,-3.5609,-3.5519,-3.5489,-3.5489,-3.5489,-3.5459,-3.513,-3.4698,-3.4608,-3.4219,-3.3604,-3.3529,-3.3215,-3.2691,-3.2542,-3.2228,-3.1735,-3.1615,-3.1615,-3.1525,-3.1496,-3.1496,-3.1496,-3.1496,-3.154,-3.1645,-3.175,-3.1675,-3.1525,-3.1496,-3.1496,-3.1496,-3.1496,-3.1496,-3.1511,-3.1525,-3.1899,-3.2452,-3.3215,-3.3844,-3.4399,-3.5026,-3.5489,-3.5489,-3.5489,-3.5489,-3.5489,-3.5489,-3.5489,-3.5489,-3.5489,-3.5459,-3.5415,-3.4666,-3.3754,-3.2751,-3.1959,-3.1555,-3.1496,-3.1496,-3.1496,-3.1524,-3.1524,-3.1524,-3.1524,-3.1524,-3.1568,-3.1507,-3.1204,-3.0839,-3.0322,-2.9796,-2.9366,-2.9002,-2.8777,-2.8621,-2.8372,-2.8411,-2.8442,-2.8411,-2.8411,-2.8411,-2.8411,-2.8411,-2.8411,-2.8411,-2.8411,-2.8411,-2.8411,-2.8411,-2.8411,-2.8436,-2.8436,-2.8475,-3.9388,-3.9388,-3.9388,-3.9388,-3.9388,-3.9388,-3.9388,-3.9388,-3.9388,-3.9388,-3.9313,-3.923,-3.8856,-3.8392,-3.8227,-3.7883,-3.7524,-3.7255,-3.7165,-3.706,-3.6522,-3.5938,-3.5579,-3.5489,-3.5489,-3.5489,-3.5489,-3.5415,-3.5235,-3.5175,-3.4846,-3.4233,-3.4249,-3.3903,-3.335,-3.3245,-3.2886,-3.2318,-3.2228,-3.1989,-3.1615,-3.157,-3.1496,-3.1496,-3.154,-3.178,-3.2228,-3.2721,-3.2437,-3.157,-3.1496,-3.1496,-3.1585,-3.1585,-3.1615,-3.1675,-3.2004,-3.2303,-3.2706,-3.3559,-3.4279,-3.4487,-3.513,-3.5489,-3.5489,-3.5489,-3.5489,-3.5489,-3.5489,-3.5489,-3.5489,-3.5489,-3.5489,-3.5355,-3.4562,-3.3679,-3.314,-3.2213,-3.1496,-3.1496,-3.1496,-3.1496,-3.1496,-3.1496,-3.1496,-3.1496,-3.1496,-3.1496,-3.1421,-3.139,-3.1102,-3.0726,-3.0238,-2.9739,-2.9366,-2.9129,-2.8832,-2.8495,-2.8427,-2.8488,-2.8442,-2.8411,-2.8411,-2.8411,-2.8411,-2.8411,-2.8411,-2.8411,-2.8411,-2.8411,-2.8411,-2.8411,-2.8411,-2.8427,-2.8488,-3.9388,-3.9388,-3.9388,-3.9388,-3.9388,-3.9388,-3.9388,-3.9388,-3.9388,-3.9388,-3.9388,-3.9388,-3.92,-3.8841,-3.8811,-3.8631,-3.8242,-3.7943,-3.7823,-3.7719,-3.7165,-3.6387,-3.5714,-3.5489,-3.5489,-3.5489,-3.5489,-3.5489,-3.5474,-3.5489,-3.5265,-3.4981,-3.4921,-3.4562,-3.3948,-3.3888,-3.3589,-3.3051,-3.2931,-3.2706,-3.2363,-3.2333,-3.2333,-3.2333,-3.2333,-3.2542,-3.2946,-3.329,-3.311,-3.2512,-3.2333,-3.2333,-3.2333,-3.2333,-3.2362,-3.2377,-3.2751,-3.3036,-3.341,-3.4129,-3.4608,-3.4891,-3.534,-3.5444,-3.5489,-3.5489,-3.5489,-3.5489,-3.5489,-3.5489,-3.5489,-3.5489,-3.5489,-3.5385,-3.4532,-3.3845,-3.3529,-3.2303,-3.1615,-3.1496,-3.1496,-3.1496,-3.1496,-3.1496,-3.1496,-3.1496,-3.1496,-3.1496,-3.1481,-3.1481,-3.1406,-3.1031,-3.0683,-3.0208,-2.9932,-2.9716,-2.9546,-2.9143,-2.9042,-2.8981,-2.8658,-2.8581,-2.8427,-2.8442,-2.8427,-2.8411,-2.8411,-2.8411,-2.8411,-2.8411,-2.8411,-2.8442,-2.8458,-2.8787,-2.8827,-3.9388,-3.9388,-3.9388,-3.9388,-3.9388,-3.9388,-3.9388,-3.9388,-3.9388,-3.9388,-3.9388,-3.9388,-3.9343,-3.9388,-3.9254,-3.9328,-3.9284,-3.8736,-3.8452,-3.8197,-3.7719,-3.6941,-3.5998,-3.5774,-3.5639,-3.5534,-3.5489,-3.5489,-3.5489,-3.5489,-3.5489,-3.5385,-3.5429,-3.5175,-3.4696,-3.4608,-3.4233,-3.3724,-3.3604,-3.3469,-3.329,-3.326,-3.323,-3.326,-3.344,-3.3484,-3.3604,-3.3739,-3.3739,-3.3709,-3.3589,-3.3365,-3.341,-3.3455,-3.3425,-3.341,-3.3484,-3.3829,-3.4354,-3.4518,-3.4878,-3.5325,-3.5444,-3.5489,-3.5489,-3.5489,-3.5489,-3.5489,-3.5489,-3.5489,-3.5489,-3.5489,-3.5489,-3.5385,-3.4846,-3.4249,-3.3544,-3.2407,-3.1585,-3.1496,-3.1496,-3.1496,-3.1496,-3.1496,-3.1496,-3.1496,-3.1496,-3.1496,-3.1496,-3.1496,-3.1481,-3.1391,-3.1031,-3.0698,-3.0491,-3.0325,-3.0179,-2.9996,-2.9945,-2.9771,-2.9141,-2.8895,-2.8587,-2.8473,-2.8427,-2.8411,-2.8411,-2.8411,-2.8458,-2.8504,-2.8581,-2.8581,-2.8627,-2.9233,-2.9479,-3.9388,-3.9388,-3.9388,-3.9388,-3.9388,-3.9388,-3.9388,-3.9388,-3.9388,-3.9388,-3.9388,-3.9388,-3.9388,-3.9388,-3.9388,-3.9388,-3.9388,-3.9185,-3.8931,-3.8377,-3.8287,-3.7749,-3.6985,-3.6552,-3.6013,-3.5684,-3.5504,-3.5504,-3.5519,-3.5489,-3.5489,-3.5489,-3.5489,-3.5429,-3.528,-3.5175,-3.4951,-3.4382,-3.4309,-3.4023,-3.3679,-3.3634,-3.3634,-3.3649,-3.4054,-3.4279,-3.4397,-3.4801,-3.5055,-3.4831,-3.4143,-3.3679,-3.3664,-3.3619,-3.3649,-3.3754,-3.4053,-3.4384,-3.4578,-3.4966,-3.531,-3.5444,-3.5489,-3.5489,-3.5489,-3.5489,-3.5489,-3.5489,-3.5489,-3.5489,-3.5489,-3.5489,-3.5489,-3.537,-3.4951,-3.4488,-3.4083,-3.308,-3.2108,-3.169,-3.1525,-3.1496,-3.1496,-3.1496,-3.1496,-3.1496,-3.1496,-3.1496,-3.1496,-3.1496,-3.1496,-3.1496,-3.1346,-3.1029,-3.0902,-3.0827,-3.0864,-3.0796,-3.0795,-3.0586,-2.9956,-2.9525,-2.9335,-2.8904,-2.8411,-2.8488,-2.8827,-2.8658,-2.875,-2.8765,-2.8849,-2.9033,-2.9325,-2.9833,-3.0171,-3.9388,-3.9388,-3.9388,-3.9388,-3.9388,-3.9388,-3.9388,-3.9388,-3.9388,-3.9388,-3.9388,-3.9388,-3.9388,-3.9388,-3.9388,-3.9388,-3.9388,-3.9388,-3.923,-3.8931,-3.8856,-3.8497,-3.7958,-3.7479,-3.6941,-3.6118,-3.5983,-3.5848,-3.5594,-3.5519,-3.5489,-3.5489,-3.5489,-3.5489,-3.5489,-3.5489,-3.531,-3.5055,-3.4951,-3.4756,-3.4487,-3.4442,-3.4442,-3.4457,-3.4771,-3.4966,-3.5011,-3.5265,-3.5459,-3.5325,-3.4831,-3.4427,-3.4427,-3.4442,-3.4427,-3.4517,-3.4711,-3.4951,-3.51,-3.5265,-3.5474,-3.5489,-3.5489,-3.5489,-3.5489,-3.5489,-3.5489,-3.5489,-3.5489,-3.5489,-3.5489,-3.5489,-3.5489,-3.5459,-3.519,-3.4846,-3.4367,-3.332,-3.2422,-3.1959,-3.1705,-3.157,-3.1496,-3.1496,-3.1496,-3.1496,-3.1496,-3.1496,-3.1496,-3.1496,-3.1496,-3.1496,-3.1496,-3.1375,-3.1236,-3.1298,-3.153,-3.1558,-3.1647,-3.1336,-3.0859,-3.0489,-3.0197,-2.9673,-2.9166,-2.9381,-2.9587,-2.9366,-2.9258,-2.951,-2.9725,-2.9817,-3.0033,-3.0489,-3.0766,-3.9388,-3.9388,-3.9388,-3.9388,-3.9388,-3.9388,-3.9388,-3.9388,-3.9388,-3.9388,-3.9388,-3.9388,-3.9388,-3.9388,-3.9388,-3.9388,-3.9388,-3.9388,-3.9298,-3.9284,-3.9269,-3.902,-3.8601,-3.8392,-3.7928,-3.6866,-3.6671,-3.6312,-3.5863,-3.5639,-3.5669,-3.5549,-3.5489,-3.5489,-3.5489,-3.5489,-3.5459,-3.5385,-3.5385,-3.5385,-3.534,-3.534,-3.534,-3.534,-3.5355,-3.54,-3.5385,-3.5474,-3.5489,-3.5489,-3.5489,-3.5489,-3.5489,-3.5489,-3.5489,-3.5444,-3.54,-3.5385,-3.537,-3.5459,-3.5489,-3.5489,-3.5489,-3.5489,-3.5489,-3.5489,-3.5489,-3.5489,-3.5489,-3.5489,-3.5489,-3.5489,-3.5489,-3.5489,-3.5489,-3.522,-3.4607,-3.3529,-3.2961,-3.2392,-3.2064,-3.1839,-3.16,-3.1496,-3.1496,-3.1496,-3.1496,-3.1496,-3.1496,-3.1496,-3.1496,-3.1496,-3.1496,-3.164,-3.1545,-3.1554,-3.182,-3.1999,-3.2167,-3.1921,-3.1582,-3.1428,-3.1059,-3.0448,-3.014,-3.0248,-3.0217,-2.9986,-3.0048,-3.0386,-3.0509,-3.0551,-3.0797,-3.1136,-3.132,-3.9388,-3.9388,-3.9388,-3.9388,-3.9388,-3.9388,-3.9388,-3.9388,-3.9388,-3.9388,-3.9388,-3.9388,-3.9388,-3.9388,-3.9388,-3.9388,-3.9388,-3.9388,-3.9388,-3.9388,-3.9388,-3.9224,-3.92,-3.9095,-3.8706,-3.8108,-3.7584,-3.7015,-3.6462,-3.6297,-3.6058,-3.5639,-3.5564,-3.5564,-3.5519,-3.5489,-3.5489,-3.5489,-3.5489,-3.5489,-3.5489,-3.5489,-3.5489,-3.5489,-3.5489,-3.5489,-3.5489,-3.5489,-3.5489,-3.5489,-3.5489,-3.5489,-3.5489,-3.5489,-3.5489,-3.5489,-3.5489,-3.5489,-3.5489,-3.5489,-3.5489,-3.5489,-3.5489,-3.5489,-3.5489,-3.5489,-3.5489,-3.5489,-3.5489,-3.5489,-3.5489,-3.5489,-3.5489,-3.5489,-3.5489,-3.5444,-3.516,-3.4562,-3.3589,-3.2826,-3.2437,-3.2049,-3.172,-3.1496,-3.1496,-3.1496,-3.1496,-3.1496,-3.1496,-3.1496,-3.1496,-3.1496,-3.1496,-3.1697,-3.1851,-3.1864,-3.2018,-3.2167,-3.2278,-3.2305,-3.2121,-3.2213,-3.189,-3.1228,-3.0755,-3.0648,-3.0586,-3.0617,-3.0663,-3.0848,-3.1043,-3.1228,-3.1428,-3.1643,-3.1905,-3.9388,-3.9388,-3.9388,-3.9388,-3.9388,-3.9388,-3.9388,-3.9388,-3.9388,-3.9388,-3.9388,-3.9388,-3.9388,-3.9388,-3.9388,-3.9388,-3.9388,-3.9388,-3.9388,-3.9388,-3.9388,-3.9388,-3.9388,-3.9388,-3.9245,-3.8901,-3.8556,-3.7868,-3.706,-3.6956,-3.6596,-3.6163,-3.6013,-3.5863,-3.5564,-3.5489,-3.5504,-3.5504,-3.5489,-3.5489,-3.5489,-3.5489,-3.5489,-3.5489,-3.5489,-3.5489,-3.5489,-3.5489,-3.5489,-3.5489,-3.5489,-3.5489,-3.5489,-3.5489,-3.5489,-3.5489,-3.5489,-3.5489,-3.5489,-3.5489,-3.5489,-3.5489,-3.5489,-3.5489,-3.5489,-3.5489,-3.5489,-3.5489,-3.5489,-3.5489,-3.5489,-3.5489,-3.5489,-3.5489,-3.5489,-3.5489,-3.5429,-3.5175,-3.4247,-3.314,-3.2677,-3.2183,-3.1645,-3.1496,-3.1496,-3.1496,-3.1496,-3.1496,-3.1496,-3.1496,-3.1496,-3.1496,-3.1496,-3.1655,-3.1855,-3.194,-3.1903,-3.2053,-3.2161,-3.2204,-3.2185,-3.205,-3.2078,-3.1813,-3.149,-3.0955,-3.1459,-3.1643,-3.1505,-3.1366,-3.1628,-3.1844,-3.1951,-3.2136,-3.2321,-3.9388,-3.9388,-3.9388,-3.9388,-3.9388,-3.9388,-3.9388,-3.9388,-3.9388,-3.9388,-3.9388,-3.9388,-3.9388,-3.9388,-3.9388,-3.9388,-3.9388,-3.9388,-3.9388,-3.9388,-3.9388,-3.9388,-3.9388,-3.9388,-3.9343,-3.932,-3.926,-3.8781,-3.7823,-3.7599,-3.724,-3.6821,-3.6656,-3.6342,-3.5878,-3.5804,-3.5684,-3.5519,-3.5489,-3.5489,-3.5489,-3.5489,-3.5489,-3.5489,-3.5489,-3.5489,-3.5489,-3.5489,-3.5489,-3.5489,-3.5489,-3.5489,-3.5489,-3.5489,-3.5489,-3.5489,-3.5489,-3.5489,-3.5489,-3.5489,-3.5489,-3.5489,-3.5489,-3.5489,-3.5489,-3.5489,-3.5489,-3.5489,-3.5489,-3.5489,-3.5489,-3.5489,-3.5489,-3.5489,-3.5489,-3.5489,-3.5429,-3.5145,-3.4517,-3.3634,-3.2976,-3.2273,-3.1675,-3.1496,-3.1496,-3.1496,-3.1496,-3.1496,-3.1496,-3.1496,-3.1496,-3.1496,-3.1524,-3.1641,-3.1756,-3.1855,-3.1756,-3.1652,-3.1686,-3.1668,-3.1677,-3.1627,-3.1581,-3.1428,-3.1436,-3.1087,-3.1863,-3.2382,-3.209,-3.1997,-3.2275,-3.2351,-3.2259,-3.2244,-3.2351,-3.9388,-3.9388,-3.9388,-3.9388,-3.9388,-3.9388,-3.9388,-3.9388,-3.9388,-3.9388,-3.9388,-3.9388,-3.9388,-3.9388,-3.9388,-3.9388,-3.9388,-3.9388,-3.9388,-3.9388,-3.9388,-3.9388,-3.9388,-3.9388,-3.9388,-3.9388,-3.9388,-3.9005,-3.8437,-3.8287,-3.7928,-3.7434,-3.7255,-3.6985,-3.6432,-3.6357,-3.6073,-3.5624,-3.5519,-3.5489,-3.5489,-3.5489,-3.5489,-3.5489,-3.5489,-3.5489,-3.5489,-3.5489,-3.5489,-3.5489,-3.5489,-3.5489,-3.5489,-3.5489,-3.5489,-3.5489,-3.5489,-3.5489,-3.5489,-3.5489,-3.5489,-3.5489,-3.5489,-3.5489,-3.5489,-3.5489,-3.5489,-3.5489,-3.5489,-3.5489,-3.5489,-3.5489,-3.5489,-3.5489,-3.5489,-3.5489,-3.5459,-3.5295,-3.4637,-3.3829,-3.3066,-3.2303,-3.1645,-3.1555,-3.1496,-3.1496,-3.1496,-3.1496,-3.1496,-3.1496,-3.1496,-3.1496,-3.1496,-3.1612,-3.1534,-3.1664,-3.1505,-3.1311,-3.1153,-3.1101,-3.1006,-3.0895,-3.0567,-3.0487,-3.0662,-3.1129,-3.1735,-3.2115,-3.2308,-3.2398,-3.2398,-3.2398,-3.2382,-3.2398,-3.2382,-3.9388,-3.9388,-3.9388,-3.9388,-3.9388,-3.9388,-3.9388,-3.9388,-3.9388,-3.9388,-3.9388,-3.9388,-3.9388,-3.9388,-3.9388,-3.9388,-3.9388,-3.9388,-3.9388,-3.9388,-3.9388,-3.9388,-3.9388,-3.9388,-3.9388,-3.9388,-3.9373,-3.9313,-3.9005,-3.8886,-3.8646,-3.8063,-3.7928,-3.7629,-3.7075,-3.7015,-3.6641,-3.6148,-3.5744,-3.5504,-3.5489,-3.5504,-3.5519,-3.5504,-3.5519,-3.5534,-3.5519,-3.5489,-3.5489,-3.5489,-3.5489,-3.5489,-3.5489,-3.5489,-3.5489,-3.5489,-3.5489,-3.5489,-3.5489,-3.5489,-3.5489,-3.5489,-3.5489,-3.5489,-3.5489,-3.5489,-3.5489,-3.5489,-3.5489,-3.5489,-3.5489,-3.5489,-3.5489,-3.5489,-3.5489,-3.5489,-3.5444,-3.528,-3.4846,-3.4008,-3.3185,-3.2452,-3.1809,-3.1585,-3.1511,-3.1496,-3.1496,-3.1496,-3.1496,-3.1496,-3.1496,-3.1496,-3.1511,-3.1539,-3.1431,-3.1381,-3.1134,-3.0882,-3.0506,-3.0411,-3.0259,-3.0076,-2.9856,-3.0084,-3.0574,-3.1082,-3.1595,-3.183,-3.1989,-3.2185,-3.2398,-3.2324,-3.225,-3.2336,-3.2308,-3.9388,-3.9388,-3.9388,-3.9388,-3.9388,-3.9388,-3.9388,-3.9388,-3.9388,-3.9388,-3.9388,-3.9388,-3.9388,-3.9388,-3.9388,-3.9388,-3.9388,-3.9388,-3.9388,-3.9388,-3.9388,-3.9388,-3.9388,-3.9388,-3.9388,-3.9388,-3.9388,-3.9343,-3.9358,-3.9298,-3.908,-3.8661,-3.8646,-3.8257,-3.7823,-3.7614,-3.7345,-3.6731,-3.6327,-3.6133,-3.6088,-3.6073,-3.6058,-3.5983,-3.5848,-3.5759,-3.5744,-3.5534,-3.5489,-3.5489,-3.5489,-3.5489,-3.5489,-3.5489,-3.5489,-3.5489,-3.5489,-3.5489,-3.5489,-3.5489,-3.5489,-3.5489,-3.5489,-3.5489,-3.5489,-3.5489,-3.5489,-3.5489,-3.5489,-3.5489,-3.5489,-3.5489,-3.5489,-3.5489,-3.5489,-3.5489,-3.5429,-3.5205,-3.4891,-3.4203,-3.341,-3.2691,-3.2093,-3.169,-3.1525,-3.1511,-3.1496,-3.1496,-3.1496,-3.1496,-3.1496,-3.1496,-3.1496,-3.1496,-3.1404,-3.1219,-3.0885,-3.05,-3.0083,-2.961,-2.9388,-2.9433,-2.9395,-2.9826,-3.0379,-3.074,-3.1113,-3.1399,-3.1673,-3.1971,-3.2188,-3.2093,-3.206,-3.2161,-3.2072,-3.9388,-3.9388,-3.9388,-3.9388,-3.9388,-3.9388,-3.9388,-3.9388,-3.9388,-3.9388,-3.9388,-3.9388,-3.9388,-3.9388,-3.9388,-3.9388,-3.9388,-3.9388,-3.9388,-3.9388,-3.9388,-3.9388,-3.9388,-3.9388,-3.9388,-3.9388,-3.9388,-3.9388,-3.9388,-3.9388,-3.9343,-3.9313,-3.917,-3.8841,-3.8482,-3.8197,-3.7913,-3.7419,-3.7105,-3.706,-3.706,-3.709,-3.7105,-3.703,-3.6716,-3.6417,-3.642,-3.5983,-3.5744,-3.5759,-3.5789,-3.5789,-3.5863,-3.5714,-3.5684,-3.5669,-3.5534,-3.5564,-3.5624,-3.5564,-3.5489,-3.5489,-3.5489,-3.5489,-3.5489,-3.5489,-3.5489,-3.5489,-3.5489,-3.5489,-3.5489,-3.5489,-3.5489,-3.5489,-3.5489,-3.5489,-3.5355,-3.504,-3.4696,-3.4262,-3.3694,-3.3051,-3.2378,-3.1989,-3.16,-3.1555,-3.1496,-3.1496,-3.1496,-3.1496,-3.1496,-3.1496,-3.1496,-3.1481,-3.1421,-3.1134,-3.0666,-3.0213,-2.9786,-2.9038,-2.8381,-2.8561,-2.9233,-2.9399,-2.9919,-3.0262,-3.0724,-3.1228,-3.166,-3.1873,-3.1992,-3.1985,-3.1817,-3.1784,-3.1634,-3.9388,-3.9388,-3.9388,-3.9388,-3.9388,-3.9388,-3.9388,-3.9388,-3.9388,-3.9388,-3.9388,-3.9388,-3.9388,-3.9388,-3.9388,-3.9388,-3.9388,-3.9388,-3.9388,-3.9388,-3.9388,-3.9388,-3.9388,-3.9388,-3.9388,-3.9388,-3.9388,-3.9388,-3.9388,-3.9388,-3.9388,-3.9388,-3.9388,-3.9269,-3.9005,-3.8631,-3.8287,-3.8018,-3.7659,-3.7434,-3.7404,-3.7404,-3.7404,-3.736,-3.727,-3.706,-3.7015,-3.6836,-3.6716,-3.6641,-3.6611,-3.6582,-3.6492,-3.6267,-3.6118,-3.6043,-3.5833,-3.5804,-3.5968,-3.5789,-3.5504,-3.5489,-3.5489,-3.5549,-3.5639,-3.5549,-3.5504,-3.5489,-3.5534,-3.5579,-3.5489,-3.5489,-3.5489,-3.5489,-3.5489,-3.5489,-3.537,-3.5085,-3.4861,-3.4562,-3.4113,-3.3574,-3.2931,-3.2273,-3.1914,-3.16,-3.154,-3.1496,-3.1496,-3.1496,-3.1496,-3.1496,-3.1496,-3.1496,-3.1451,-3.0957,-3.0432,-2.9998,-2.9564,-2.9026,-2.8558,-2.8933,-2.9469,-2.9487,-2.9681,-3.0321,-3.0859,-3.1308,-3.1605,-3.1838,-3.1938,-3.1964,-3.1766,-3.1453,-3.1319,-3.9388,-3.9388,-3.9388,-3.9388,-3.9388,-3.9388,-3.9388,-3.9388,-3.9388,-3.9388,-3.9388,-3.9388,-3.9388,-3.9388,-3.9388,-3.9388,-3.9388,-3.9388,-3.9388,-3.9388,-3.9388,-3.9388,-3.9388,-3.9388,-3.9388,-3.9388,-3.9388,-3.9388,-3.9388,-3.9388,-3.9388,-3.9388,-3.9388,-3.9358,-3.9275,-3.899,-3.8691,-3.8556,-3.8317,-3.8018,-3.8013,-3.8028,-3.8078,-3.8033,-3.7883,-3.7704,-3.7614,-3.7434,-3.727,-3.727,-3.73,-3.7345,-3.724,-3.706,-3.6821,-3.6596,-3.6432,-3.6312,-3.6477,-3.6417,-3.6073,-3.6237,-3.6193,-3.6163,-3.6058,-3.6043,-3.6207,-3.5863,-3.5833,-3.5744,-3.5624,-3.5489,-3.5489,-3.5489,-3.5489,-3.5489,-3.5489,-3.531,-3.5145,-3.4921,-3.4457,-3.4008,-3.3514,-3.2841,-3.2093,-3.175,-3.154,-3.1496,-3.1496,-3.1496,-3.1496,-3.1496,-3.1496,-3.1496,-3.1466,-3.0943,-3.0492,-3.0268,-2.9879,-2.9609,-2.9397,-2.9684,-2.9864,-2.9996,-3.0253,-3.0657,-3.1016,-3.1417,-3.1608,-3.1768,-3.169,-3.1537,-3.1328,-3.1031,-3.1179,-3.9388,-3.9388,-3.9388,-3.9388,-3.9388,-3.9388,-3.9388,-3.9388,-3.9388,-3.9388,-3.9388,-3.9388,-3.9388,-3.9388,-3.9388,-3.9388,-3.9388,-3.9388,-3.9388,-3.9388,-3.9388,-3.9388,-3.9388,-3.9388,-3.9388,-3.9388,-3.9388,-3.9388,-3.9388,-3.9388,-3.9388,-3.9388,-3.9388,-3.9388,-3.9409,-3.9373,-3.9358,-3.9343,-3.9209,-3.9134,-3.9074,-3.9044,-3.9014,-3.8931,-3.8631,-3.8392,-3.8302,-3.8003,-3.7853,-3.7823,-3.7778,-3.7778,-3.7704,-3.7539,-3.7404,-3.7375,-3.73,-3.7285,-3.7375,-3.736,-3.7315,-3.7105,-3.6926,-3.7015,-3.721,-3.721,-3.6971,-3.6507,-3.6462,-3.6178,-3.5863,-3.5564,-3.5624,-3.5609,-3.5639,-3.5489,-3.5489,-3.5489,-3.5295,-3.5205,-3.4831,-3.4397,-3.3994,-3.3395,-3.2497,-3.1929,-3.1615,-3.1511,-3.1525,-3.1511,-3.1511,-3.1496,-3.1496,-3.1496,-3.1406,-3.0928,-3.0567,-3.0387,-3.0298,-3.0178,-3.0148,-3.0313,-3.0447,-3.0522,-3.0776,-3.1077,-3.1286,-3.1481,-3.1582,-3.1595,-3.1146,-3.0893,-3.07,-3.0773,-3.1041,-3.9388,-3.9388,-3.9388,-3.9388,-3.9388,-3.9388,-3.9388,-3.9388,-3.9388,-3.9388,-3.9388,-3.9388,-3.9388,-3.9388,-3.9388,-3.9388,-3.9388,-3.9388,-3.9388,-3.9388,-3.9388,-3.9388,-3.9388,-3.9388,-3.9388,-3.9388,-3.9388,-3.9388,-3.9388,-3.9388,-3.9388,-3.9388,-3.9388,-3.9388,-3.9388,-3.9388,-3.9388,-3.9388,-3.9358,-3.9373,-3.9388,-3.9388,-3.9388,-3.9409,-3.914,-3.902,-3.899,-3.8646,-3.8586,-3.8571,-3.8556,-3.8586,-3.8512,-3.8362,-3.8063,-3.7943,-3.7808,-3.7644,-3.8033,-3.8302,-3.8242,-3.7823,-3.7524,-3.7554,-3.7434,-3.7404,-3.7255,-3.718,-3.712,-3.6911,-3.6836,-3.6372,-3.6237,-3.6073,-3.5953,-3.5609,-3.5489,-3.5489,-3.5429,-3.5415,-3.5175,-3.4816,-3.4412,-3.3979,-3.3125,-3.2542,-3.2243,-3.175,-3.163,-3.1555,-3.1525,-3.1511,-3.1496,-3.1496,-3.1361,-3.1062,-3.0972,-3.0928,-3.1002,-3.1077,-3.1062,-3.0913,-3.0972,-3.1032,-3.1256,-3.1496,-3.1496,-3.1496,-3.1496,-3.1361,-3.1092,-3.1002,-3.1091,-3.1165,-3.13,-3.9388,-3.9388,-3.9388,-3.9388,-3.9388,-3.9388,-3.9388,-3.9388,-3.9388,-3.9388,-3.9388,-3.9388,-3.9388,-3.9388,-3.9388,-3.9388,-3.9388,-3.9388,-3.9388,-3.9388,-3.9388,-3.9388,-3.9388,-3.9388,-3.9388,-3.9388,-3.9388,-3.9388,-3.9388,-3.9388,-3.9388,-3.9388,-3.9388,-3.9388,-3.9388,-3.9388,-3.9388,-3.9388,-3.9388,-3.9388,-3.9388,-3.9388,-3.9388,-3.9388,-3.9343,-3.9358,-3.9373,-3.9388,-3.9388,-3.9388,-3.9388,-3.9388,-3.926,-3.9065,-3.8751,-3.8586,-3.8482,-3.8377,-3.8781,-3.902,-3.8826,-3.8312,-3.8088,-3.8108,-3.8108,-3.8242,-3.8018,-3.7883,-3.7778,-3.7599,-3.7419,-3.6956,-3.6761,-3.6582,-3.6237,-3.5878,-3.5549,-3.5549,-3.5489,-3.5489,-3.5459,-3.513,-3.4861,-3.4367,-3.3784,-3.335,-3.2946,-3.2407,-3.1929,-3.1854,-3.1735,-3.16,-3.1555,-3.154,-3.1525,-3.1421,-3.1376,-3.1481,-3.1496,-3.1496,-3.1466,-3.1241,-3.1406,-3.1496,-3.1496,-3.1496,-3.1496,-3.1496,-3.1496,-3.1496,-3.1421,-3.1406,-3.1496,-3.1496,-3.1496,-3.9388,-3.9388,-3.9388,-3.9388,-3.9388,-3.9388,-3.9388,-3.9388,-3.9388,-3.9388,-3.9388,-3.9388,-3.9388,-3.9388,-3.9388,-3.9388,-3.9388,-3.9388,-3.9388,-3.9388,-3.9388,-3.9388,-3.9388,-3.9388,-3.9388,-3.9388,-3.9388,-3.9388,-3.9403,-3.9619,-3.9604,-3.9433,-3.9574,-3.9493,-3.9463,-3.9388,-3.9388,-3.9388,-3.9388,-3.9388,-3.9388,-3.9388,-3.9388,-3.9388,-3.9388,-3.9388,-3.9388,-3.9388,-3.9388,-3.9388,-3.9388,-3.9388,-3.9373,-3.9388,-3.9409,-3.9379,-3.9269,-3.9239,-3.929,-3.9358,-3.9343,-3.9014,-3.9149,-3.9298,-3.923,-3.902,-3.8781,-3.8556,-3.8422,-3.8033,-3.7704,-3.7479,-3.727,-3.6941,-3.6567,-3.6178,-3.5729,-3.5594,-3.5519,-3.5489,-3.5489,-3.534,-3.525,-3.4846,-3.4442,-3.4322,-3.3933,-3.3469,-3.2991,-3.2542,-3.2318,-3.1795,-3.172,-3.16,-3.157,-3.1525,-3.1496,-3.1496,-3.1496,-3.1496,-3.1496,-3.1496,-3.1496,-3.1496,-3.1496,-3.1496,-3.1496,-3.1496,-3.1496,-3.1496,-3.1496,-3.1496,-3.1496,-3.1496,-3.1496,-3.9388,-3.9388,-3.9388,-3.9388,-3.9388,-3.9388,-3.9388,-3.9388,-3.9388,-3.9388,-3.9388,-3.9388,-3.9388,-3.9388,-3.9388,-3.9388,-3.9388,-3.9388,-3.9388,-3.9388,-3.9388,-3.9388,-3.9388,-3.9388,-3.9388,-3.9388,-3.9388,-3.9433,-3.9538,-3.9798,-3.9798,-3.9478,-3.9948,-3.9858,-3.9627,-3.9418,-3.9463,-3.9433,-3.9433,-3.9388,-3.9388,-3.9388,-3.9388,-3.9388,-3.9388,-3.9388,-3.9388,-3.9388,-3.9388,-3.9388,-3.9388,-3.9388,-3.9388,-3.9388,-3.9388,-3.9388,-3.9373,-3.9373,-3.9388,-3.9388,-3.9388,-3.9388,-3.9388,-3.9388,-3.9388,-3.9358,-3.9275,-3.908,-3.8975,-3.8661,-3.8437,-3.8242,-3.7958,-3.7599,-3.715,-3.6596,-3.6163,-3.5804,-3.5714,-3.5489,-3.5489,-3.5489,-3.5415,-3.5355,-3.5011,-3.5085,-3.4921,-3.4427,-3.3963,-3.3499,-3.2961,-3.2407,-3.2153,-3.2108,-3.1705,-3.1585,-3.1525,-3.1496,-3.1496,-3.1496,-3.1496,-3.1496,-3.1496,-3.1496,-3.1496,-3.1496,-3.1496,-3.1496,-3.1496,-3.1496,-3.1496,-3.1496,-3.1496,-3.1525,-3.1511,-3.9388,-3.9388,-3.9388,-3.9388,-3.9388,-3.9388,-3.9388,-3.9388,-3.9388,-3.9388,-3.9388,-3.9388,-3.9388,-3.9388,-3.9388,-3.9388,-3.9388,-3.9388,-3.9388,-3.9388,-3.9388,-3.9388,-3.9388,-3.9388,-3.9388,-3.9388,-3.9448,-3.9589,-3.9873,-4.0382,-4.0531,-4.0352,-4.0681,-4.0516,-4.0367,-4.0307,-4.0098,-3.9843,-3.9619,-3.9433,-3.9388,-3.9388,-3.9388,-3.9388,-3.9388,-3.9388,-3.9388,-3.9388,-3.9388,-3.9388,-3.9388,-3.9388,-3.9388,-3.9388,-3.9388,-3.9388,-3.9388,-3.9388,-3.9388,-3.9388,-3.9388,-3.9388,-3.9388,-3.9388,-3.9388,-3.9373,-3.9358,-3.9298,-3.9328,-3.9298,-3.9179,-3.905,-3.8706,-3.8362,-3.7719,-3.7075,-3.6596,-3.6148,-3.5848,-3.5564,-3.5489,-3.5489,-3.5489,-3.5489,-3.5489,-3.5385,-3.5325,-3.513,-3.4681,-3.4233,-3.3634,-3.3036,-3.2856,-3.2736,-3.2258,-3.1854,-3.1809,-3.1735,-3.1496,-3.1496,-3.1511,-3.1525,-3.1555,-3.1525,-3.1496,-3.1496,-3.1496,-3.1496,-3.1496,-3.1496,-3.1585,-3.1705,-3.1705,-3.163,-3.16,-3.9388,-3.9388,-3.9388,-3.9388,-3.9388,-3.9388,-3.9388,-3.9388,-3.9388,-3.9388,-3.9388,-3.9388,-3.9388,-3.9388,-3.9388,-3.9388,-3.9388,-3.9388,-3.9388,-3.9403,-3.9388,-3.9388,-3.9388,-3.9403,-3.9493,-3.9463,-3.9597,-3.9963,-4.0546,-4.104,-4.1399,-4.1414,-4.1444,-4.1294,-4.11,-4.107,-4.0831,-4.0457,-3.9963,-3.9568,-3.9418,-3.9388,-3.9388,-3.9388,-3.9388,-3.9388,-3.9388,-3.9388,-3.9388,-3.9388,-3.9388,-3.9388,-3.9388,-3.9388,-3.9388,-3.9388,-3.9388,-3.9388,-3.9388,-3.9388,-3.9388,-3.9388,-3.9388,-3.9388,-3.9388,-3.9388,-3.9388,-3.9388,-3.9388,-3.9388,-3.9269,-3.926,-3.9035,-3.8706,-3.8212,-3.7689,-3.7255,-3.6656,-3.6013,-3.5729,-3.5489,-3.5489,-3.5489,-3.5489,-3.5489,-3.5489,-3.5489,-3.5444,-3.5265,-3.4816,-3.4322,-3.3694,-3.3574,-3.3365,-3.2886,-3.2512,-3.2273,-3.2079,-3.1869,-3.1899,-3.2198,-3.1974,-3.1615,-3.166,-3.172,-3.154,-3.1496,-3.1511,-3.1525,-3.154,-3.166,-3.1914,-3.1959,-3.1989,-3.2108,-3.9388,-3.9388,-3.9388,-3.9388,-3.9388,-3.9388,-3.9388,-3.9388,-3.9388,-3.9388,-3.9388,-3.9388,-3.9388,-3.9388,-3.9388,-3.9388,-3.9388,-3.9493,-3.9403,-3.9493,-3.9508,-3.9687,-3.9478,-3.9679,-3.9783,-4.0038,-4.0262,-4.0546,-4.116,-4.1722,-4.1931,-4.1549,-4.1788,-4.2021,-4.1594,-4.1579,-4.1414,-4.1115,-4.0636,-3.9978,-3.9574,-3.9418,-3.9388,-3.9388,-3.9388,-3.9388,-3.9388,-3.9388,-3.9388,-3.9388,-3.9388,-3.9388,-3.9388,-3.9388,-3.9388,-3.9388,-3.9388,-3.9388,-3.9388,-3.9388,-3.9388,-3.9388,-3.9388,-3.9388,-3.9388,-3.9388,-3.9388,-3.9388,-3.9388,-3.9388,-3.9388,-3.9394,-3.9334,-3.902,-3.8721,-3.8302,-3.7918,-3.709,-3.6282,-3.5908,-3.5609,-3.5519,-3.5534,-3.5489,-3.5489,-3.5489,-3.5489,-3.5489,-3.5474,-3.5205,-3.4906,-3.4412,-3.4324,-3.4023,-3.3529,-3.32,-3.2991,-3.2931,-3.2811,-3.2871,-3.2931,-3.2602,-3.2243,-3.2064,-3.1974,-3.1944,-3.1824,-3.157,-3.1585,-3.1795,-3.2049,-3.2422,-3.2721,-3.2796,-3.2961,-3.9388,-3.9388,-3.9388,-3.9388,-3.9388,-3.9388,-3.9388,-3.9388,-3.9388,-3.9388,-3.9388,-3.9388,-3.9388,-3.9388,-3.9388,-3.9418,-3.9478,-3.9753,-3.9888,-3.9918,-4.0113,-4.0337,-4.0277,-4.0202,-4.0516,-4.0816,-4.119,-4.1602,-4.1931,-4.2402,-4.2566,-4.2282,-4.2596,-4.2581,-4.2192,-4.2207,-4.2043,-4.1841,-4.1422,-4.0756,-3.9948,-3.9664,-3.9433,-3.9388,-3.9388,-3.9388,-3.9388,-3.9388,-3.9388,-3.9388,-3.9388,-3.9388,-3.9388,-3.9388,-3.9388,-3.9388,-3.9388,-3.9388,-3.9388,-3.9388,-3.9388,-3.9388,-3.9388,-3.9388,-3.9388,-3.9388,-3.9388,-3.9388,-3.9388,-3.9388,-3.9388,-3.9373,-3.9373,-3.9215,-3.905,-3.8781,-3.8197,-3.7494,-3.6776,-3.6222,-3.5983,-3.5818,-3.5744,-3.5489,-3.5489,-3.5489,-3.5489,-3.5489,-3.5489,-3.5489,-3.5235,-3.504,-3.4861,-3.4623,-3.4144,-3.3858,-3.3724,-3.3679,-3.3664,-3.3455,-3.3305,-3.3125,-3.2916,-3.2796,-3.2706,-3.2662,-3.2452,-3.2198,-3.2362,-3.2691,-3.2871,-3.3066,-3.3305,-3.3589,-3.3858,-3.9388,-3.9388,-3.9388,-3.9388,-3.9388,-3.9388,-3.9388,-3.9388,-3.9388,-3.9388,-3.9388,-3.9388,-3.9388,-3.9388,-3.9388,-3.9448,-3.9664,-4.0038,-4.0277,-4.0651,-4.101,-4.0995,-4.1085,-4.1302,-4.1324,-4.1639,-4.2087,-4.2297,-4.2521,-4.294,-4.3155,-4.3275,-4.3305,-4.3275,-4.3305,-4.3215,-4.2955,-4.2536,-4.2141,-4.1677,-4.0816,-3.9918,-3.9634,-3.9463,-3.9388,-3.9388,-3.9388,-3.9388,-3.9388,-3.9388,-3.9388,-3.9388,-3.9388,-3.9388,-3.9388,-3.9388,-3.9388,-3.9388,-3.9388,-3.9388,-3.9388,-3.9388,-3.9388,-3.9388,-3.9388,-3.9388,-3.9388,-3.9388,-3.9388,-3.9388,-3.9388,-3.9388,-3.9388,-3.9373,-3.929,-3.911,-3.8452,-3.7883,-3.7315,-3.6701,-3.6477,-3.6297,-3.5968,-3.5699,-3.5594,-3.5579,-3.5519,-3.5504,-3.5489,-3.5489,-3.5385,-3.531,-3.5235,-3.4936,-3.4668,-3.4517,-3.4397,-3.4382,-3.4307,-3.3978,-3.3724,-3.3709,-3.3664,-3.3574,-3.3499,-3.326,-3.323,-3.308,-3.3305,-3.3425,-3.3589,-3.3709,-3.3978,-3.4292,-3.4756,-3.9388,-3.9388,-3.9388,-3.9388,-3.9388,-3.9388,-3.9388,-3.9388,-3.9388,-3.9388,-3.9388,-3.9388,-3.9388,-3.9403,-3.9388,-3.9568,-4.0098,-4.0457,-4.0846,-4.1205,-4.1534,-4.1527,-4.1572,-4.1788,-4.1803,-4.2207,-4.2731,-4.306,-4.2985,-4.3155,-4.3305,-4.3305,-4.3305,-4.3305,-4.3305,-4.326,-4.32,-4.294,-4.2641,-4.2201,-4.1811,-4.0905,-3.9963,-3.9679,-3.9388,-3.9388,-3.9388,-3.9388,-3.9388,-3.9388,-3.9388,-3.9388,-3.9388,-3.9388,-3.9388,-3.9388,-3.9388,-3.9388,-3.9388,-3.9388,-3.9388,-3.9388,-3.9388,-3.9388,-3.9388,-3.9388,-3.9388,-3.9388,-3.9388,-3.9388,-3.9388,-3.9388,-3.9388,-3.9388,-3.9313,-3.9035,-3.8556,-3.8302,-3.7973,-3.7524,-3.721,-3.6881,-3.6447,-3.6207,-3.6013,-3.5923,-3.5669,-3.5624,-3.5504,-3.5489,-3.5489,-3.5489,-3.5489,-3.5489,-3.5295,-3.516,-3.507,-3.5055,-3.4981,-3.4726,-3.4547,-3.4488,-3.4429,-3.4292,-3.3948,-3.3619,-3.3634,-3.3933,-3.3769,-3.3858,-3.4143,-3.4384,-3.4638,-3.4831,-3.516]},{"header":{"parameterUnit":"m.s-1","parameterCategory":1,"la1":31.0,"la2":29.5877,"lo1":-88.7671,"lo2":-86.6584,"dy":0.0162,"dx":0.0185,"nx":115,"ny":88,"refTime":"2026-03-07T00:00:00:Z","depth":0,"parameterNumber":3,"parameterNumberName":"V-component_of_WINDS"},"data":[0.0,0.0,0.0,0.0,0.0,0.0,0.0,0.0,0.0,0.0,0.0,0.0,0.0,0.0,0.0,0.0,0.0,0.0,0.0,0.0,0.0,0.0,0.0,0.0,0.0,0.0,0.0,0.0,0.0,0.0,0.0,0.0,0.0,0.0,0.0,0.0,0.0,0.0,0.0,0.0,0.0,0.0,0.0,0.0,0.0,0.0,0.0,0.0,0.0,0.0,0.0,0.0,0.0,0.0,0.0,0.0,0.0,0.0,0.0,0.0,0.0,0.0,0.0,0.0,0.0,0.0,0.0,0.0,0.0,0.0,0.0,0.0,0.0,0.0,0.0,0.0,0.0,0.0,0.0,0.0,0.0,0.0,0.0,0.0,0.0,0.0,0.0,0.0,0.0,0.0,0.0,0.0,0.0,0.0,0.0,0.0,0.0,0.0,0.0,0.0,0.0,0.0,0.0,0.0,0.0,0.0,0.0,0.0,0.0,0.0,0.0,0.0,0.0,0.0,0.0,0.0,0.0,0.0,0.0,0.0,0.0,0.0,0.0,0.0,0.0,0.0,0.0,0.0,0.0,0.0,0.0,0.0,0.0,0.0,0.0,0.0,0.0,0.0,0.0,0.0,0.0,0.0,0.0,0.0,0.0,0.0,0.0,0.0,0.0,0.0,0.0,0.0,0.0,0.0,0.0,0.0,0.0,0.0,0.0,0.0,0.0,0.0,0.0,0.0,0.0,0.0,0.0,0.0,0.0,0.0,0.0,0.0,0.0,0.0,0.0,0.0,0.0,0.0,0.0,0.0,0.0,0.0,0.0,0.0,0.0,0.0,0.0,0.0,0.0,0.0,0.0,0.0,0.0,0.0,0.0,0.0,0.0,0.0,0.0,0.0,0.0,0.0,0.0,0.0,0.0,0.0,0.0,0.0,0.0,0.0,0.0,0.0,0.0,0.0,0.0,0.0,0.0,0.0,0.0,0.0,0.0,0.0,0.0,0.0,0.0,0.0,0.0,0.0,0.0,0.0,0.0,0.0,0.0,0.0,0.0,0.0,0.0,0.0,0.0,0.0,0.0,0.0,0.0,0.0,0.0,0.0,0.0,0.0,0.0,0.0,0.0,0.0,0.0,0.0,0.0,0.0,0.0,0.0,0.0,0.0,0.0,0.0,0.0,0.0,0.0,0.0,0.0,0.0,0.0,0.0,0.0,0.0,0.0,0.0,0.0,0.0,0.0,0.0,0.0,0.0,0.0,0.0,0.0,0.0,0.0,0.0,0.0,0.0,0.0,0.0,0.0,0.0,0.0,0.0,0.0,0.0,0.0,0.0,0.0,0.0,0.0,0.0,0.0,0.0,0.0,0.0,0.0,0.0,0.0,0.0,0.0,0.0,0.0,0.0,0.0,0.0,0.0,0.0,0.0,0.0,0.0,0.0,0.0,0.0,0.0,0.0,0.0,0.0,0.0,0.0,0.0,0.0,0.0,0.0,0.0,0.0,0.0,0.0,0.0,0.0,0.0,0.0,0.0,0.0,0.0,0.0,0.0,0.0,0.0,0.0,0.0,0.0,0.0,0.0,0.0,0.0,0.0,0.0,0.0,0.0,0.0,0.0,0.0,0.0,0.0,0.0,0.0,0.0,0.0,0.0,0.0,0.0,0.0,0.0,0.0,0.0,0.0,0.0,0.0,0.0,0.0,0.0,0.0,0.0,0.0,0.0,0.0,0.0,0.0,0.0,0.0,0.0,0.0,0.0,0.0,0.0,0.0,0.0,0.0,0.0,0.0,0.0,0.0,0.0,0.0,0.0,0.0,0.0,0.0,0.0,0.0,0.0,0.0,0.0,0.0,0.0,0.0,0.0,0.0,0.0,0.0,0.0,0.0,0.0,0.0,0.0,0.0,0.0,0.0,0.0,0.0,0.0,0.0,0.0,0.0,0.0,0.0,0.0,0.0,0.0,0.0,0.0,0.0,0.0,0.0,0.0,0.0,0.0,0.0,0.0,0.0,0.0,0.0,0.0,0.0,0.0,0.0,0.0,0.0,0.0,0.0,0.0,0.0,0.0,0.0,0.0,0.0,0.0,0.0,0.0,0.0,0.0,0.0,0.0,0.0,0.0,0.0,0.0,0.0,0.0,0.0,0.0,0.0,0.0,0.0,0.0,0.0,0.0,0.0,0.0,0.0,0.0,0.0,0.0,0.0,0.0,0.0,0.0,0.0,0.0,0.0,0.0,0.0,0.0,0.0,0.0,0.0,0.0,0.0,0.0,0.0,0.0,0.0,0.0,0.0,0.0,0.0,0.0,0.0,0.0,0.0,0.0,0.0,0.0,0.0,0.0,0.0,0.0,0.0,0.0,0.0,0.0,0.0,0.0,0.0,0.0,0.0,0.0,0.0,0.0,0.0,0.0,0.0,0.0,0.0,0.0,0.0,0.0,0.0,0.0,0.0,0.0,0.0,0.0,0.0,0.0,0.0,0.0,0.0,0.0,0.0,0.0,0.0,0.0,0.0,0.0,0.0,0.0,0.0,0.0,0.0,0.0,0.0,0.0,0.0,0.0,0.0,0.0,0.0,0.0,0.0,0.0,0.0,0.0,0.0,0.0,0.0,0.0,0.0,0.0,0.0,0.0,0.0,0.0,0.0,0.0,0.0,0.0,0.0,0.0,0.0,0.0,0.0,0.0,0.0,0.0,0.0,0.0,0.0,0.0,0.0,0.0,0.0,0.0,0.0,0.0,0.0,0.0,0.0,0.0,0.0,0.0,0.0,0.0,0.0,0.0,0.0,0.0,0.0,0.0,0.0,0.0,0.0,0.0,0.0,0.0,0.0,0.0,0.0,0.0,0.0,0.0,0.0,0.0,0.0,0.0,0.0,0.0,0.0,0.0,0.0,0.0,0.0,0.0,0.0,0.0,0.0,0.0,0.0,0.0,0.0,0.0,0.0,0.0,0.0,0.0,0.0,0.0,0.0,0.0,0.0,0.0,0.0,0.0,0.0,0.0,0.0,0.0,0.0,0.0,0.0,0.0,0.0,0.0,0.0,0.0,0.0,0.0,0.0,0.0,0.0,0.0,0.0,0.0,0.0,0.0,0.0,0.0,0.0,0.0,0.0,0.0,0.0,0.0,0.0,0.0,0.0,0.0,0.0,0.0,0.0,0.0,0.0,0.0,0.0,0.0,0.0,0.0,0.0,0.0,0.0,0.0,0.0,0.0,0.0,0.0,0.0,0.0,0.0,0.0,0.0,0.0,0.0,0.0,0.0,0.0,0.0,0.0,0.0,0.0,0.0,0.0,0.0,0.0,0.0,0.0,0.0,0.0,0.0,0.0,0.0,0.0,0.0,0.0,0.0,0.0,0.0,0.0,0.0,0.0,0.0,0.0,0.0,0.0,0.0,0.0,0.0,0.0,0.0,0.0,0.0,0.0,0.0,0.0,0.0,0.0,0.0,0.0,0.0,0.0,0.0,0.0,0.0,0.0,0.0,0.0,0.0,0.0,0.0,0.0,0.0,0.0,0.0,0.0,0.0,0.0,0.0,0.0,0.0,0.0,0.0,0.0,0.0,0.0,0.0,0.0,0.0,0.0,0.0,0.0,0.0,0.0,0.0,0.0,0.0,0.0,0.0,0.0,0.0,0.0,0.0,0.0,0.0,0.0,0.0,0.0,0.0,0.0,0.0,0.0,0.0,0.0,0.0,0.0,0.0,0.0,0.0,0.0,0.0,0.0,0.0,0.0,0.0,0.0,0.0,0.0,0.0,0.0,0.0,0.0,0.0,0.0,0.0,0.0,0.0,0.0,0.0,0.0,0.0,0.0,0.0,0.0,0.0,0.0,0.0,0.0,0.0,0.0,0.0,0.0,0.0,0.0,0.0,0.0,0.0,0.0,0.0,0.0,0.0,0.0,0.0,0.0,0.0,0.0,0.0,0.0,0.0,0.0,0.0,0.0,0.0,0.0,0.0,0.0,0.0,0.0,0.0,0.0,0.0,0.0,0.0,0.0,0.0,0.0,0.0,0.0,0.0,0.0,0.0,0.0,0.0,0.0,0.0,0.0,0.0,0.0,0.0,0.0,0.0,0.0,0.0,0.0,0.0,0.0,0.0,0.0,0.0,0.0,0.0,0.0,0.0,0.0,0.0,0.0,0.0,0.0,0.0,0.0,0.0,0.0,0.0,0.0,0.0,0.0,0.0,0.0,0.0,0.0,0.0,0.0,0.0,0.0,0.0,0.0,0.0,0.0,0.0,0.0,0.0,0.0,0.0,0.0,0.0,0.0,0.0,0.0,0.0354,0.0,0.0,0.0,0.0,0.0,0.0,0.0,0.0,0.0,0.0,0.0,0.0,0.0,0.0,0.0,0.0,0.0,0.0,0.0,0.0,0.0,0.0,0.0,0.0,0.0,0.0,0.0,0.0,0.0,0.0,0.0,0.0,0.0,0.0,0.0,0.0,0.0,0.0,0.0,0.0,0.0,0.0,0.0,0.0,0.0,0.0,0.0,0.0,0.0,0.0,0.0,0.0,0.0,0.0,0.0,0.0,0.0,0.0,0.0,0.0,0.0,0.0,0.0,0.0,0.0,0.0,0.0,0.0,0.0,0.0,0.0,0.0,0.0,0.0,0.0,0.0,0.0,0.0,0.0,0.0,0.0,0.0,0.0,0.0,0.0,0.0,0.0,0.0,0.0,0.0,0.0,0.0,0.0,0.0,0.0,0.0,0.0,0.0,0.0,0.0,0.0,0.0,0.0,0.0,0.0,0.0,0.0,0.0,0.0,0.0,0.4129,0.3211,0.2451,0.176,0.1144,0.0,0.0,0.0,0.0,0.0,0.0,0.0,0.0,0.0,0.0,0.0,0.0,0.0,0.0,0.0,0.0,0.0,0.0,0.0,0.0,0.0,0.0,0.0,0.0,0.0,0.0,0.0,0.0,0.0,0.0,0.0,0.0,0.0,0.0,0.0,0.0,0.0,0.0,0.0,0.0,0.0,0.0,0.0,0.0,0.0,0.0,0.0,0.0,0.0,0.0,0.0,0.0,0.0,0.0,0.0,0.0,0.0,0.0,0.0,0.0,0.0,0.0,0.0,0.0,0.0,0.0,0.0,0.0,0.0,0.0,0.0,0.0,0.0,0.0,0.0,0.0,0.0,0.0,0.0,0.0,0.0,0.0,0.0,0.0,0.0,0.0,0.0,0.0,0.0,0.0,0.0,0.0,0.0,0.0,0.0,0.0,0.0,0.0,0.0,0.0,0.0,0.0,0.0,0.0,0.0,0.0,0.0,0.0,0.0,0.0,0.0,0.0,0.3635,0.2854,0.1829,0.0,0.0,0.0,0.0,0.0,0.0,0.0,0.0,0.0,0.0,0.0,0.0,0.0,0.0,0.0,0.0,0.0,0.0,0.0,0.0,0.0,0.0,0.0,0.0,0.0,0.0,0.0,0.0,0.0,0.0,0.0,0.0,0.0,0.0,0.0,0.0,0.0,0.0,0.0,0.0,0.0,0.0,0.0,0.0,0.0,0.0,0.0,0.0,0.0,0.0,0.0,0.0,0.0,0.0,0.0,0.0,0.0,0.0,0.0,0.0,0.0,0.0,0.0,0.0,0.0,0.0,0.0,0.0,0.0,0.0,0.0,0.0,0.0,0.0,0.0,0.0,0.0,0.0,0.0,0.0,0.0,0.0,0.0,0.0,0.0,0.0,0.0,0.0,0.0,0.0,0.0,0.0,0.0,0.0,0.0,0.0,0.0,0.0,0.0,0.0,0.0,0.0,0.0,0.0,0.0,0.0,0.0,0.0,0.0,0.0,0.5786,0.531,0.4402,0.0,0.2131,0.0,0.0,0.0,0.0,0.0,0.0,0.0,0.0,0.0,0.0,0.0,0.0,0.0,0.0,0.0,0.0,0.0,0.0,0.0,0.0,0.0,0.0,0.0,0.0,0.0,0.0,0.0,0.0,0.0,0.0,0.0,0.0,0.0,0.0,0.0,0.0,0.0,0.0,0.0,0.0,0.0,0.0,0.0,0.0,0.0,0.0,0.0,0.0,0.0,0.0,0.0,0.0,0.0,0.0,0.0,0.0,0.0,0.0,0.0,0.0,0.0,0.0,0.0,0.0,0.0,0.0,0.0,0.0,0.0,0.0,0.0,0.0,0.0,0.0,0.0,0.0,0.0,0.0,0.0,0.0,0.0,0.0,0.0,0.0,0.0,0.0,0.0,0.0,0.0,0.0,0.0,0.0,0.0,0.0,0.0,0.0,0.0,0.0,0.0,0.0,0.0,0.0,0.0,0.0,0.0,0.0,0.0,0.0,0.0,0.0,0.6491,0.6151,0.5178,0.4149,0.0,0.0,0.0,0.0,0.0,0.0,0.0,0.0,0.0,0.0,0.0,0.0,0.0,0.0,0.0,0.0,0.0,0.0,0.0,0.0,0.0,0.0,0.0,0.0,0.0,0.0,0.0,0.0,0.0,0.0,0.0,0.0,0.0,0.0,0.0,0.0,0.0,0.0,0.0,0.0,0.0,0.0,0.0,0.0,0.0,0.0,0.0,0.0,0.0,0.0,0.0,0.0,0.0,0.0,0.0,0.0,0.0,0.0,0.0,0.0,0.0,0.0,0.0,0.0,0.0,0.0,0.0,0.0,0.0,0.0,0.0,0.0,0.0,0.0,0.0,0.0,0.0,0.0,0.0,0.0,0.0,0.0,0.0,0.0,0.0,0.0,0.0,0.0,0.0,0.0,0.0,0.0,0.0,0.0,0.0,0.0,0.0,0.0,0.0,0.0,0.0,0.0,0.0,0.0,0.0,0.0,0.0,0.0,0.0,0.0,0.6888,0.6828,0.6594,0.5782,0.4958,0.4155,0.0,0.0,0.0,0.0,0.0,0.0,0.0,0.0,0.0,0.0,0.0,0.0,0.0,0.0,0.0,0.0,0.0,0.0,0.0,0.0,0.0,0.0,0.0,0.0,0.0,0.0,0.0,0.0,0.0,0.0,0.0,0.0,0.0,0.0,0.0,0.0,0.0,0.0,0.0,0.0,0.0,0.0,0.0,0.0,0.0,0.0,0.0,0.0,0.0,0.0,0.0,0.0,0.0,0.0,0.0,0.0,0.0,0.0,0.0,0.0,0.0,0.0,0.0,0.0,0.0,0.0,0.0,0.0,0.0,0.0,0.0,0.0,0.0,0.0,0.0,0.0,0.0,0.0,0.0,0.0,0.0,0.0,0.0,0.0,0.0,0.0,0.0,0.0,0.0,0.0,0.0,0.0,0.0,0.0,0.0,0.0,0.0,0.0,0.0,0.0,0.0,0.0,0.0,0.0,0.0,0.0,0.0,0.0,0.679,0.6806,0.6706,0.6544,0.617,0.5653,0.0,0.0,0.0,0.0,0.0,0.0,0.0,0.0,0.0,0.0,0.0,0.0,0.0,0.0,0.0,0.0,0.0,0.0,0.0,0.0,0.0,0.0,0.0,0.0,0.0,0.0,0.0,0.0,0.0,0.0,0.0,0.0,0.0,0.0,0.0,0.0,0.0,0.0,0.0,0.0,0.0,0.0,0.0,0.0,0.0,0.0,0.0,0.0,0.0,0.0,0.0,0.0,0.0,0.0,0.0,0.0,0.0,0.0,0.0,0.0,0.0,0.0,0.0,0.0,0.0,0.0,0.0,0.0,0.0,0.0,0.0,0.0,0.0,0.0,0.0,0.0,0.0,0.0,0.0,0.0,0.0,0.0,0.0,0.0,0.0,0.0,0.0,0.0,0.0,0.0,0.0,0.0,0.0,0.0,0.0,0.0,0.0,0.0,0.0,0.0,0.0,0.0,0.0,0.0,0.0,0.0,0.0,0.0,0.0,0.6892,0.6813,0.677,0.6696,0.6412,0.6067,0.0,0.0,0.0,0.0,0.0,0.0,0.0,0.0,0.0,0.0,0.0,0.0,0.0,0.0,0.0,0.0,0.0,0.0,0.0,0.0,0.0,0.0,0.0,0.0,0.0,0.0,0.0,0.0,0.0,0.0,0.0,0.0,0.0,0.0,0.0,0.0,0.0,0.0,0.0,0.0,0.0,0.0,0.0,0.0,0.0,0.0,0.0,0.0,0.0,0.0,0.0,0.0,0.0,0.0,0.0,0.0,0.0,0.0,0.0,0.0,0.0,0.0,0.0,0.0,0.0,0.0,0.0,0.0,0.0,0.0,0.0,0.0,0.0,0.0,0.0,0.0,0.0,0.0,0.0,0.0,0.0,0.0,0.0,0.0,0.0,0.0,0.0,0.0,0.0,0.0,0.0,0.0,0.0,0.0,0.0,0.0,0.0,0.0,0.0,0.0,0.0,0.0,0.0,0.0,0.0,0.0,0.0,0.0,0.0,0.6984,0.0,0.6785,0.6738,0.6495,0.6246,0.0,0.0,0.0,0.0,0.0,0.0,0.0,0.0,0.0,0.0,0.0,0.0,0.0,0.0,0.0,0.0,0.0,0.0,0.0,0.0,0.0,0.0,0.0,0.0,0.0,0.0,0.0,0.0,0.0,0.0,0.0,0.0,0.0,0.0,0.0,0.0,0.0,0.0,0.0,0.0,0.0,0.0,0.0,0.0,0.0,0.0,0.0,0.0,0.0,0.0,0.0,0.0,0.0,0.0,0.0,0.0,0.0,0.0,0.0,0.0,0.0,0.0,0.0,0.0,0.0,0.0,0.0,0.0,0.0,0.0,0.0,0.0,0.0,0.0,0.0,0.0,0.0,0.0,0.0,0.0,0.0,0.0,0.0,0.0,0.0,0.0,0.0,0.0,0.0,0.0,0.0,0.0,0.0,0.0,0.0,0.0,0.0,0.0,0.0,0.0,0.0,0.0,0.0,0.0,0.0,0.0,0.0,0.0,0.7145,0.6981,0.6893,0.6741,0.6624,0.6497,0.622,0.0,0.0,0.0,0.0,0.0,0.0,0.0,0.0,0.0,0.0,0.0,0.0,0.0,0.0,0.0,0.0,0.0,0.0,0.0,0.0,0.0,0.0,0.0,0.0,0.0,0.0,0.0,0.0,0.0,0.0,0.0,0.0,0.0,0.0,0.0,0.0,0.0,0.0,0.0,0.0,0.0,0.0,0.0,0.0,0.0,0.0,0.0,0.0,0.0,0.0,0.0,0.0,0.0,0.0,0.0,0.0,0.0,0.0,0.0,0.0,0.0,0.0,0.0,0.0,0.0,0.0,0.0,0.0,0.0,0.0,0.0,0.0,0.0,0.0,0.0,0.0,0.0,0.0,0.0,0.0,0.0,0.0,0.0,0.0,0.0,0.0,0.0,0.0,0.0,0.0,0.0,0.0,0.0,0.0,0.0,0.0,0.0,0.0,0.0,0.0,0.0,0.0,0.0,0.0,0.0,0.0,0.0,0.0,0.0,0.7145,0.6978,0.6924,0.693,0.6528,0.623,0.0,0.0,0.0,0.0,0.0,0.0,0.0,0.0,0.0,0.0,0.0,0.0,0.0,0.0,0.0,0.0,0.0,0.0,0.0,0.0,0.0,0.0,0.0,0.0,0.0,0.0,0.0,0.0,0.0,0.0,0.0,0.0,0.0,0.0,0.0,0.0,0.0,0.0,0.0,0.0,0.0,0.0,0.0,0.0,0.0,0.0,0.0,0.0,0.0,0.0,0.0,0.0,0.0,0.0,0.0,0.0,0.0,0.0,0.0,0.0,0.0,0.0,0.0,0.0,0.0,0.0,0.0,0.0,0.0,0.0,0.0,0.0,0.0,0.0,0.0,0.0,0.0,0.0,0.0,0.0,0.0,0.0,0.0,0.0,0.0,0.0,0.0,0.0,0.0,0.0,0.0,0.0,0.0,0.0,0.0,0.0,0.0,0.0,0.0,0.0,0.0,0.0,0.0,0.0,0.0,0.0,0.0,0.0,0.0,0.7782,0.7428,0.7161,0.7157,0.6762,0.6403,0.6086,0.0,0.0,0.0,0.0,0.0,0.0,0.0,0.0,0.0,0.0,0.0,0.0,0.0,0.0,0.0,0.0,0.0,0.0,0.0,0.0,0.0,0.0,0.0,0.0,0.0,0.0,0.0,0.0,0.0,0.0,0.0,0.0,0.0,0.0,0.0,0.0,0.0,0.0,0.0,0.0,0.0,0.0,0.0,0.0,0.0,0.0,0.0,0.0,0.0,0.0,0.0,0.0,0.0,0.0,0.0,0.0,0.0,0.0,0.0,0.0,0.0,0.0,0.0,0.0,0.0,0.0,0.0,0.0,0.0,0.0,0.0,0.0,0.0,0.0,0.0,0.0,0.0,0.0,0.0,0.0,0.0,0.0,0.0,0.0,0.0,0.0,0.0,0.0,0.0,0.0,0.0,0.0,0.0,0.0,0.0,0.0,0.0,0.0,0.0,0.0,0.0,0.0,0.0,0.0,0.0,0.0,0.0,0.0,0.8972,0.8115,0.7541,0.7287,0.7052,0.6695,0.0,0.0,0.0,0.0,0.0,0.0,0.0,0.0,0.0,0.0,0.0,0.0,0.0,0.0,0.0,0.0,0.0,0.0,0.0,0.0,0.0,0.0,0.0,0.0,0.0,0.0,0.0,0.0,0.0,0.0,0.0,0.0,0.0,0.0,0.0,0.0,0.0,0.0,0.0,0.0,0.0,0.0,0.0,0.0,0.0,0.0,0.0,0.0,0.0,0.0,0.0,0.0,0.0,0.0,0.0,0.0,0.0,0.0,0.0,0.0,0.0,0.0,0.0,0.0,0.0,0.0,0.0,0.0,0.0,0.0,0.0,0.0,0.0,0.0,0.0,0.0,0.0,0.0,0.0,0.0,0.0,0.0,0.0,0.0,0.0,0.0,0.0,0.0,0.0,0.0,0.0,0.0,0.0,0.0,0.0,0.0,0.0,0.0,0.0,0.0,0.0,0.0,0.0,0.0,0.0,0.0,0.0,0.0,0.0,1.0004,0.9743,0.9154,0.8202,0.7734,0.7214,0.0,0.0,0.0,0.0,0.0,0.0,0.0,0.0,0.0,0.0,0.0,0.0,0.0,0.0,0.0,0.0,0.0,0.0,0.0,0.0,0.0,0.0,0.0,0.0,0.0,0.0,0.0,0.0,0.0,0.0,0.0,0.0,0.0,0.0,0.0,0.0,0.0,0.0,0.0,0.0,0.0,0.0,0.0,0.0,0.0,0.0,0.0,0.0,0.0,0.0,0.0,0.0,0.0,0.0,0.0,0.0,0.0,0.0,0.0,0.0,0.0,0.0,0.0,0.0,0.0,0.0,0.0,0.0,0.0,0.0,0.0,0.0,0.0,0.0,0.0,0.0,0.0,0.0,0.0,0.0,0.0,0.0,0.0,0.0,0.0,0.0,0.0,0.0,0.0,0.0,0.0,0.0,0.0,0.0,0.0,0.0,0.0,0.0,0.0,0.0,0.0,0.0,0.0,0.0,0.0,0.0,0.0,0.0,1.0378,1.1222,1.1368,1.1052,1.0164,0.8856,0.7832,0.0,0.0,0.0,0.0,0.0,0.0,0.0,0.0,0.0,0.0,0.0,0.0,0.0,0.0,0.0,0.0,0.0,0.0,0.0,0.0,0.0,0.0,0.0,0.0,0.0,0.0,0.0,0.0,0.0,0.0,0.0,0.0,0.0,0.0,0.0,0.0,0.0,0.0,0.0,0.0,0.0,0.0,0.0,0.0,0.0,0.0,0.0,0.0,0.0,0.0,0.0,0.0,0.0,0.0,0.0,0.0,0.0,0.0,0.0,0.0,0.0,0.0,0.0,0.0,0.0,0.0,0.0,0.0,0.0,0.0,0.0,0.0,0.0,0.0,0.0,0.0,0.0,0.0,0.0,0.0,0.0,0.0,0.0,0.0,0.0,0.0,0.0,0.0,0.0,0.0,0.0,0.0,0.0,0.0,0.0,0.0,0.0,0.0,0.0,0.0,0.0,0.0,0.0,0.0,0.0,0.0,0.0,0.0,1.1769,1.2497,1.2956,1.3049,1.2682,1.0329,0.8718,0.0,0.0,0.0,0.0,0.0,0.0,0.0,0.0,0.0,0.0,0.0,0.0,0.0,0.0,0.0,0.0,0.0,0.0,0.0,0.0,0.0,0.0,0.0,0.0,0.0,0.0,0.0,0.0,0.0,0.0,0.0,0.0,0.0,0.0,0.0,0.0,0.0,0.0,0.0,0.0,0.0,0.0,0.0,0.0,0.0,0.0,0.0,0.0,0.0,0.0,0.0,0.0,0.0,0.0,0.0,0.0,0.0,0.0,0.0,0.0,0.0,0.0,0.0,0.0,0.0,0.0,0.0,0.0,0.0,0.0,0.0,0.0,0.0,0.0,0.0,0.0,0.0,0.0,0.0,0.0,0.0,0.0,0.0,0.0,0.0,0.0,0.0,0.0,0.0,0.0,0.0,0.0,0.0,0.0,0.0,0.0,0.0,0.0,0.0,0.0,0.0,0.0,0.0,0.0,0.0,0.0,0.0,0.0,1.2963,1.4056,1.4298,1.4361,1.4243,1.2086,1.0498,0.0,0.0,0.0,0.0,0.0,0.0,0.0,0.0,0.0,0.0,0.0,0.0,0.0,0.0,0.0,0.0,0.0,0.0,0.0,0.0,0.0,0.0,0.0,0.0,0.0,0.0,0.0,0.0,0.0,0.0,0.0,0.0,0.0,0.0,0.0,0.0,0.0,0.0,0.0,0.0,0.0,0.0,0.0,0.0,0.0,0.0,0.0,0.0,0.5928,0.0,0.0,0.0,0.0,0.0,0.0,0.0,0.0,0.0,0.0,0.0,0.0,0.0,0.0,0.0,0.0,0.0,0.0,0.0,0.0,0.0,0.0,0.0,0.0,0.0,0.0,0.0,0.0,0.0,0.0,0.0,0.0,0.0,0.0,0.0,0.0,0.0,0.0,0.0,0.0,0.0,0.0,0.0,0.0,0.0,0.0,0.0,0.0,0.0,0.0,0.0,0.0,0.0,0.0,0.0,0.0,0.0,0.0,0.0,1.4177,1.5166,1.5493,1.5577,1.534,1.3917,1.2285,0.0,0.0,0.0,0.0,0.0,0.0,0.0,0.0,0.0,0.0,0.0,0.0,0.0,0.0,0.0,0.0,0.0,0.0,0.0,0.0,0.0,0.0,0.0,0.0,0.0,0.0,0.0,0.0,0.0,0.0,0.0,0.0,0.0,0.0,0.0,0.0,0.0,0.0,0.0,0.0,0.0,0.0,0.0,0.0,0.0,0.0,0.0,0.0,0.0,0.0,0.0,0.0,0.0,0.0,0.0,0.0,0.0,0.0,0.0,0.0,0.0,0.0,0.0,0.0,0.0,0.0,0.0,0.0,0.0,0.0,0.0,0.0,0.0,0.0,0.0,0.0,0.0,0.0,0.0,0.0,0.0,0.0,0.0,0.0,0.0,0.0,0.0,0.0,0.0,0.0,0.0,0.0,0.0,0.0,0.0,0.0,0.0,0.0,0.0,0.0,0.0,0.0,0.0,0.0,0.0,0.0,0.0,1.427,1.5102,1.586,1.637,1.6487,1.6155,1.5388,1.3811,1.1308,0.0,0.0,0.0,0.0,0.0,0.0,0.0,0.0,0.0,0.0,0.0,0.0,0.0,0.0,0.0,0.0,0.0,0.0,0.0,0.0,0.0,0.0,0.0,0.0,0.0,0.0,0.0,0.0,0.0,0.0,0.0,0.0,0.0,0.0,0.0,0.0,0.0,0.0,0.7497,0.8177,0.0,0.0,0.0,0.0,0.0,0.0,0.0,0.0,0.7246,0.0,0.0,0.0,0.0,0.0,0.0,0.0,0.0,0.0,0.0,0.0,0.0,0.0,0.0,0.0,0.0,0.0,0.0,0.0,0.0,0.0,0.0,0.0,0.0,0.0,0.0,0.0,0.0,0.0,0.0,0.0,0.0,0.0,0.0,0.0,0.0,0.0,0.0,0.0,0.0,0.0,0.0,0.0,0.0,0.0,0.0,0.0,0.0,0.0,0.0,0.0,0.0,0.0,0.0,0.0,0.0,1.3859,1.4626,1.5394,1.6222,1.6504,1.654,1.6245,1.547,1.4447,1.3176,0.0,0.0,0.0,0.0,0.0,0.0,0.0,0.0,0.0,0.0,0.0,0.0,0.0,0.0,0.0,0.0,0.0,0.0,0.0,0.0,0.0,0.0,0.0,0.0,0.0,0.0,0.0,0.0,0.0,0.0,0.0,0.0,0.0,0.0,0.0,0.0,0.0,0.0,0.0,0.9716,1.0033,0.0,0.0,0.0,0.0,0.0,0.0,0.0,0.0,0.8444,0.0,0.0,0.0,0.0,0.0,0.0,0.0,0.0,0.0,0.0,0.0,0.0,0.0,0.0,0.0,0.0,0.0,0.0,0.0,0.0,0.0,0.0,0.0,0.0,0.0,0.0,0.0,0.0,0.0,0.0,0.0,0.0,0.0,0.0,0.0,0.0,0.0,0.0,0.0,0.0,0.0,0.0,0.0,0.0,0.0,0.0,0.0,0.0,0.0,0.0,0.0,0.0,0.0,0.0,0.0,1.4148,1.4937,1.5647,1.6278,1.6561,1.6501,1.6085,1.5461,1.4657,0.0,0.0,0.0,0.0,0.0,0.0,0.0,0.0,0.0,0.0,0.0,0.0,0.0,0.0,0.0,0.0,0.0,0.0,0.0,0.0,0.0,0.0,0.0,0.0,0.0,0.0,0.0,0.0,0.0,0.0,0.0,0.0,0.0,0.0,0.0,0.0,0.0,0.0,0.0,0.0,1.074,1.0884,1.0919,0.0,0.0,0.0,0.0,0.0,0.0,0.98,0.9372,0.0,0.0,0.0,0.0,0.0,0.0,0.0,0.0,0.0,0.0,0.0,0.0,0.0,0.0,0.0,0.0,0.0,0.0,0.0,0.0,0.0,0.0,0.0,0.0,0.0,0.0,0.0,0.0,0.0,0.0,0.0,0.0,0.0,0.0,0.0,0.0,0.0,0.0,0.0,0.0,0.0,0.0,0.0,0.0,0.0,0.0,0.0,0.0,0.0,0.0,0.0,0.0,0.0,0.0,0.0,1.4452,1.5306,1.5965,1.6403,1.668,1.6527,1.5925,1.5351,1.4697,0.0,0.0,0.0,0.0,0.0,0.0,0.0,0.0,0.0,0.0,0.0,0.0,0.0,0.0,0.0,0.0,0.0,0.0,0.0,0.0,0.0,0.0,0.0,0.0,0.0,0.0,0.0,0.0,0.0,0.0,0.0,0.0,0.0,0.0,0.0,0.0,0.0,0.0,0.0,0.0,0.0,1.1531,1.1653,1.1606,0.0,0.0,0.0,0.0,1.0971,1.0618,0.0,0.0,0.0,0.0,0.0,0.0,0.0,0.0,0.0,0.0,0.0,0.0,0.0,0.0,0.0,0.0,0.0,0.0,0.0,0.0,0.0,0.0,0.0,0.0,0.0,0.0,0.0,0.0,0.0,0.0,0.0,0.0,0.0,0.0,0.0,0.0,0.0,0.0,0.0,0.0,0.0,0.0,0.0,0.0,0.0,0.0,0.0,0.0,0.0,0.0,0.0,0.0,0.0,0.0,0.0,0.0,1.4915,1.6012,1.6565,1.6678,1.6969,1.6751,1.5918,1.5375,1.4611,0.0,0.0,0.0,0.0,0.0,0.0,0.0,0.0,0.0,0.0,0.0,0.0,0.0,0.0,0.0,0.0,0.0,0.0,0.0,0.0,0.0,0.0,0.0,0.0,0.0,0.0,0.0,0.0,0.0,0.0,0.0,0.0,0.0,0.0,0.0,0.0,0.0,0.0,0.0,0.0,0.0,1.2278,1.2541,1.2338,1.2176,0.0,0.0,1.2058,1.1893,1.1601,0.0,0.0,0.0,0.0,0.0,0.0,0.0,0.0,0.0,0.0,0.0,0.0,0.0,0.0,0.0,0.0,0.0,0.0,0.0,0.0,0.0,0.0,0.0,0.0,0.0,0.0,0.0,0.0,0.0,0.0,0.0,0.0,0.0,0.0,0.0,0.0,0.0,0.0,0.0,0.0,0.0,0.0,0.0,0.0,0.0,0.0,0.0,0.0,0.0,0.0,0.0,0.0,0.0,0.0,0.0,1.4334,1.5343,1.6251,1.6897,1.7264,1.7408,1.7137,1.6297,1.577,1.5007,0.0,0.0,0.0,0.0,0.0,0.0,0.0,0.0,0.0,0.0,0.0,0.0,0.0,0.0,0.0,0.0,0.0,0.0,0.0,0.0,0.0,0.0,0.0,0.0,0.0,0.0,0.0,0.0,0.0,0.0,0.0,0.0,0.0,0.0,0.0,0.0,0.0,0.0,0.0,0.0,0.0,0.0,1.3201,1.3206,0.0,0.0,0.0,1.2956,1.2962,0.0,0.0,0.0,0.0,0.0,0.0,0.0,0.0,0.0,0.0,0.0,0.0,0.0,0.0,0.0,0.0,0.0,0.0,0.0,0.0,0.0,0.0,0.0,0.0,0.0,0.0,0.0,0.0,0.0,0.0,0.0,0.0,0.0,0.0,0.0,0.0,0.0,0.0,0.0,0.0,0.0,0.0,0.0,0.0,0.0,0.0,0.0,0.0,0.0,0.0,0.0,0.0,0.0,0.0,0.0,0.0,0.0,1.6002,1.693,1.7709,1.8165,1.8218,1.7864,1.7112,1.6413,0.0,0.0,0.0,0.0,0.0,0.0,0.0,0.0,0.0,0.0,0.0,0.0,0.0,0.0,0.0,0.0,0.0,0.0,0.0,0.0,0.0,0.0,0.0,0.0,0.0,0.0,0.0,0.8771,0.0,0.0,0.0,0.0,0.0,0.0,0.0,0.0,0.0,0.0,0.0,0.0,0.0,0.0,1.3138,1.4004,1.3988,1.4053,0.0,0.0,1.3773,1.3864,1.3132,1.239,0.0,0.0,0.0,0.0,0.0,0.0,0.0,0.0,0.0,0.0,0.0,0.0,0.0,0.0,0.0,0.0,0.0,0.0,0.0,0.0,0.0,0.0,0.0,0.0,0.0,0.0,0.0,0.0,0.0,0.0,0.0,0.0,0.0,0.0,0.0,0.0,0.0,0.0,0.0,0.0,0.0,0.0,0.0,0.0,0.0,0.0,0.0,0.0,0.0,0.0,0.0,0.0,0.0,0.0,1.6223,1.7093,1.8503,1.9311,1.9454,1.9533,1.9179,1.8401,1.7527,1.647,0.0,0.0,0.0,0.0,0.0,0.0,0.0,0.0,0.0,0.0,0.0,0.0,0.0,0.0,0.0,0.0,0.0,0.0,0.0,0.0,0.0,0.0,0.0,0.0,0.0,0.0,0.0,0.0,0.0,0.0,0.0,0.0,0.0,0.0,0.0,0.0,0.0,0.0,0.0,0.0,0.0,1.385,1.5021,1.4873,1.4789,0.0,1.4873,1.4566,1.4391,1.3689,1.2923,1.2293,0.0,0.0,0.0,0.0,0.0,0.0,0.0,0.0,0.0,0.0,0.0,0.0,0.0,0.0,0.0,0.0,0.0,0.0,0.0,0.0,0.0,0.0,0.0,0.0,0.0,0.0,0.0,0.0,0.0,0.0,0.0,0.0,0.0,0.0,0.0,0.0,0.0,0.0,0.0,0.0,0.0,0.0,0.0,0.0,0.0,0.0,0.0,0.0,0.0,0.0,0.0,0.0,0.0,1.6577,1.7721,1.887,1.9739,2.0242,2.0302,1.9916,1.9042,1.8467,1.7539,0.0,0.0,0.0,0.0,0.0,0.0,0.0,0.0,0.0,0.0,0.0,0.0,0.0,0.0,0.0,0.0,0.0,0.0,0.0,0.0,0.0,0.0,0.0,0.0,0.0,0.0,0.0,0.0,1.0697,1.0777,1.0753,0.0,0.0,0.0,0.0,0.0,0.0,0.0,0.0,0.0,0.0,1.5138,1.6365,1.6312,0.0,0.0,1.6278,1.5733,1.5643,1.4612,1.3643,1.3157,1.2118,0.0,0.0,0.0,0.0,0.0,0.0,0.0,0.0,0.0,0.0,0.0,0.0,0.0,0.0,0.0,0.0,0.0,0.0,0.0,0.0,0.0,0.0,0.0,0.0,0.0,0.0,0.0,0.0,0.0,0.0,0.0,0.0,0.0,0.0,0.0,0.0,0.0,0.0,0.0,0.0,0.0,0.0,0.0,0.0,0.0,0.0,0.0,0.0,0.0,0.0,0.0,0.0,1.6891,1.8193,1.925,2.012,2.0811,2.0748,2.0438,1.9754,1.9187,1.837,0.0,0.0,0.0,0.0,0.0,0.0,0.0,0.0,0.0,0.0,0.0,0.0,0.0,0.0,0.0,0.0,0.0,0.0,0.0,0.0,0.0,0.0,0.0,0.0,0.0,0.0,0.0,0.0,1.1439,1.1563,1.1405,0.0,0.0,0.0,0.0,0.0,0.0,0.0,0.0,0.0,0.0,1.6243,1.7505,1.7565,1.7623,1.8088,1.7531,1.6965,1.6746,1.5696,1.4732,1.418,0.0,0.0,0.0,0.0,0.0,0.0,0.0,0.0,0.0,0.0,0.0,0.0,0.0,0.0,0.0,0.0,0.0,0.0,0.0,0.0,0.0,0.0,0.0,0.0,0.0,0.0,0.0,1.8663,0.0,0.0,1.7727,0.0,0.0,0.0,0.0,0.0,0.0,0.0,0.0,0.0,0.0,0.0,0.0,0.0,0.0,0.0,0.0,0.0,0.0,0.0,0.0,0.0,0.0,1.7374,1.8389,1.9775,2.0662,2.1065,2.0909,2.0779,2.069,1.9751,1.8734,1.7796,0.0,0.0,0.0,0.0,0.0,0.0,0.0,0.0,0.0,0.0,0.0,0.0,0.0,0.0,0.0,0.0,0.0,0.0,0.0,0.0,0.0,0.0,0.0,0.0,0.0,0.0,1.1869,1.2104,1.229,0.0,0.0,0.0,0.0,0.0,0.0,0.0,0.0,0.0,0.0,1.6288,1.7032,1.8384,1.8571,1.8595,1.8579,1.8562,1.8269,1.7523,1.6902,1.6253,0.0,0.0,0.0,0.0,0.0,0.0,0.0,0.0,0.0,0.0,0.0,0.0,0.0,0.0,0.0,0.0,0.0,0.0,0.0,0.0,0.0,0.0,0.0,0.0,0.0,0.0,0.0,2.0516,2.0221,0.0,0.0,0.0,0.0,0.0,0.0,0.0,0.0,0.0,0.0,0.0,1.9841,1.9926,0.0,0.0,0.0,0.0,0.0,0.0,0.0,0.0,0.0,0.0,0.0,0.0,1.7944,1.8811,1.9962,2.0684,2.0907,2.0841,2.0627,2.0212,1.9856,1.9006,1.7649,0.0,0.0,0.0,0.0,0.0,0.0,0.0,0.0,0.0,0.0,0.0,0.0,0.0,0.0,0.0,0.0,0.0,0.0,0.0,0.0,0.0,0.0,0.0,0.0,0.0,1.3028,0.0,0.0,0.0,0.0,0.0,0.0,0.0,0.0,0.0,0.0,0.0,1.5786,1.6647,1.7372,1.8126,1.9126,1.9151,1.916,0.0,0.0,0.0,0.0,0.0,0.0,0.0,0.0,0.0,0.0,0.0,0.0,0.0,0.0,1.4134,1.2658,1.233,1.2107,1.1654,0.0,0.0,0.0,0.0,0.0,0.0,0.0,0.0,0.0,0.0,0.0,0.0,0.0,0.0,2.2446,0.0,2.1533,0.0,0.0,0.0,0.0,0.0,0.0,0.0,0.0,2.0938,2.1243,2.1253,2.1268,2.0992,0.0,2.0323,1.9656,0.0,0.0,0.0,0.0,0.0,0.0,0.0,0.0,1.8236,1.8911,2.0025,2.0658,2.0739,2.0707,2.0553,2.0138,1.9851,1.9203,1.8137,1.7372,1.649,0.0,0.0,0.0,0.0,0.0,0.0,0.0,0.0,0.0,0.0,0.0,0.0,0.0,0.0,0.0,0.0,0.0,0.0,0.0,0.0,0.0,0.0,0.0,1.3643,0.0,0.0,0.0,0.0,0.0,0.0,0.0,0.0,0.0,1.5296,1.593,1.6802,1.7601,1.815,1.8749,1.9403,0.0,0.0,0.0,0.0,0.0,0.0,0.0,1.7891,1.7488,1.7019,1.6579,1.6294,1.6461,1.6698,1.6706,0.0,0.0,1.4685,1.4275,1.4081,1.3587,1.3442,1.3442,1.3593,1.3448,1.3367,0.0,0.0,0.0,0.0,0.0,0.0,0.0,0.0,2.4194,2.4438,0.0,2.3462,0.0,0.0,0.0,0.0,0.0,2.0936,0.0,0.0,2.2611,2.2971,2.2951,2.2788,2.2665,2.2625,2.217,2.1648,2.0991,1.8773,0.0,0.0,0.0,0.0,0.0,0.0,1.833,1.8757,1.9952,2.0597,2.0588,2.0597,2.0588,2.0529,1.9781,1.9326,1.9279,1.8216,1.7577,1.7476,1.6341,0.0,0.0,0.0,0.0,0.0,0.0,0.0,0.0,0.0,0.0,0.0,0.0,0.0,0.0,0.0,0.0,0.0,0.0,0.0,0.0,1.3726,0.0,0.0,0.0,0.0,0.0,0.0,0.0,0.0,0.0,0.0,1.6797,1.7089,1.7614,1.8566,0.0,0.0,0.0,0.0,1.976,1.9405,1.9641,1.9688,1.9105,1.9033,1.8904,1.8487,0.0,0.0,1.7104,1.7461,1.7756,1.7812,1.821,1.8105,1.6282,1.6021,1.5986,1.5688,1.5656,1.5741,1.5581,1.5257,1.5104,2.8029,0.0,0.0,0.0,0.0,2.5497,2.6192,2.7036,2.7115,2.7074,2.6963,2.6088,0.0,0.0,0.0,0.0,0.0,0.0,2.3867,2.44,2.4471,2.462,2.4744,2.4388,2.4054,2.3722,2.3628,2.3326,2.2818,2.1504,1.9777,1.7754,0.0,0.0,0.0,0.0,1.8807,1.8969,2.0024,2.0516,2.0408,2.0368,2.0289,2.0082,2.006,1.987,1.9583,1.9543,1.9017,1.7969,1.7507,0.0,0.0,0.0,0.0,0.0,0.0,0.0,0.0,0.0,0.0,0.0,0.0,0.0,0.0,0.0,0.0,0.0,0.0,0.0,1.4597,1.5091,1.5445,0.0,0.0,0.0,0.0,0.0,0.0,0.0,0.0,0.0,1.8114,1.8489,1.8798,0.0,0.0,1.9614,1.9726,1.9848,1.9837,1.9764,1.9848,0.0,1.9685,1.9636,1.9524,1.9129,1.8588,1.8125,1.783,1.7911,1.8021,1.8021,1.8158,1.8084,1.7626,1.738,1.7209,1.6888,1.6749,1.6628,1.6531,1.6332,1.6179,3.1297,2.8712,2.7546,2.7305,2.769,2.8053,2.8628,2.923,2.9166,2.9054,2.887,2.7888,2.7097,2.6347,2.5088,0.0,0.0,0.0,2.597,2.6546,2.6371,2.6321,2.6347,2.5782,2.5387,2.5148,2.5096,2.49,2.4465,2.3552,2.204,1.9925,0.0,0.0,1.8139,1.9118,1.9634,1.9664,2.0415,2.077,2.0654,2.0654,2.0615,2.0527,2.0693,2.0719,2.0651,2.0724,2.0286,1.929,1.8916,1.8163,0.0,0.0,0.0,0.0,0.0,0.0,0.0,0.0,0.0,0.0,0.0,1.3244,1.39,0.0,0.0,0.0,1.4954,1.5196,1.5732,1.61,0.0,0.0,0.0,0.0,0.0,0.0,0.0,1.7039,1.8033,1.8743,1.8839,1.9392,1.9765,1.9582,1.9751,1.9912,1.9912,0.0,1.9846,1.9694,1.9666,1.9609,1.9449,1.942,1.9335,1.9099,1.8779,1.8499,1.8351,1.8351,1.8351,1.8351,1.8351,1.8351,1.8351,1.8236,1.8033,1.7687,1.7512,1.7437,1.7371,1.7203,1.7044,3.4114,3.2946,3.1009,3.0194,3.0228,3.0479,3.0841,3.1109,3.0649,3.0568,3.0648,2.9202,2.8285,2.7737,2.6438,0.0,2.6571,2.7233,2.7853,2.8328,2.8221,2.8061,2.7763,2.7058,2.6697,2.664,2.661,2.6374,2.5943,2.507,2.4139,2.3249,2.1406,2.0303,2.0057,2.043,2.0673,2.0636,2.1022,2.1282,2.1282,2.1282,2.1397,2.154,2.1589,2.1749,2.2075,2.1702,2.1348,2.1029,2.0442,1.9564,1.8408,0.0,0.0,0.0,0.0,0.0,0.0,0.0,0.0,0.0,0.0,0.0,0.0,0.0,0.0,0.0,1.6068,0.0,1.6886,1.6945,0.0,0.0,0.0,1.7133,1.7491,1.7803,1.792,1.7871,0.0,0.0,1.9184,2.0021,2.0489,2.0059,1.9981,1.9942,1.9942,1.9943,1.9762,1.944,1.9345,1.9193,1.8936,1.8822,1.8738,1.8719,1.8644,1.8578,1.8541,1.8541,1.8579,1.8541,1.8589,1.856,1.8579,1.8514,1.8479,1.8064,1.811,1.8109,1.8064,1.7833,1.7685,3.5917,3.4917,3.4412,3.3409,3.2217,3.2263,3.2461,3.2737,3.263,3.2354,3.198,3.1221,3.0365,2.9493,2.916,2.9194,2.9479,2.9682,2.9885,3.0131,2.9977,2.954,2.8928,2.8575,2.8181,2.7777,2.7568,2.7418,2.7255,2.6212,2.5363,2.4833,2.3616,2.2269,2.0878,2.1105,2.1198,2.1235,2.1504,2.1731,2.1883,2.2025,2.2138,2.2187,2.2327,2.2344,2.2185,2.2393,2.2088,2.1295,2.1025,2.0482,1.9523,1.8388,0.0,0.0,0.0,0.0,0.0,0.0,0.0,0.0,0.0,1.533,1.5683,0.0,1.6448,0.0,1.7513,1.7912,1.8067,1.8222,0.0,0.0,1.8448,1.8622,1.8753,1.9075,1.9347,1.9353,2.0092,2.0511,2.0262,2.0711,2.1012,2.0886,2.0605,2.045,2.0401,2.011,1.9887,1.9724,1.949,1.9267,1.9122,1.886,1.8585,1.8497,1.8184,1.7919,1.7799,1.7764,1.7764,1.7764,1.7808,1.7764,1.7827,1.7799,1.7773,1.7706,1.8122,1.8479,1.8159,1.8039,1.7918,3.6554,3.5633,3.5633,3.5026,3.4087,3.4087,3.4061,3.3961,3.3961,3.3536,3.2746,3.1969,3.1211,3.042,3.042,3.0638,3.0996,3.1008,3.1173,3.1484,3.0903,3.0399,2.9946,2.9363,2.8907,2.8578,2.8435,2.8383,2.8323,2.7124,2.6408,2.6168,2.5077,2.401,2.3011,2.2553,2.2377,2.2388,2.2525,2.2665,2.2777,2.2889,2.2964,2.3065,2.2941,2.2892,2.2876,2.2863,2.2503,2.1828,2.1835,2.1411,2.0393,1.9761,1.9129,0.0,0.0,0.0,0.0,0.0,0.0,0.0,0.0,0.0,0.0,0.0,1.8174,1.8545,1.8884,1.9286,1.9749,1.9886,2.0044,2.0292,2.0414,2.0443,2.0413,2.0705,2.0839,2.0598,2.1167,2.14,2.1038,2.134,2.1578,2.1512,2.1272,2.1069,2.0847,2.0462,2.0088,1.9797,1.9413,1.9023,1.876,1.8516,1.8334,1.8211,1.8027,1.7794,1.7745,1.7745,1.771,1.771,1.7745,1.771,1.7745,1.771,1.771,1.7768,1.8075,1.8251,1.7989,1.7897,1.7846,3.6579,3.5716,3.5704,3.5716,3.5716,3.5704,3.5385,3.492,3.4908,3.4305,3.3236,3.2167,3.1459,3.1033,3.1033,3.1346,3.1772,3.1772,3.2031,3.2413,3.144,3.0964,3.0852,2.9761,2.9283,2.9182,2.917,2.9131,2.9094,2.7847,2.7236,2.7199,2.5985,2.5382,2.5347,2.4383,2.3849,2.374,2.374,2.374,2.374,2.374,2.3824,2.3984,2.3492,2.3373,2.3653,2.3153,2.2729,2.2412,2.2526,2.2155,2.1131,2.1176,2.0706,0.0,1.9802,0.0,0.0,0.0,0.0,0.0,0.0,0.0,0.0,1.9687,1.9912,2.0217,2.0268,2.0662,2.1519,2.1564,2.1767,2.2184,2.2275,2.2228,2.2134,2.2302,2.2246,2.18,2.2196,2.2318,2.1771,2.1971,2.2138,2.2025,2.1987,2.1835,2.1451,2.0865,2.0253,1.9716,1.9177,1.8681,1.8267,1.8115,1.8061,1.8052,1.8027,1.8008,1.7974,1.7974,1.8008,1.8008,1.7974,1.7974,1.8008,1.8008,1.8008,1.7974,1.8022,1.7998,1.7823,1.7788,1.7818,3.6816,3.6275,3.6275,3.6263,3.6228,3.6275,3.5928,3.5461,3.5473,3.4858,3.3777,3.272,3.2309,3.2327,3.2357,3.2505,3.2789,3.2845,3.2852,3.2957,3.2251,3.1701,3.1251,3.0626,3.01,2.9688,2.9443,2.9341,2.9328,2.8074,2.7446,2.7409,2.632,2.5758,2.5793,0.0,0.0,0.0,2.4504,2.4492,2.4504,2.455,2.461,2.4634,2.412,0.0,2.3514,2.3039,2.2582,2.2253,2.2279,0.0,0.0,0.0,0.0,0.0,0.0,0.0,0.0,0.0,0.0,0.0,2.12,2.0925,1.9977,2.0712,2.1475,2.1958,2.2259,2.2496,2.2681,2.2546,2.2502,2.2593,2.2605,2.2765,2.3108,2.3244,2.3322,2.3446,2.3419,2.3276,2.2992,2.2883,2.2815,2.2788,2.2777,2.274,2.2654,2.1308,2.0262,2.0017,1.9273,1.8568,1.8424,1.8303,1.8279,1.8202,1.811,1.8008,1.8042,1.8008,1.8008,1.8008,1.8008,1.8008,1.8008,1.8008,1.8008,1.8008,1.8008,1.8008,1.7964,1.794,1.7974,3.692,0.0,3.6417,3.6417,0.0,3.6417,3.6078,3.5546,3.5546,3.4938,3.3916,3.3096,3.281,3.2896,3.2896,3.2982,3.3124,3.3124,3.2918,3.2629,3.2064,3.1512,3.0997,3.0457,3.0055,2.9804,2.965,2.9462,2.9111,2.8251,2.7679,2.7394,2.6574,2.6188,2.6188,2.6223,2.5898,2.5312,2.5312,2.5264,2.53,2.5336,2.5312,2.5182,2.4429,0.0,0.0,0.0,0.0,0.0,0.0,0.0,0.0,0.0,0.0,2.1789,2.1566,2.138,2.129,2.1362,2.159,2.2063,2.2666,2.2663,2.1894,2.2389,2.2837,2.3087,2.3307,2.3501,2.3703,2.3647,2.3695,2.3931,2.3978,2.4073,2.4237,2.4296,2.4295,2.4312,2.4236,2.4127,2.3934,2.3824,2.3714,2.3604,2.3604,2.3593,2.3452,2.2244,2.11,2.0428,1.953,1.8841,1.8674,1.8607,1.8506,1.8414,1.8313,1.8245,1.8245,1.8245,1.8212,1.8178,1.8134,1.8144,1.8042,1.8008,1.8008,1.8008,1.8008,1.8008,1.8008,1.8008,1.8008,3.682,3.6417,3.6417,3.6417,3.6405,3.6292,3.5843,3.5207,0.0,0.0,0.0,3.3319,3.3124,3.3124,3.3124,3.3124,3.3124,3.3124,3.2767,3.219,3.165,3.111,3.0595,3.0055,2.9779,2.9779,2.9691,2.939,2.8875,2.8273,2.7733,2.7304,2.6763,2.6487,2.6487,2.6487,2.6327,2.6015,2.5968,2.5945,2.5945,2.5898,2.5828,2.5641,2.4703,2.4089,2.3893,2.293,2.2375,2.229,2.2247,2.2216,2.2216,2.2216,2.2197,2.2197,2.2282,2.233,2.233,2.2445,2.2754,2.3317,2.3784,2.4005,2.3938,2.3938,2.3974,2.4071,2.4071,2.4251,2.4614,2.4662,2.4831,2.5276,2.5312,2.5229,2.5147,2.5147,2.5028,2.4921,2.4861,2.479,2.4634,2.4526,2.449,2.4345,2.4273,2.4309,2.412,2.3055,2.1789,2.0741,1.9947,1.9342,1.9131,1.9042,1.8942,1.8841,1.8707,1.864,1.864,1.8617,1.8516,1.8414,1.8371,1.8279,1.8154,1.811,1.8076,1.8066,1.811,1.8076,1.8032,1.8042,1.8042,3.648,3.6417,3.6417,3.6417,3.638,3.5855,3.5031,3.4148,3.4135,3.4048,3.3859,3.3307,3.3124,3.3124,3.3124,3.3124,3.3124,3.3124,3.2767,3.219,3.165,3.1122,3.0595,3.0055,2.9779,2.9754,2.9302,2.8976,2.8787,2.7896,2.7392,2.7218,2.6776,2.6487,2.6487,2.6487,2.6465,2.643,2.6236,2.6166,2.6166,2.598,2.5875,2.5851,2.5274,2.4734,2.4247,2.3646,2.3095,2.2653,2.2463,2.2389,2.2359,2.2271,2.2197,2.2221,2.265,2.2871,2.2915,2.3409,2.407,2.4716,2.4884,2.4786,2.4444,2.4388,2.4602,2.5023,2.5047,2.5119,2.5192,2.518,2.5204,2.5288,2.5312,2.5276,2.5241,2.5276,2.5241,2.5218,2.5111,2.5052,2.4981,2.4838,2.4754,2.4718,2.4706,2.4718,2.447,2.3291,2.2012,2.1173,2.0457,2.0042,1.9879,1.9791,1.9693,1.9704,1.9386,1.921,1.9177,1.8998,1.8841,1.8741,1.865,1.8516,1.8448,1.8414,1.8448,1.8448,1.8438,1.8414,1.8313,1.8279,1.8202,3.6417,3.6367,3.6044,3.5918,3.5855,3.5014,3.4361,3.3872,3.3571,3.3458,3.342,3.3181,3.3124,3.3124,3.3124,3.3124,3.3068,3.2754,3.2303,3.1738,3.121,3.0696,3.0181,2.9905,2.9779,2.9754,2.9164,2.8737,2.8386,2.767,2.713,2.6876,2.6612,2.6487,2.6487,2.6487,2.6487,2.6487,2.6396,2.6374,2.6374,2.6258,2.6188,2.6062,2.5552,2.5077,2.4743,2.4214,2.3808,2.3575,2.3487,2.3423,2.3423,2.3359,2.334,2.334,2.3559,2.3693,2.3693,2.4258,2.474,2.5087,2.5382,2.546,2.5288,2.5172,2.5164,2.5288,2.5312,2.5312,2.5312,2.5312,2.5312,2.5312,2.5312,2.5312,2.5312,2.5312,2.5312,2.5312,2.5241,2.5206,2.5218,2.5123,2.5087,2.5052,2.504,2.5087,2.5028,2.4085,2.304,2.2285,2.1413,2.0777,2.056,2.0506,2.0377,2.0204,2.0031,1.9868,1.977,1.9584,1.9495,1.9407,1.9308,1.9208,1.9142,1.9108,1.9075,1.8931,1.8875,1.8774,1.8607,1.8482,1.8313,3.6182,3.6132,3.5592,3.5232,3.5056,3.4274,3.3834,3.3671,3.3257,3.3124,3.3124,3.3124,3.3124,3.3124,3.3124,3.3048,3.283,3.2416,3.1851,3.121,3.0796,3.0331,2.9829,2.9779,2.9779,2.9704,2.9076,2.8524,2.8072,2.7431,2.6914,2.6524,2.6487,2.6487,2.6487,2.6487,2.6487,2.6487,2.6487,2.6487,2.6487,2.6487,2.643,2.6245,2.5868,2.5514,2.5222,2.4814,2.4542,2.4431,2.4398,2.4365,2.4365,2.4333,2.4288,2.43,2.4411,2.4534,2.4735,2.5117,2.5351,2.5419,2.5802,2.6015,2.5945,2.5828,2.5641,2.5453,2.5382,2.5382,2.5382,2.5312,2.5312,2.5312,2.5312,2.5312,2.5312,2.5312,2.5312,2.5312,2.5312,2.5312,2.5312,2.5312,2.5276,2.5276,2.5312,2.5312,2.5216,2.4691,2.39,2.3236,2.2285,2.1542,2.1172,2.1094,2.0967,2.072,2.0656,2.0581,2.042,2.0355,2.0237,2.0129,2.0064,1.9955,1.9857,1.9802,1.9726,1.9573,1.9452,1.9264,1.9042,1.8751,1.8482,3.5571,3.5495,3.4994,3.45,3.4073,3.3935,3.3608,3.3237,3.3093,3.3124,3.3124,3.3124,3.3124,3.3124,3.3111,3.278,3.2328,3.224,3.165,3.0771,3.0645,3.0319,2.9817,2.9779,2.9779,2.9654,2.8725,2.8197,2.8047,2.7102,2.6549,2.6499,2.6487,2.6487,2.6487,2.6487,2.6487,2.6487,2.6487,2.6487,2.6487,2.6487,2.6487,2.6465,2.6414,2.6126,2.5594,2.5515,2.5244,2.4818,2.4676,2.4598,2.4566,2.441,2.4312,2.4337,2.4755,2.5302,2.5908,2.6079,2.6136,2.6355,2.6393,2.6399,2.6226,2.6191,2.6074,2.5924,2.5712,2.5571,2.5571,2.5418,2.5347,2.5347,2.5347,2.5312,2.5312,2.5312,2.5312,2.5312,2.5312,2.5312,2.5312,2.5312,2.5312,2.5312,2.5312,2.5312,2.524,2.4566,2.392,2.3604,2.295,2.2204,2.1733,2.1604,2.1529,2.1529,2.1411,2.1273,2.1135,2.0976,2.0796,2.0775,2.0679,2.0571,2.0506,2.0399,2.0334,2.0258,2.0096,1.9868,1.9561,1.9175,1.8741,3.5006,3.4969,3.4462,3.3909,3.3445,3.3407,3.3294,3.3136,3.3124,3.3124,3.3124,3.3124,3.3124,3.3099,3.2729,3.2428,3.2135,3.1562,3.1047,3.0555,3.0281,3.0005,2.9804,2.9779,2.9779,2.9691,2.8637,2.8109,2.7921,2.7027,2.6487,2.6487,2.6487,2.6487,2.6487,2.6487,2.6487,2.6487,2.6487,2.6487,2.6487,2.6487,2.6487,2.6487,2.6487,2.6399,2.6172,2.6135,2.6047,2.5812,2.5753,2.5732,2.5732,2.5652,2.5585,2.561,2.5797,2.6055,2.6349,2.6361,2.6396,2.6487,2.6801,2.6919,2.6909,2.7149,2.7301,2.7106,2.6362,2.5793,2.577,2.5723,2.5641,2.5641,2.5641,2.5606,2.55,2.5453,2.5465,2.5312,2.5312,2.5312,2.5312,2.5312,2.5312,2.5312,2.5312,2.5312,2.5264,2.4675,2.4145,2.3785,2.323,2.2607,2.2099,2.198,2.1949,2.1843,2.1769,2.1694,2.158,2.1498,2.1371,2.136,2.1265,2.1233,2.1265,2.1201,2.1126,2.0987,2.0635,2.0302,1.9955,1.966,1.9374,3.45,3.4412,3.3909,3.3445,3.3136,3.3124,3.3124,3.3124,3.3124,3.3124,3.3124,3.3124,3.3023,3.2792,3.239,3.2077,3.17,3.0931,3.052,3.0369,2.9967,2.9779,2.9779,2.9779,2.9779,2.9603,2.8649,2.7959,2.7607,2.6939,2.6487,2.6487,2.6487,2.6487,2.6487,2.6487,2.6487,2.6487,2.6487,2.6487,2.6487,2.6487,2.6487,2.6487,2.6487,2.6487,2.6487,2.6487,2.6487,2.6487,2.6487,2.6487,2.6487,2.6487,2.6487,2.6487,2.6487,2.6487,2.6487,2.6625,2.6725,2.6763,2.7228,2.7507,2.7605,2.7883,2.8097,2.7985,2.7131,2.6482,2.6202,2.6167,2.6082,2.5947,2.5923,2.584,2.5711,2.5641,2.5535,2.5418,2.5347,2.5312,2.5312,2.5312,2.5312,2.5312,2.5312,2.5312,2.5204,2.4747,2.4145,2.383,2.322,2.2654,2.227,2.2166,2.2104,2.2061,2.1956,2.1937,2.1855,2.1855,2.1824,2.1781,2.1812,2.1824,2.1749,2.1749,2.1655,2.1443,2.1115,2.0732,2.0539,2.028,2.002,3.3935,3.3859,3.3345,3.3119,3.3124,3.3124,3.3124,3.3124,3.3124,3.3124,3.3124,3.3086,3.2767,3.2252,3.2152,3.165,3.0809,3.0633,3.0306,2.9892,2.9817,2.9779,2.9779,2.9779,2.9779,2.9704,2.8712,2.7657,2.6738,2.6537,2.6487,2.6487,2.6487,2.6487,2.6487,2.6487,2.6487,2.6487,2.6487,2.6487,2.6487,2.6487,2.6487,2.6487,2.6487,2.6487,2.6487,2.6487,2.6487,2.6487,2.6487,2.6487,2.6487,2.6487,2.6487,2.6487,2.6487,2.6487,2.6549,2.6952,2.7241,2.7293,2.7745,2.8072,2.8084,2.8197,2.8273,2.816,2.8098,2.7688,2.7071,2.6766,2.6462,2.6056,2.5957,2.591,2.5898,2.5758,2.5606,2.5571,2.543,2.5347,2.5312,2.5312,2.5312,2.5312,2.5312,2.5312,2.518,2.4516,2.395,2.3637,2.3023,2.2221,2.2197,2.2197,2.2197,2.2123,2.2123,2.2166,2.2166,2.2166,2.2154,2.2123,2.2092,2.2092,2.2123,2.203,2.1874,2.1675,2.1526,2.1242,2.1019,2.0764,2.0539,3.337,3.3357,3.3199,3.3124,3.3124,3.3124,3.3124,3.3124,3.3124,3.3124,3.3006,3.2692,3.2215,3.1675,3.1336,3.0944,3.0583,3.0256,2.998,2.9792,2.9779,2.9779,2.9779,2.9779,2.9779,2.9666,2.9001,2.8072,2.7042,2.6675,2.6487,2.6487,2.6487,2.6487,2.6487,2.6487,2.6487,2.6487,2.6487,2.6487,2.6487,2.6487,2.6487,2.6487,2.6487,2.6487,2.6487,2.6487,2.6487,2.6487,2.6487,2.6487,2.6487,2.6487,2.6487,2.6487,2.6487,2.6487,2.6549,2.7014,2.7329,2.7392,2.8134,2.8587,2.8699,2.8963,2.9189,2.9176,2.9176,2.8888,2.8225,2.754,2.6993,2.6829,2.6469,2.6248,2.6119,2.6015,2.5945,2.5793,2.5606,2.5488,2.5465,2.5382,2.5312,2.5312,2.5312,2.5312,2.5155,2.4422,2.3806,2.3637,2.2907,2.2197,2.2197,2.2197,2.2197,2.2197,2.2197,2.2166,2.2197,2.2197,2.2154,2.2154,2.2197,2.2197,2.2154,2.2123,2.1999,2.1874,2.1726,2.1632,2.1549,2.1221,2.0987,3.3124,3.3124,3.3124,3.3124,3.3124,3.3124,3.3124,3.3124,3.3124,3.3124,3.3011,3.2466,3.1901,3.1361,3.0806,3.0507,3.0331,2.9955,2.9779,2.9779,2.9779,2.9779,2.9779,2.9779,2.9779,2.9704,2.9214,2.836,2.7392,2.6952,2.6688,2.6512,2.6487,2.6487,2.6487,2.6487,2.6487,2.6487,2.6487,2.6487,2.6487,2.6487,2.6487,2.6487,2.6487,2.6487,2.6487,2.6487,2.6487,2.6487,2.6487,2.6487,2.6487,2.6487,2.6487,2.6487,2.6487,2.6487,2.6587,2.713,2.7557,2.7607,2.8549,2.9214,2.9239,2.9566,2.9754,2.9779,2.9779,2.9591,2.9164,2.8373,2.7758,2.7532,2.709,2.6706,2.6542,2.6348,2.6121,2.591,2.5793,2.5723,2.5688,2.5583,2.5535,2.5488,2.55,2.55,2.5379,2.4594,2.386,2.3776,2.2923,2.2306,2.2197,2.2197,2.2197,2.2197,2.2197,2.2197,2.2197,2.2197,2.2197,2.2197,2.2197,2.2197,2.2197,2.2197,2.2135,2.1999,2.1968,2.1894,2.1769,2.1612,2.138,3.3124,3.3124,3.3124,3.3124,3.3124,3.3124,3.3124,3.3124,3.3124,3.3124,3.3048,3.2466,3.1901,3.1361,3.0859,3.0331,2.9917,2.9817,2.9779,2.9779,2.9779,2.9779,2.9779,2.9779,2.9779,2.9754,2.9164,2.8398,2.7469,2.7366,2.7077,2.6612,2.6575,2.6562,2.6487,2.6487,2.6487,2.6487,2.6487,2.6487,2.6487,2.6487,2.6487,2.6487,2.6487,2.6487,2.6487,2.6487,2.6487,2.6487,2.6487,2.6487,2.6487,2.6487,2.6487,2.6487,2.6487,2.6487,2.66,2.7444,2.8021,2.816,2.9114,2.9691,2.9691,2.9754,2.9779,2.9779,2.9779,2.9741,2.9654,2.9202,2.8612,2.816,2.762,2.7306,2.7107,2.6617,2.6131,2.598,2.591,2.591,2.5898,2.5863,2.5793,2.584,2.584,2.584,2.5732,2.4847,2.4159,2.381,2.3151,2.2476,2.2313,2.2197,2.2197,2.2197,2.2197,2.2197,2.2197,2.2197,2.2197,2.2197,2.2197,2.2197,2.2197,2.2197,2.2197,2.2135,2.2123,2.2092,2.1968,2.18,2.1675,3.3124,3.3124,3.3124,3.3124,3.3124,3.3124,3.3124,3.3124,3.3124,3.3124,3.3011,3.2466,3.1913,3.1373,3.0846,3.0319,2.9817,2.9779,2.9792,2.9804,2.9792,2.9779,2.9779,2.9779,2.9779,2.9691,2.9202,2.8737,2.8398,2.8021,2.7582,2.713,2.703,2.6851,2.6524,2.6487,2.6487,2.6487,2.6487,2.6487,2.6487,2.6487,2.6487,2.6487,2.6487,2.6487,2.6487,2.6487,2.6487,2.6487,2.6487,2.6487,2.6487,2.6487,2.6487,2.6487,2.6487,2.6487,2.6625,2.7457,2.8109,2.831,2.9151,2.9704,2.9779,2.9779,2.9779,2.9779,2.9779,2.9779,2.9754,2.9654,2.9252,2.8725,2.8185,2.7682,2.7281,2.6756,2.6446,2.6292,2.6201,2.6131,2.6097,2.6027,2.5945,2.5945,2.5945,2.5957,2.5787,2.5249,2.4615,2.4214,2.3401,2.2715,2.2539,2.2332,2.2216,2.2197,2.2197,2.2197,2.2197,2.2197,2.2197,2.2197,2.2197,2.2197,2.2197,2.2197,2.2197,2.2197,2.2166,2.2123,2.2092,2.1999,2.1862,3.3124,3.3124,3.3124,3.3124,3.3124,3.3124,3.3124,3.3124,3.3124,3.3124,3.3011,3.2466,3.2026,3.1637,3.1135,3.0733,3.0382,3.0193,3.0105,3.0055,2.9854,2.9792,2.9779,2.9779,2.9779,2.9729,2.9428,2.9088,2.8875,2.8537,2.8134,2.767,2.7595,2.7354,2.6851,2.6788,2.6738,2.6537,2.6487,2.6487,2.6487,2.6487,2.6487,2.6487,2.6487,2.6487,2.6487,2.6487,2.6487,2.6487,2.6487,2.6487,2.6487,2.6487,2.6487,2.6487,2.6512,2.6575,2.6839,2.7595,2.8222,2.8511,2.9264,2.9767,2.9779,2.9779,2.9779,2.9779,2.9779,2.9779,2.9779,2.9779,2.9603,2.9302,2.8737,2.8097,2.7419,2.6826,2.6537,2.6452,2.6361,2.6339,2.627,2.6236,2.6107,2.6107,2.6119,2.6119,2.6008,2.5589,2.5098,2.455,2.3806,2.3245,2.2766,2.2522,2.2271,2.2216,2.2197,2.2197,2.2197,2.2197,2.2197,2.2197,2.2197,2.2197,2.2197,2.2197,2.2197,2.2197,2.2197,2.2166,2.2123,2.2123,2.203,3.3124,3.3124,3.3124,3.3124,3.3124,3.3124,3.3124,3.3124,3.3124,3.3124,3.2998,3.2566,3.2252,3.2089,3.1637,3.1373,3.1286,3.0871,3.0645,3.0507,3.0168,2.988,2.9804,2.9779,2.9779,2.9779,2.9754,2.9478,2.9051,2.8976,2.865,2.8197,2.8134,2.7871,2.7431,2.7366,2.7102,2.6688,2.6587,2.6587,2.6512,2.6487,2.6487,2.6487,2.6487,2.6524,2.6612,2.67,2.6637,2.6512,2.6487,2.6487,2.6487,2.6487,2.6487,2.6499,2.6512,2.6826,2.7291,2.7871,2.8398,2.88,2.939,2.9779,2.9779,2.9779,2.9779,2.9779,2.9779,2.9779,2.9779,2.9779,2.9754,2.9716,2.9089,2.8323,2.7482,2.6876,2.6537,2.6487,2.6487,2.6487,2.6452,2.6452,2.6452,2.6452,2.6452,2.643,2.6321,2.5952,2.5535,2.4996,2.4344,2.3727,2.3276,2.2839,2.2563,2.2216,2.2197,2.2221,2.2197,2.2197,2.2197,2.2197,2.2197,2.2197,2.2197,2.2197,2.2197,2.2197,2.2197,2.2197,2.2166,2.2166,2.2147,3.3124,3.3124,3.3124,3.3124,3.3124,3.3124,3.3124,3.3124,3.3124,3.3124,3.3061,3.2918,3.2604,3.2215,3.2077,3.1788,3.1486,3.126,3.1185,3.1097,3.0645,3.0156,2.9854,2.9779,2.9779,2.9779,2.9779,2.9716,2.9566,2.9515,2.9239,2.8725,2.8675,2.8448,2.7984,2.7896,2.7595,2.7178,2.7102,2.6901,2.6587,2.6549,2.6487,2.6487,2.6524,2.6725,2.7102,2.7457,2.7278,2.6549,2.6487,2.6487,2.6562,2.6562,2.6587,2.6637,2.6914,2.7165,2.7444,2.816,2.87,2.8938,2.9478,2.9779,2.9779,2.9779,2.9779,2.9779,2.9779,2.9779,2.9779,2.9779,2.9779,2.9666,2.9001,2.826,2.7808,2.709,2.6487,2.6487,2.6487,2.6487,2.6487,2.6487,2.6487,2.6487,2.6487,2.6487,2.6424,2.6339,2.5983,2.5611,2.5037,2.4352,2.3727,2.3274,2.2832,2.2313,2.2209,2.2258,2.2221,2.2197,2.2197,2.2197,2.2197,2.2197,2.2197,2.2197,2.2197,2.2197,2.2197,2.2197,2.2197,2.2209,2.2258,3.3124,3.3124,3.3124,3.3124,3.3124,3.3124,3.3124,3.3124,3.3124,3.3124,3.3124,3.3124,3.2893,3.2591,3.2566,3.2416,3.2089,3.1838,3.1738,3.165,3.1185,3.0532,2.9967,2.9779,2.9779,2.9779,2.9779,2.9779,2.9767,2.9779,2.9591,2.9352,2.9302,2.9001,2.8486,2.8436,2.8185,2.7733,2.7632,2.7444,2.7216,2.719,2.719,2.719,2.719,2.7366,2.7645,2.7934,2.7783,2.7281,2.719,2.719,2.719,2.719,2.7155,2.7168,2.7482,2.772,2.8034,2.8574,2.8976,2.9277,2.9654,2.9741,2.9779,2.9779,2.9779,2.9779,2.9779,2.9779,2.9779,2.9779,2.9779,2.9691,2.8976,2.8336,2.8134,2.7165,2.6587,2.6487,2.6487,2.6487,2.6487,2.6487,2.6487,2.6487,2.6487,2.6487,2.6474,2.6474,2.6411,2.6038,2.5632,2.5012,2.4455,2.401,2.3502,2.2974,2.269,2.2642,2.239,2.233,2.2209,2.2221,2.2209,2.2197,2.2197,2.2197,2.2197,2.2197,2.2197,2.2221,2.2234,2.2541,2.2522,3.3124,3.3124,3.3124,3.3124,3.3124,3.3124,3.3124,3.3124,3.3124,3.3124,3.3124,3.3124,3.3086,3.3124,3.3011,3.3074,3.3036,3.2503,3.2265,3.2051,3.165,3.0997,3.0206,3.0018,2.9905,2.9817,2.9779,2.9779,2.9779,2.9779,2.9779,2.9691,2.9729,2.9515,2.9114,2.8976,2.8725,2.8298,2.8197,2.8084,2.7934,2.7908,2.7883,2.7908,2.8059,2.8097,2.8197,2.831,2.831,2.8285,2.8185,2.7996,2.8034,2.8072,2.8047,2.8034,2.8097,2.8386,2.8762,2.89,2.9201,2.9641,2.9741,2.9779,2.9779,2.9779,2.9779,2.9779,2.9779,2.9779,2.9779,2.9779,2.9779,2.9691,2.9239,2.8675,2.8147,2.7253,2.6562,2.6487,2.6487,2.6487,2.6487,2.6487,2.6487,2.6487,2.6487,2.6487,2.6487,2.6487,2.6474,2.6399,2.6038,2.5645,2.5191,2.4777,2.4275,2.3753,2.3501,2.3312,2.2818,2.2626,2.2385,2.2246,2.2209,2.2197,2.2197,2.2197,2.2234,2.227,2.233,2.233,2.2366,2.2891,2.3083,3.3124,3.3124,3.3124,3.3124,3.3124,3.3124,3.3124,3.3124,3.3124,3.3124,3.3124,3.3124,3.3124,3.3124,3.3124,3.3124,3.3124,3.288,3.2667,3.2202,3.2127,3.1675,3.1035,3.067,3.0218,2.9942,2.9792,2.9792,2.9804,2.9779,2.9779,2.9779,2.9779,2.9729,2.9603,2.9515,2.9327,2.885,2.8725,2.8549,2.826,2.8222,2.8222,2.8235,2.8512,2.87,2.8863,2.9202,2.9415,2.9227,2.8649,2.826,2.8247,2.821,2.8235,2.8323,2.8574,2.8787,2.895,2.934,2.9628,2.9741,2.9779,2.9779,2.9779,2.9779,2.9779,2.9779,2.9779,2.9779,2.9779,2.9779,2.9779,2.9679,2.9327,2.8875,2.8599,2.7758,2.7002,2.665,2.6512,2.6487,2.6487,2.6487,2.6487,2.6487,2.6487,2.6487,2.6487,2.6487,2.6487,2.6487,2.6361,2.5979,2.5644,2.5243,2.4826,2.4441,2.4222,2.395,2.3457,2.3119,2.2919,2.2582,2.2197,2.2258,2.2522,2.239,2.2462,2.2474,2.259,2.2734,2.2963,2.336,2.3625,3.3124,3.3124,3.3124,3.3124,3.3124,3.3124,3.3124,3.3124,3.3124,3.3124,3.3124,3.3124,3.3124,3.3124,3.3124,3.3124,3.3124,3.3124,3.2918,3.2667,3.2604,3.2303,3.1851,3.1449,3.0997,3.0306,3.0193,3.008,2.9867,2.9804,2.9779,2.9779,2.9779,2.9779,2.9779,2.9779,2.9628,2.9415,2.9327,2.9164,2.8938,2.89,2.89,2.8913,2.9176,2.934,2.9377,2.9591,2.9754,2.9641,2.9227,2.8888,2.8888,2.89,2.8888,2.8963,2.9126,2.9327,2.9453,2.9591,2.9767,2.9779,2.9779,2.9779,2.9779,2.9779,2.9779,2.9779,2.9779,2.9779,2.9779,2.9779,2.9779,2.9754,2.9528,2.9239,2.8837,2.7959,2.7205,2.6876,2.6663,2.6549,2.6487,2.6487,2.6487,2.6487,2.6487,2.6487,2.6487,2.6487,2.6487,2.6487,2.6487,2.6327,2.6036,2.5685,2.5306,2.499,2.4781,2.4482,2.4109,2.3821,2.3592,2.3183,2.2787,2.2955,2.3168,2.2943,2.2859,2.3107,2.3276,2.3348,2.3517,2.3821,2.4037,3.3124,3.3124,3.3124,3.3124,3.3124,3.3124,3.3124,3.3124,3.3124,3.3124,3.3124,3.3124,3.3124,3.3124,3.3124,3.3124,3.3124,3.3124,3.3048,3.3036,3.3023,3.2742,3.239,3.2215,3.1825,3.0934,3.0771,3.047,3.0093,2.9905,2.993,2.9829,2.9779,2.9779,2.9779,2.9779,2.9754,2.9691,2.9691,2.9691,2.9654,2.9654,2.9654,2.9654,2.9666,2.9704,2.9691,2.9767,2.9779,2.9779,2.9779,2.9779,2.9779,2.9779,2.9779,2.9741,2.9704,2.9691,2.9679,2.9754,2.9779,2.9779,2.9779,2.9779,2.9779,2.9779,2.9779,2.9779,2.9779,2.9779,2.9779,2.9779,2.9779,2.9779,2.9779,2.9553,2.9038,2.8134,2.7657,2.7241,2.6964,2.6776,2.6575,2.6487,2.6487,2.6487,2.6487,2.6487,2.6487,2.6487,2.6487,2.6487,2.6487,2.6314,2.6061,2.5896,2.5538,2.5282,2.5131,2.4939,2.4675,2.4554,2.4266,2.3842,2.3601,2.3685,2.3661,2.3481,2.3529,2.3794,2.389,2.3869,2.4061,2.4326,2.447,3.3124,3.3124,3.3124,3.3124,3.3124,3.3124,3.3124,3.3124,3.3124,3.3124,3.3124,3.3124,3.3124,3.3124,3.3124,3.3124,3.3124,3.3124,3.3124,3.3124,3.3124,3.2986,3.2893,3.2805,3.2478,3.1976,3.1537,3.106,3.0595,3.0457,3.0256,2.9905,2.9842,2.9842,2.9804,2.9779,2.9779,2.9779,2.9779,2.9779,2.9779,2.9779,2.9779,2.9779,2.9779,2.9779,2.9779,2.9779,2.9779,2.9779,2.9779,2.9779,2.9779,2.9779,2.9779,2.9779,2.9779,2.9779,2.9779,2.9779,2.9779,2.9779,2.9779,2.9779,2.9779,2.9779,2.9779,2.9779,2.9779,2.9779,2.9779,2.9779,2.9779,2.9779,2.9779,2.9741,2.9503,2.9001,2.8185,2.7544,2.7278,2.6952,2.6675,2.6487,2.6487,2.6487,2.6487,2.6487,2.6487,2.6487,2.6487,2.6487,2.6487,2.6245,2.5965,2.5918,2.5697,2.5415,2.5275,2.524,2.5095,2.5168,2.4915,2.4398,2.4083,2.3998,2.395,2.3974,2.4011,2.4155,2.4254,2.4398,2.4554,2.4723,2.4927,3.3124,3.3124,3.3124,3.3124,3.3124,3.3124,3.3124,3.3124,3.3124,3.3124,3.3124,3.3124,3.3124,3.3124,3.3124,3.3124,3.3124,3.3124,3.3124,3.3124,3.3124,3.3124,3.3124,3.3124,3.293,3.2641,3.2353,3.1775,3.1097,3.1009,3.0708,3.0344,3.0218,3.0093,2.9842,2.9779,2.9792,2.9792,2.9779,2.9779,2.9779,2.9779,2.9779,2.9779,2.9779,2.9779,2.9779,2.9779,2.9779,2.9779,2.9779,2.9779,2.9779,2.9779,2.9779,2.9779,2.9779,2.9779,2.9779,2.9779,2.9779,2.9779,2.9779,2.9779,2.9779,2.9779,2.9779,2.9779,2.9779,2.9779,2.9779,2.9779,2.9779,2.9779,2.9779,2.9779,2.9729,2.9515,2.8737,2.7808,2.7419,2.7065,2.6612,2.6487,2.6487,2.6487,2.6487,2.6487,2.6487,2.6487,2.6487,2.6487,2.6487,2.6327,2.6084,2.598,2.5777,2.5496,2.5297,2.5274,2.5203,2.5153,2.5118,2.4855,2.4602,2.4239,2.4578,2.4723,2.4614,2.4506,2.4711,2.4879,2.4963,2.5107,2.5252,3.3124,3.3124,3.3124,3.3124,3.3124,3.3124,3.3124,3.3124,3.3124,3.3124,3.3124,3.3124,3.3124,3.3124,3.3124,3.3124,3.3124,3.3124,3.3124,3.3124,3.3124,3.3124,3.3124,3.3124,3.3086,3.2993,3.2943,3.2541,3.1738,3.1549,3.1248,3.0896,3.0758,3.0495,3.0105,3.0043,2.9942,2.9804,2.9779,2.9779,2.9779,2.9779,2.9779,2.9779,2.9779,2.9779,2.9779,2.9779,2.9779,2.9779,2.9779,2.9779,2.9779,2.9779,2.9779,2.9779,2.9779,2.9779,2.9779,2.9779,2.9779,2.9779,2.9779,2.9779,2.9779,2.9779,2.9779,2.9779,2.9779,2.9779,2.9779,2.9779,2.9779,2.9779,2.9779,2.9779,2.9729,2.949,2.8963,2.8222,2.767,2.714,2.6637,2.6487,2.6487,2.6487,2.6487,2.6487,2.6487,2.6487,2.6487,2.6487,2.6452,2.6374,2.6236,2.6084,2.5773,2.5404,2.5204,2.5133,2.5028,2.4933,2.4897,2.4776,2.4671,2.4452,2.495,2.53,2.5071,2.4999,2.5216,2.5276,2.5204,2.5192,2.5276,3.3124,3.3124,3.3124,3.3124,3.3124,3.3124,3.3124,3.3124,3.3124,3.3124,3.3124,3.3124,3.3124,3.3124,3.3124,3.3124,3.3124,3.3124,3.3124,3.3124,3.3124,3.3124,3.3124,3.3124,3.3124,3.3124,3.3124,3.2729,3.2252,3.2127,3.1825,3.1411,3.126,3.1035,3.057,3.0507,3.0269,2.9892,2.9804,2.9779,2.9779,2.9779,2.9779,2.9779,2.9779,2.9779,2.9779,2.9779,2.9779,2.9779,2.9779,2.9779,2.9779,2.9779,2.9779,2.9779,2.9779,2.9779,2.9779,2.9779,2.9779,2.9779,2.9779,2.9779,2.9779,2.9779,2.9779,2.9779,2.9779,2.9779,2.9779,2.9779,2.9779,2.9779,2.9779,2.9779,2.9754,2.9616,2.9063,2.8386,2.7745,2.7165,2.6612,2.6537,2.6487,2.6487,2.6487,2.6487,2.6487,2.6487,2.6487,2.6487,2.6487,2.6408,2.6227,2.6102,2.5741,2.5298,2.5059,2.4905,2.4774,2.463,2.4478,2.4359,2.439,2.465,2.5018,2.5261,2.5299,2.5312,2.5312,2.5312,2.53,2.5312,2.53,3.3124,3.3124,3.3124,3.3124,3.3124,3.3124,3.3124,3.3124,3.3124,3.3124,3.3124,3.3124,3.3124,3.3124,3.3124,3.3124,3.3124,3.3124,3.3124,3.3124,3.3124,3.3124,3.3124,3.3124,3.3124,3.3124,3.3111,3.3061,3.2729,3.2629,3.2428,3.1938,3.1825,3.1574,3.111,3.106,3.0746,3.0331,2.9993,2.9792,2.9779,2.9792,2.9804,2.9792,2.9804,2.9817,2.9804,2.9779,2.9779,2.9779,2.9779,2.9779,2.9779,2.9779,2.9779,2.9779,2.9779,2.9779,2.9779,2.9779,2.9779,2.9779,2.9779,2.9779,2.9779,2.9779,2.9779,2.9779,2.9779,2.9779,2.9779,2.9779,2.9779,2.9779,2.9779,2.9779,2.9741,2.9603,2.9239,2.8536,2.7846,2.7291,2.6751,2.6562,2.6499,2.6487,2.6487,2.6487,2.6487,2.6487,2.6487,2.6487,2.6499,2.6465,2.6199,2.5984,2.5608,2.5176,2.4648,2.4516,2.4394,2.4247,2.4177,2.4362,2.4593,2.4835,2.5132,2.5149,2.5105,2.5203,2.5312,2.5311,2.531,2.5264,2.5299,3.3124,3.3124,3.3124,3.3124,3.3124,3.3124,3.3124,3.3124,3.3124,3.3124,3.3124,3.3124,3.3124,3.3124,3.3124,3.3124,3.3124,3.3124,3.3124,3.3124,3.3124,3.3124,3.3124,3.3124,3.3124,3.3124,3.3124,3.3086,3.3099,3.3048,3.2792,3.2441,3.2428,3.2102,3.1738,3.1562,3.1336,3.0821,3.0482,3.0319,3.0281,3.0269,3.0256,3.0193,3.008,3.0005,2.9993,2.9817,2.9779,2.9779,2.9779,2.9779,2.9779,2.9779,2.9779,2.9779,2.9779,2.9779,2.9779,2.9779,2.9779,2.9779,2.9779,2.9779,2.9779,2.9779,2.9779,2.9779,2.9779,2.9779,2.9779,2.9779,2.9779,2.9779,2.9779,2.9779,2.9729,2.9541,2.9277,2.8699,2.8034,2.7431,2.6989,2.665,2.6512,2.6499,2.6487,2.6487,2.6487,2.6487,2.6487,2.6487,2.6487,2.6487,2.6292,2.5965,2.5573,2.5087,2.4579,2.4139,2.4011,2.4048,2.4124,2.4369,2.4711,2.4948,2.5139,2.5032,2.4969,2.5317,2.5546,2.5414,2.5331,2.5297,2.5284,3.3124,3.3124,3.3124,3.3124,3.3124,3.3124,3.3124,3.3124,3.3124,3.3124,3.3124,3.3124,3.3124,3.3124,3.3124,3.3124,3.3124,3.3124,3.3124,3.3124,3.3124,3.3124,3.3124,3.3124,3.3124,3.3124,3.3124,3.3124,3.3124,3.3124,3.3086,3.3061,3.2867,3.2591,3.229,3.2051,3.1813,3.1399,3.1135,3.1097,3.1097,3.1122,3.1135,3.1072,3.0809,3.0557,3.0493,3.0193,2.9993,3.0005,3.003,3.003,3.0093,2.9967,2.9942,2.993,2.9817,2.9842,2.9892,2.9842,2.9779,2.9779,2.9779,2.9779,2.9779,2.9779,2.9779,2.9779,2.9779,2.9779,2.9779,2.9779,2.9779,2.9779,2.9779,2.9779,2.9666,2.9402,2.9114,2.875,2.8273,2.7733,2.7228,2.6901,2.6575,2.6537,2.6487,2.6487,2.6487,2.6487,2.6487,2.6487,2.6487,2.6474,2.6424,2.6067,2.5561,2.5128,2.4663,2.4097,2.3604,2.3754,2.4259,2.4396,2.4718,2.4946,2.5215,2.5401,2.5581,2.5753,2.5791,2.5613,2.5479,2.5395,2.5332,3.3124,3.3124,3.3124,3.3124,3.3124,3.3124,3.3124,3.3124,3.3124,3.3124,3.3124,3.3124,3.3124,3.3124,3.3124,3.3124,3.3124,3.3124,3.3124,3.3124,3.3124,3.3124,3.3124,3.3124,3.3124,3.3124,3.3124,3.3124,3.3124,3.3124,3.3124,3.3124,3.3124,3.3023,3.2729,3.2416,3.2127,3.1901,3.1599,3.1411,3.1386,3.1386,3.1386,3.1348,3.1273,3.1097,3.106,3.0909,3.0809,3.0746,3.0721,3.0696,3.062,3.0432,3.0306,3.0244,3.0068,3.0043,3.0181,3.003,2.9792,2.9779,2.9779,2.9829,2.9905,2.9829,2.9792,2.9779,2.9817,2.9854,2.9779,2.9779,2.9779,2.9779,2.9779,2.9779,2.9679,2.944,2.9252,2.9001,2.8624,2.8172,2.7632,2.714,2.6839,2.6575,2.6524,2.6487,2.6487,2.6487,2.6487,2.6487,2.6487,2.6487,2.6449,2.6034,2.5536,2.5172,2.4808,2.4356,2.391,2.4224,2.4618,2.4687,2.485,2.5273,2.5665,2.598,2.6111,2.6013,2.5921,2.5826,2.5667,2.5527,2.5475,3.3124,3.3124,3.3124,3.3124,3.3124,3.3124,3.3124,3.3124,3.3124,3.3124,3.3124,3.3124,3.3124,3.3124,3.3124,3.3124,3.3124,3.3124,3.3124,3.3124,3.3124,3.3124,3.3124,3.3124,3.3124,3.3124,3.3124,3.3124,3.3124,3.3124,3.3124,3.3124,3.3124,3.3099,3.2955,3.2717,3.2466,3.2353,3.2152,3.1901,3.1967,3.198,3.1951,3.1913,3.1788,3.1637,3.1562,3.1411,3.1273,3.1273,3.1298,3.1336,3.1248,3.1097,3.0896,3.0708,3.057,3.047,3.0608,3.0557,3.0269,3.0407,3.0369,3.0344,3.0256,3.0244,3.0382,3.0093,3.0068,2.9993,2.9892,2.9779,2.9779,2.9779,2.9779,2.9779,2.9779,2.9628,2.949,2.9302,2.8913,2.8536,2.8122,2.7557,2.6989,2.67,2.6524,2.6487,2.6487,2.6487,2.6487,2.6487,2.6487,2.6487,2.6461,2.6021,2.5586,2.5398,2.5071,2.4845,2.4612,2.4908,2.5059,2.5114,2.5385,2.5724,2.6025,2.6246,2.623,2.6129,2.6008,2.5825,2.571,2.558,2.5645,3.3124,3.3124,3.3124,3.3124,3.3124,3.3124,3.3124,3.3124,3.3124,3.3124,3.3124,3.3124,3.3124,3.3124,3.3124,3.3124,3.3124,3.3124,3.3124,3.3124,3.3124,3.3124,3.3124,3.3124,3.3124,3.3124,3.3124,3.3124,3.3124,3.3124,3.3124,3.3124,3.3124,3.3124,3.3068,3.3111,3.3099,3.3086,3.2973,3.291,3.286,3.2835,3.281,3.2667,3.2416,3.2215,3.2139,3.1888,3.1763,3.1738,3.17,3.17,3.1637,3.1499,3.1386,3.1361,3.1298,3.1286,3.1361,3.1348,3.1311,3.1135,3.0984,3.106,3.1223,3.1223,3.1022,3.0633,3.0595,3.0357,3.0093,2.9842,2.9892,2.988,2.9905,2.9779,2.9779,2.9779,2.9616,2.9541,2.9227,2.8863,2.8461,2.8021,2.7268,2.6851,2.6587,2.6499,2.6512,2.6499,2.6499,2.6487,2.6487,2.6487,2.6411,2.6009,2.5649,2.5498,2.5423,2.5322,2.5297,2.5435,2.5548,2.5611,2.5824,2.6135,2.6311,2.6474,2.6383,2.6277,2.5961,2.5807,2.5703,2.5707,2.5874,3.3124,3.3124,3.3124,3.3124,3.3124,3.3124,3.3124,3.3124,3.3124,3.3124,3.3124,3.3124,3.3124,3.3124,3.3124,3.3124,3.3124,3.3124,3.3124,3.3124,3.3124,3.3124,3.3124,3.3124,3.3124,3.3124,3.3124,3.3124,3.3124,3.3124,3.3124,3.3124,3.3124,3.3124,3.3124,3.3124,3.3124,3.3124,3.3099,3.3111,3.3124,3.3124,3.3124,3.3068,3.2842,3.2742,3.2717,3.2428,3.2378,3.2365,3.2353,3.2378,3.2315,3.219,3.1938,3.1838,3.1725,3.1587,3.1913,3.2139,3.2089,3.1738,3.1486,3.1512,3.1411,3.1386,3.126,3.1198,3.1148,3.0972,3.0909,3.052,3.0407,3.0269,3.0168,2.988,2.9779,2.9779,2.9729,2.9716,2.9515,2.9214,2.8875,2.8449,2.7795,2.7366,2.7115,2.67,2.66,2.6537,2.6512,2.6499,2.6487,2.6487,2.6373,2.6122,2.6047,2.6009,2.6072,2.6135,2.6122,2.5996,2.6047,2.6097,2.6285,2.6487,2.6487,2.6487,2.6487,2.6373,2.6147,2.6072,2.6088,2.6151,2.6264,3.3124,3.3124,3.3124,3.3124,3.3124,3.3124,3.3124,3.3124,3.3124,3.3124,3.3124,3.3124,3.3124,3.3124,3.3124,3.3124,3.3124,3.3124,3.3124,3.3124,3.3124,3.3124,3.3124,3.3124,3.3124,3.3124,3.3124,3.3124,3.3124,3.3124,3.3124,3.3124,3.3124,3.3124,3.3124,3.3124,3.3124,3.3124,3.3124,3.3124,3.3124,3.3124,3.3124,3.3124,3.3086,3.3099,3.3111,3.3124,3.3124,3.3124,3.3124,3.3124,3.2943,3.278,3.2516,3.2378,3.229,3.2202,3.2541,3.2742,3.2579,3.2219,3.203,3.1976,3.1976,3.2089,3.1901,3.1788,3.17,3.1549,3.1399,3.1009,3.0846,3.0696,3.0407,3.0105,2.9829,2.9829,2.9779,2.9779,2.9754,2.9478,2.9252,2.8837,2.8348,2.7984,2.7645,2.7253,2.6851,2.6788,2.6688,2.6575,2.6537,2.6524,2.6512,2.6424,2.6386,2.6474,2.6487,2.6487,2.6461,2.6273,2.6411,2.6487,2.6487,2.6487,2.6487,2.6487,2.6487,2.6487,2.6424,2.6411,2.6487,2.6487,2.6487,3.3124,3.3124,3.3124,3.3124,3.3124,3.3124,3.3124,3.3124,3.3124,3.3124,3.3124,3.3124,3.3124,3.3124,3.3124,3.3124,3.3124,3.3124,3.3124,3.3124,3.3124,3.3124,3.3124,3.3124,3.3124,3.3124,3.3124,3.3124,3.3136,3.3244,3.3232,3.3162,3.3206,3.3212,3.3187,3.3124,3.3124,3.3124,3.3124,3.3124,3.3124,3.3124,3.3124,3.3124,3.3124,3.3124,3.3124,3.3124,3.3124,3.3124,3.3124,3.3124,3.3111,3.3124,3.3068,3.3043,3.3023,3.2998,3.2968,3.3099,3.3086,3.281,3.2923,3.3048,3.2918,3.2742,3.2541,3.2353,3.224,3.1913,3.1637,3.1449,3.1273,3.0997,3.0683,3.0357,2.998,2.9867,2.9804,2.9779,2.9779,2.9654,2.9578,2.9239,2.89,2.88,2.8473,2.8084,2.7682,2.7366,2.7178,2.6738,2.6675,2.6575,2.6549,2.6512,2.6487,2.6487,2.6487,2.6487,2.6487,2.6487,2.6487,2.6487,2.6487,2.6487,2.6487,2.6487,2.6487,2.6487,2.6487,2.6487,2.6487,2.6487,2.6487,3.3124,3.3124,3.3124,3.3124,3.3124,3.3124,3.3124,3.3124,3.3124,3.3124,3.3124,3.3124,3.3124,3.3124,3.3124,3.3124,3.3124,3.3124,3.3124,3.3124,3.3124,3.3124,3.3124,3.3124,3.3124,3.3124,3.3124,3.3162,3.325,3.3395,3.3395,3.3199,3.352,3.3445,3.3325,3.3149,3.3187,3.3162,3.3162,3.3124,3.3124,3.3124,3.3124,3.3124,3.3124,3.3124,3.3124,3.3124,3.3124,3.3124,3.3124,3.3124,3.3124,3.3124,3.3124,3.3124,3.3111,3.3111,3.3124,3.3124,3.3124,3.3124,3.3124,3.3124,3.3124,3.3099,3.2955,3.2792,3.2704,3.2441,3.2252,3.2089,3.1851,3.1549,3.1173,3.0708,3.0344,3.0043,2.9967,2.9779,2.9779,2.9779,2.9716,2.9666,2.9377,2.944,2.9302,2.8888,2.8499,2.8109,2.7657,2.7193,2.704,2.7002,2.6663,2.6562,2.6512,2.6487,2.6487,2.6487,2.6487,2.6487,2.6487,2.6487,2.6487,2.6487,2.6487,2.6487,2.6487,2.6487,2.6487,2.6487,2.6487,2.6512,2.6499,3.3124,3.3124,3.3124,3.3124,3.3124,3.3124,3.3124,3.3124,3.3124,3.3124,3.3124,3.3124,3.3124,3.3124,3.3124,3.3124,3.3124,3.3124,3.3124,3.3124,3.3124,3.3124,3.3124,3.3124,3.3124,3.3124,3.3174,3.3219,3.3458,3.3884,3.401,3.3859,3.4135,3.3997,3.3872,3.3822,3.3646,3.3432,3.3244,3.3162,3.3124,3.3124,3.3124,3.3124,3.3124,3.3124,3.3124,3.3124,3.3124,3.3124,3.3124,3.3124,3.3124,3.3124,3.3124,3.3124,3.3124,3.3124,3.3124,3.3124,3.3124,3.3124,3.3124,3.3124,3.3124,3.3111,3.3099,3.3048,3.3074,3.3048,3.2948,3.2767,3.2478,3.219,3.165,3.111,3.0708,3.0331,3.008,2.9842,2.9779,2.9779,2.9779,2.9779,2.9779,2.9691,2.9641,2.9478,2.9101,2.8725,2.8222,2.772,2.757,2.7469,2.7128,2.6788,2.6751,2.6688,2.6487,2.6487,2.6499,2.6512,2.6537,2.6512,2.6487,2.6487,2.6487,2.6487,2.6487,2.6487,2.6562,2.6663,2.6663,2.66,2.6575,3.3124,3.3124,3.3124,3.3124,3.3124,3.3124,3.3124,3.3124,3.3124,3.3124,3.3124,3.3124,3.3124,3.3124,3.3124,3.3124,3.3124,3.3124,3.3124,3.3136,3.3124,3.3124,3.3124,3.3136,3.3212,3.3187,3.33,3.3533,3.4022,3.4437,3.4738,3.4751,3.4776,3.465,3.4487,3.4462,3.4261,3.3947,3.3533,3.3275,3.3149,3.3124,3.3124,3.3124,3.3124,3.3124,3.3124,3.3124,3.3124,3.3124,3.3124,3.3124,3.3124,3.3124,3.3124,3.3124,3.3124,3.3124,3.3124,3.3124,3.3124,3.3124,3.3124,3.3124,3.3124,3.3124,3.3124,3.3124,3.3124,3.3124,3.3023,3.2943,3.2754,3.2478,3.2064,3.1625,3.126,3.0758,3.0218,2.998,2.9779,2.9779,2.9779,2.9779,2.9779,2.9779,2.9779,2.9741,2.9591,2.9214,2.88,2.8273,2.8172,2.7996,2.7595,2.7281,2.714,2.6977,2.6801,2.6826,2.7077,2.6889,2.6587,2.6625,2.6675,2.6524,2.6487,2.6499,2.6512,2.6524,2.6625,2.6839,2.6876,2.6901,2.7002,3.3124,3.3124,3.3124,3.3124,3.3124,3.3124,3.3124,3.3124,3.3124,3.3124,3.3124,3.3124,3.3124,3.3124,3.3124,3.3124,3.3124,3.3212,3.3136,3.3212,3.3224,3.3375,3.3199,3.3294,3.3382,3.3596,3.3784,3.4022,3.4537,3.4931,3.5107,3.4864,3.5064,3.5182,3.4901,3.4889,3.4751,3.45,3.4098,3.3545,3.3206,3.3149,3.3124,3.3124,3.3124,3.3124,3.3124,3.3124,3.3124,3.3124,3.3124,3.3124,3.3124,3.3124,3.3124,3.3124,3.3124,3.3124,3.3124,3.3124,3.3124,3.3124,3.3124,3.3124,3.3124,3.3124,3.3124,3.3124,3.3124,3.3124,3.3124,3.3056,3.3006,3.2742,3.2491,3.2139,3.1746,3.1122,3.0444,3.0131,2.988,2.9804,2.9817,2.9779,2.9779,2.9779,2.9779,2.9779,2.9767,2.9541,2.9289,2.8875,2.8737,2.8549,2.8134,2.7858,2.7682,2.7632,2.7532,2.7582,2.7632,2.7356,2.7115,2.6964,2.6889,2.6864,2.6763,2.6549,2.6562,2.6738,2.6952,2.7266,2.7457,2.7519,2.7657,3.3124,3.3124,3.3124,3.3124,3.3124,3.3124,3.3124,3.3124,3.3124,3.3124,3.3124,3.3124,3.3124,3.3124,3.3124,3.3149,3.3199,3.3357,3.347,3.3495,3.3658,3.3847,3.3796,3.3734,3.3997,3.4248,3.4562,3.4831,3.5107,3.5579,3.5717,3.5479,3.5742,3.573,3.5403,3.5416,3.5278,3.5031,3.468,3.4198,3.352,3.3282,3.3162,3.3124,3.3124,3.3124,3.3124,3.3124,3.3124,3.3124,3.3124,3.3124,3.3124,3.3124,3.3124,3.3124,3.3124,3.3124,3.3124,3.3124,3.3124,3.3124,3.3124,3.3124,3.3124,3.3124,3.3124,3.3124,3.3124,3.3124,3.3124,3.3111,3.3111,3.2905,3.2767,3.2541,3.2051,3.1461,3.0859,3.0394,3.0193,3.0055,2.9993,2.9779,2.9779,2.9779,2.9779,2.9779,2.9779,2.9779,2.9566,2.9402,2.9252,2.8988,2.8587,2.8411,2.8298,2.826,2.8247,2.8072,2.7946,2.7795,2.762,2.7519,2.7444,2.7406,2.7291,2.7077,2.7155,2.7431,2.7582,2.7745,2.7946,2.8185,2.8411,3.3124,3.3124,3.3124,3.3124,3.3124,3.3124,3.3124,3.3124,3.3124,3.3124,3.3124,3.3124,3.3124,3.3124,3.3124,3.3174,3.3282,3.3596,3.3796,3.411,3.4412,3.4399,3.4474,3.458,3.4675,3.4939,3.5316,3.5491,3.568,3.6031,3.6292,3.6392,3.6417,3.6392,3.6417,3.6342,3.6044,3.5692,3.5282,3.4893,3.4248,3.3495,3.3257,3.3187,3.3124,3.3124,3.3124,3.3124,3.3124,3.3124,3.3124,3.3124,3.3124,3.3124,3.3124,3.3124,3.3124,3.3124,3.3124,3.3124,3.3124,3.3124,3.3124,3.3124,3.3124,3.3124,3.3124,3.3124,3.3124,3.3124,3.3124,3.3124,3.3124,3.3111,3.2968,3.2817,3.2265,3.1788,3.1311,3.0796,3.0608,3.0457,3.0181,2.9955,2.9867,2.9854,2.9804,2.9792,2.9779,2.9779,2.9691,2.9628,2.9566,2.9315,2.9026,2.8963,2.8863,2.885,2.8787,2.8511,2.8298,2.8285,2.8247,2.8172,2.8109,2.7908,2.7883,2.7758,2.7946,2.8047,2.8185,2.8285,2.8511,2.8775,2.9164,3.3124,3.3124,3.3124,3.3124,3.3124,3.3124,3.3124,3.3124,3.3124,3.3124,3.3124,3.3124,3.3124,3.3136,3.3124,3.3275,3.3646,3.3947,3.4274,3.4575,3.4851,3.4768,3.4806,3.5064,3.5077,3.5416,3.5855,3.6132,3.6069,3.6292,3.6417,3.6417,3.6417,3.6417,3.6417,3.638,3.6329,3.6031,3.578,3.5332,3.5006,3.4324,3.3533,3.3294,3.3124,3.3124,3.3124,3.3124,3.3124,3.3124,3.3124,3.3124,3.3124,3.3124,3.3124,3.3124,3.3124,3.3124,3.3124,3.3124,3.3124,3.3124,3.3124,3.3124,3.3124,3.3124,3.3124,3.3124,3.3124,3.3124,3.3124,3.3124,3.3124,3.3124,3.3061,3.2754,3.2353,3.2139,3.1863,3.1486,3.1223,3.0947,3.0583,3.0382,3.0218,3.0143,2.993,2.9892,2.9792,2.9779,2.9779,2.9779,2.9779,2.9779,2.9616,2.9503,2.9428,2.9415,2.9352,2.9139,2.8988,2.8875,2.8825,2.8775,2.8486,2.821,2.8222,2.8473,2.8335,2.8411,2.8649,2.8787,2.9001,2.9227,2.9503]}]]